     2.10           OBSERVATION DATA    M (MIXED)           RINEX VERSION / TYPE
JPS2RIN 1.40 Douglas W. Hogarth 01-OCT-05 17:59             PGM / RUN BY / DATE
build Feb 6 2004 (c) Javad Navigation Systems               COMMENT
DWH152750000.jps                                            COMMENT
DWH1                                                        MARKER NAME
49837S001                                                   MARKER NUMBER
Douglas W. Hogarth Douglas W. Hogarth                       OBSERVER / AGENCY
MT312431807 JPS LEGACY 2.3 Apr,28,2004 p4                   REC # / TYPE / VERS
RA0083 JPSREGANT_DD_E NONE                                  ANT # / TYPE
  -2280790.370  -3638690.400   4700113.800                  APPROX POSITION XYZ
        0.0000        0.0000        0.0000                  ANTENNA: DELTA H/E/N
     1     1                                                WAVELENGTH FACT L1/2
  2005    10     2     0     0    0.0000000     GPS         TIME OF FIRST OBS
    30.000                                                  INTERVAL
    13                                                      LEAP SECONDS
     9    C1    P1    P2    L1    L2    D1    D2    S1    S2# / TYPES OF OBSERV
PSEUDORANGES SMOOTHED ~25s time constant                    COMMENT
                                                            END OF HEADER
 05 10  2  0  0  0.0000000  0 11G 4G 7G 9G11G17G24G26G28G31R21S22
  23551008.268    23551008.1944   23551009.6894  123761405.904 5  96437455.13842
      3535.627        2755.026          39.000          20.000
  20469734.439    20469733.6734   20469735.4684  107569225.447 8  83820185.88147
      -151.341        -117.928          53.000          45.000
  21761728.469    21761727.9164   21761728.9034  114358668.620 7  89110657.90044
      2582.028        2011.974          45.000          30.000
  24287930.493    24287929.8934   24287929.2114  127633975.922 5  99455061.13841
     -2533.061       -1973.804          38.000          13.000
  22635966.266    22635965.9104   22635966.4514  118952822.136 6  92690506.81744
      3134.479        2442.450          44.000          31.000
  22278789.184    22278789.3794   22278790.9904  117075858.849 7  91227955.85344
      1547.900        1206.151          47.000          32.000
  23522519.202    23522518.8704   23522520.8884  123611709.098 6  96320804.92342
     -3170.972       -2470.878          42.000          21.000
  21925724.208    21925723.8324   21925723.6474  115220504.077 7  89782223.12845
     -2133.300       -1662.310          48.000          35.000
  20703269.413    20703269.2634   20703270.1664  108796452.050 8  84776478.41946
     -1959.282       -1526.714          53.000          42.000
  22262355.318    22262355.742    22262356.625   119172169.071 5  92689466.012 4
      3672.384        2856.299          37.000          34.000
  41036231.426                                   215646852.071 4
          .000                          31.000
 05 10  2  0  0 30.0000000  0 11G 4G 7G 9G11G17G24G26G28G29G31R21
  23530838.776    23530838.7664   23530840.4534  123655415.228 6  96354865.11541
      3530.359        2750.922          41.000          19.000
  20470639.540    20470638.4134   20470640.3274  107573980.284 8  83823890.95546
      -165.671        -129.094          53.000          44.000
  21747029.520    21747029.5044   21747030.4024  114281426.505 7  89050469.22944
      2567.393        2000.566          45.000          31.000
  24302427.189    24302427.0684   24302426.9184  127710159.309 5  99514424.80641
     -2545.875       -1983.811          38.000          12.000
  22618096.390    22618096.3934   22618096.9084  118858917.210 7  92617334.14344
      3125.813        2435.701          45.000          32.000
  22270001.454    22270000.8874   22270002.4234  117029676.512 7  91191969.64344
      1530.899        1192.908          46.000          32.000
  23540645.337    23540645.6544   23540647.2254  123706962.641 6  96395028.44942
     -3179.260       -2477.353          40.000          23.000
  21937924.518    21937923.9934   21937923.9764  115284616.366 7  89832180.75445
     -2140.890       -1668.224          48.000          36.000
  23870934.522                                   125442619.944 4
     -3135.843                          32.000
  20714496.974    20714496.7504   20714497.6344  108855452.277 8  84822452.61746
     -1974.078       -1538.241          53.000          42.000
  22241802.896    22241804.401    22241804.105   119062147.573 5  92603893.714 4
      3662.376        2848.499          38.000          34.000
 05 10  2  0  1  0.0000000  0 11G 4G 7G 9G11G17G24G26G28G29G31R21
  23510699.816    23510699.8904   23510701.6714  123549585.457 6  96272400.41742
      3524.933        2746.681          41.000          20.000
  20471625.858    20471625.0324   20471626.4874  107579163.949 9  83827930.16947
      -179.919        -140.197          55.000          45.000
  21732415.294    21732414.9634   21732415.8624  114204625.168 7  88990624.08844
      2552.659        1989.086          47.000          33.000
  24316998.195    24316996.7584   24316996.5204  127786724.617 5  99574086.04641
     -2558.536       -1993.669          37.000          13.000
  22600276.833    22600276.4944   22600276.6924  118765272.520 6  92544364.33144
      3117.131        2428.931          43.000          31.000
  22261309.658    22261309.7424   22261311.9504  116984005.574 7  91156381.90544
      1513.823        1179.603          45.000          32.000
  23558818.803    23558818.6484   23558820.9554  123802462.932 5  96469444.25842
     -3187.410       -2483.687          38.000          22.000
  21950167.718    21950167.5764   21950167.3514  115348955.641 8  89882315.23345
     -2148.411       -1674.086          50.000          36.000
  23888852.324                                   125536774.018 4
     -3141.064                          34.000
  20725808.618    20725808.3914   20725809.5694  108914895.322 8  84868771.88246
     -1988.797       -1549.711          53.000          42.000
  22221302.846    22221304.467    22221306.814   118952423.444 4  92518552.791 4
      3652.494        2840.833          33.000          34.000
 05 10  2  0  1 30.0000000  0 12G 4G 7G 9G11G17G24G26G28G29G31R21S22
  23490592.405    23490592.5764   23490594.4264  123443919.901 6  96190063.69242
      3519.421        2742.405          41.000          20.000
  20472693.940    20472693.0694   20472694.4854  107584775.542 9  83832302.85047
      -194.180        -151.308          55.000          45.000
  21717883.739    21717883.8984   21717885.6294  114128266.983 7  88931124.22644
      2537.855        1977.550          45.000          32.000
  24331640.965    24331639.5934   24331638.3334  127863669.465 5  99634043.05741
     -2571.150       -2003.463          36.000          13.000
  22582505.654    22582505.7264   22582506.0354  118671889.301 6  92471598.19344
      3108.383        2422.113          42.000          30.000
  22252716.446    22252716.7134   22252718.5644  116938847.764 6  91121194.01944
      1496.691        1166.254          44.000          32.000
  23577036.724    23577038.5704   23577039.6594  123898206.603 5  96544049.67541
     -3195.465       -2489.957          36.000          17.000
  21962453.934    21962453.5944   21962453.8014  115413520.821 7  89932625.75644
     -2155.935       -1679.951          47.000          34.000
  23906797.932                                   125631082.354 4
     -3146.164                          31.000
  20737203.994    20737203.7204   20737204.9584  108974778.699 8  84915434.25746
     -2003.423       -1561.111          52.000          42.000
  22200865.512    22200864.751    22200864.575   118842997.736 5  92433443.978 4
      3642.556        2833.097          39.000          34.000
  41036266.265                                   215647134.681 4
          .000                          32.000
 05 10  2  0  2  0.0000000  0 11G 4G 7G 9G11G17G24G26G28G29G31R21
  23470515.865    23470516.6694   23470518.2414  123338421.452 5  96107857.18541
      3513.821        2738.053          38.000          19.000
  20473842.721    20473842.0904   20473843.6274  107590814.221 9  83837008.31947
      -208.407        -162.395          55.000          45.000
  21703437.491    21703437.7554   21703439.8524  114052354.666 6  88871971.79444
      2522.957        1965.936          42.000          31.000
  24346351.573    24346352.2074   24346351.4884  127940991.769 4  99694294.14941
     -2583.663       -2013.240          32.000          10.000
  22564786.192    22564785.8064   22564787.0424  118578769.661 6  92399037.48544
      3099.585        2415.255          44.000          32.000
  22244221.344    22244221.2734   22244222.9354  116894204.955 7  91086407.44544
      1479.490        1152.845          47.000          31.000
  23595304.171    23595302.1044   23595304.3044  123994190.343 5  96618842.18841
     -3203.458       -2496.194          36.000          16.000
  21974783.222    21974782.7914   21974782.9994  115478311.525 7  89983112.01745
     -2163.439       -1685.793          48.000          35.000
  23924769.862                                   125725541.764 4
     -3151.179                          30.000
  20748682.648    20748682.5874   20748683.7174  109035100.400 8  84962438.16846
     -2018.005       -1572.471          53.000          42.000
  22180477.730    22180478.741    22180480.036   118733873.115 6  92348569.307 4
      3632.576        2825.335          40.000          33.000
 05 10  2  0  2 30.0000000  0 12G 4G 7G 9G11G17G24G26G28G29G31R21S22
  23450472.752    23450473.1214   23450474.8864  123233093.329 5  96025783.39641
      3508.078        2733.575          37.000          16.000
  20475072.754    20475072.1774   20475073.9054  107597279.240 8  83842045.99447
      -222.592        -173.448          53.000          45.000
  21689078.156    21689077.6604   21689079.5124  113976890.948 7  88813168.92044
      2507.947        1954.249          45.000          32.000
  24361138.668    24361136.8574   24361137.2654  128018689.041 5  99754837.47541
     -2596.137       -2022.963          35.000          11.000
  22547116.081    22547115.9774   22547117.3524  118485914.657 7  92326682.93744
      3090.740        2408.369          45.000          32.000
  22235825.118    22235824.4394   22235826.3474  116850079.345 7  91052023.85944
      1462.214        1139.389          47.000          32.000
  23613612.740    23613613.6744   23613615.3884  124090411.299 6  96693819.50142
     -3211.322       -2502.334          40.000          20.000
  21987155.333    21987154.9234   21987155.6694  115543327.523 7  90033773.81645
     -2170.966       -1691.659          48.000          35.000
  23942775.167                                   125820149.628 3
     -3156.030                          29.000
  20760244.361    20760244.2554   20760245.3114  109095858.367 8  85009782.03546
     -2032.517       -1583.780          52.000          42.000
  22160149.525    22160149.961    22160150.306   118625049.884 5  92263929.102 4
      3622.328        2817.357          38.000          33.000
  41036286.321                                   215647237.344 4
          .000                          32.000
 05 10  2  0  3  0.0000000  0 11G 4G 7G 9G11G17G24G26G28G29G31R21
  23430461.731    23430462.2324   23430464.7824  123127938.695 4  95943844.77941
      3502.260        2729.039          33.000          14.000
  20476384.506    20476383.4424   20476384.9504  107604169.657 8  83847415.16347
      -236.748        -184.481          53.000          45.000
  21674803.977    21674803.8004   21674805.0934  113901878.429 7  88754717.63944
      2492.870        1942.493          46.000          33.000
  24375994.604    24375994.8204   24375994.5254  128096758.893 5  99815671.10241
     -2608.514       -2032.597          36.000          13.000
  22529496.165    22529496.6004   22529497.7114  118393326.035 6  92254535.97644
      3081.858        2401.439          43.000          30.000
  22227526.494    22227526.4504   22227528.3394  116806472.580 7  91018044.57744
      1444.891        1125.892          47.000          32.000
  23631967.526    23631967.8834   23631969.6104  124186865.973 5  96768978.98441
     -3219.021       -2508.338          38.000          18.000
  21999570.553    21999570.0224   21999570.6164  115608568.578 7  90084611.01145
     -2178.442       -1697.486          49.000          35.000
  23960808.052                                   125914902.972 4
     -3160.844                          32.000
  20771889.141    20771888.8234   20771889.7224  109157050.301 8  85057464.05946
     -2046.938       -1595.014          52.000          42.000
  22139877.568    22139878.422    22139877.338   118516532.288 6  92179526.549 4
      3612.112        2809.417          41.000          31.000
 05 10  2  0  3 30.0000000  0 11G 4G 7G 9G11G17G24G26G28G29G31R21
  23410485.960    23410485.8724   23410488.1954  123022960.573 5  95862043.75141
      3496.280        2724.382          37.000          14.000
  20477776.069    20477775.6344   20477776.7084  107611484.752 8  83853115.23447
      -250.911        -195.514          53.000          45.000
  21660615.929    21660615.6214   21660617.1044  113827319.575 7  88696619.83244
      2477.686        1930.668          45.000          32.000
  24390922.197    24390921.8724   24390921.7814  128175199.033 5  99876793.36141
     -2620.836       -2042.197          35.000          12.000
  22511928.797    22511928.7604   22511929.3364  118301004.562 6  92182597.18544
      3072.889        2394.459          43.000          31.000
  22219327.543    22219327.4954   22219329.7994  116763386.358 7  90984470.92744
      1427.505        1112.340          47.000          33.000
  23650365.888    23650366.5594   23650368.7964  124283551.342 5  96844318.17641
     -3226.654       -2514.291          39.000          18.000
  22012027.293    22012027.3264   22012027.5834  115674033.627 7  90135622.71944
     -2185.900       -1703.298          47.000          34.000
  23978868.556                                   126009798.339 4
     -3165.546                          33.000
  20783615.725    20783615.6044   20783616.3694  109218673.978 8  85105482.50246
     -2061.301       -1606.208          53.000          42.000
  22119661.079    22119662.532    22119663.449   118408320.774 5  92095362.048 4
      3601.866        2801.448          37.000          34.000
 05 10  2  0  4  0.0000000  0 12G 4G 7G 9G11G17G24G26G28G29G31R21S22
  23390544.000    23390543.5844   23390545.2504  122918162.373 5  95780382.86641
      3490.265        2719.698          38.000          17.000
  20479248.906    20479248.1404   20479249.5824  107619223.419 8  83859145.37647
      -265.002        -206.496          52.000          45.000
  21646514.366    21646514.2554   21646515.4114  113753217.096 7  88638877.62044
      2462.454        1918.804          46.000          32.000
  24405918.471    24405918.0254   24405918.6964  128254007.147 5  99938202.27241
     -2633.057       -2051.726          36.000          11.000
  22494412.120    22494411.9274   22494412.0084  118208952.305 6  92110868.20344
      3063.913        2387.458          44.000          32.000
  22211227.914    22211227.6924   22211229.7814  116720822.769 7  90951304.52144
      1410.072        1098.753          46.000          32.000
  23668808.375    23668809.1144   23668811.1014  124380463.951 5  96919834.53841
     -3234.209       -2520.156          38.000          17.000
  22024528.058    22024527.7214   22024527.5734  115739722.564 8  90186808.87845
     -2193.355       -1709.104          50.000          35.000
  23996950.797                                   126104833.263 5
     -3170.113                          35.000
  20795424.095    20795423.9794   20795424.8744  109280727.223 8  85153835.67546
     -2075.565       -1617.321          51.000          42.000
  22099506.039    22099506.947    22099505.994   118300417.495 6  92011437.347 4
      3591.431        2793.327          41.000          34.000
  41036348.653                                   215647536.771 4
          .000                          32.000
 05 10  2  0  4 30.0000000  0 11G 4G 7G 9G11G17G24G26G28G29G31R21
  23370636.273    23370636.1474   23370637.8784  122813547.246 5  95698864.66741
      3484.051        2714.859          38.000          18.000
  20480801.669    20480801.0264   20480802.8834  107627385.003 8  83865505.04547
      -279.114        -217.492          54.000          45.000
  21632500.890    21632500.4174   21632501.4954  113679573.470 7  88581492.99644
      2447.089        1906.823          47.000          33.000
  24420984.323    24420984.1744   24420983.6444  128333181.130 5  99999896.35241
     -2645.237       -2061.231          37.000           8.000
  22476946.786    22476946.2214   22476947.4774  118117171.116 6  92039350.44744
      3054.839        2380.396          43.000          33.000
  22203228.473    22203227.9854   22203230.1994  116678783.562 7  90918546.71144
      1392.539        1085.097          47.000          33.000
  23687293.570    23687293.2074   23687295.0134  124477600.865 5  96995525.58841
     -3241.617       -2525.931          37.000          18.000
  22037070.688    22037070.3534   22037071.0594  115805635.006 7  90238169.22945
     -2200.821       -1714.923          49.000          35.000
  24015059.892                                   126200004.405 4
     -3174.641                          32.000
  20807313.698    20807313.5334   20807313.9984  109343207.794 8  85202521.83046
     -2089.798       -1628.415          53.000          41.000
  22079404.459    22079407.184    22079406.320   118192824.199 6  91927753.741 5
      3581.235        2785.405          42.000          35.000
 05 10  2  0  5  0.0000000  0 12G 4G 7G 9G11G17G24G26G28G29G31R21S22
  23350764.155    23350763.7724   23350765.0474  122709118.078 6  95617491.33841
      3477.836        2710.001          40.000          18.000
  20482435.125    20482434.3454   20482436.1574  107635968.509 8  83872193.50447
      -293.138        -228.419          53.000          45.000
  21618574.773    21618574.5884   21618575.3454  113606391.151 7  88524467.83645
      2431.700        1894.832          48.000          35.000
  24436118.476    24436118.9614   24436121.5214  128412718.546 4 100061873.57241
     -2657.305       -2070.619          34.000           8.000
  22459532.501    22459532.6624   22459534.4514  118025661.452 6  91968044.22544
      3045.764        2373.320          43.000          33.000
  22195328.348    22195328.3384   22195330.3084  116637270.232 7  90886198.68544
      1374.986        1071.416          46.000          32.000
  23705819.738    23705819.5754   23705821.8464  124574958.637 5  97071388.73441
     -3248.909       -2531.617          36.000          19.000
  22049656.186    22049655.7644   22049655.9264  115871770.390 7  90289703.29344
     -2208.237       -1720.703          49.000          34.000
  24033198.130                                   126295308.839 4
     -3179.072                          32.000
  20819284.267    20819284.0214   20819284.7104  109406113.343 8  85251539.13546
     -2103.910       -1639.407          52.000          42.000
  22059364.800    22059365.785    22059365.999   118085542.936 6  91844312.764 5
      3570.892        2777.361          42.000          35.000
  41036383.254                                   215647704.224 4
          .000                          32.000
 05 10  2  0  5 30.0000000  0 11G 4G 7G 9G11G17G24G26G28G29G31R21
  23330927.859    23330928.0994   23330929.2704  122604878.314 6  95536265.59142
      3471.464        2705.016          40.000          20.000
  20484148.991    20484148.0114   20484149.4364  107644972.992 8  83879209.98447
      -307.145        -239.333          54.000          45.000
  21604736.625    21604736.5954   21604737.4024  113533672.650 7  88467804.10044
      2416.167        1882.728          47.000          33.000
  24451325.426    24451325.3834   24451323.5344  128492616.933 4 100124132.01441
     -2669.288       -2079.962          33.000           7.000
  22442171.368    22442171.2474   22442172.7014  117934425.643 6  91896951.39144
      3036.615        2366.198          43.000          33.000
  22187529.422    22187529.0174   22187530.5594  116596284.784 7  90854262.00144
      1357.355        1057.677          45.000          32.000
  23724388.227    23724388.5864   23724390.2664  124672534.277 5  97147421.66442
     -3256.150       -2537.253          38.000          20.000
  22062283.284    22062283.0234   22062283.3034  115938127.948 7  90341410.46644
     -2215.606       -1726.446          48.000          34.000
  24051358.674                                   126390743.719 4
     -3183.254                          33.000
  20831335.445    20831335.0974   20831336.0274  109469441.700 8  85300885.90646
     -2117.975       -1650.368          53.000          41.000
  22039382.328    22039383.171    22039382.954   117978575.401 6  91761115.870 4
      3560.351        2769.153          40.000          34.000
 05 10  2  0  6  0.0000000  0 12G 4G 7G 9G11G17G24G26G28G29G31R21S22
  23311127.839    23311128.0444   23311130.0674  122500830.944 5  95455189.78242
      3465.040        2700.008          39.000          20.000
  20485942.324    20485941.5744   20485942.8864  107654397.555 8  83886553.79947
      -321.160        -250.253          54.000          45.000
  21590987.365    21590987.3204   21590988.4844  113461420.521 7  88411503.74944
      2400.592        1870.597          45.000          31.000
  24466595.906    24466596.8174   24466595.9134  128572873.822 4 100186669.77241
     -2681.164       -2089.213          31.000           4.000
  22424862.117    22424862.1394   22424862.9424  117843464.740 6  91826072.78044
      3027.450        2359.057          44.000          34.000
  22179830.570    22179830.2634   22179832.2854  116555828.935 7  90822737.96544
      1339.680        1043.901          46.000          32.000
  23742996.743    23742996.9674   23742998.1994  124770324.336 5  97223621.67141
     -3263.236       -2542.762          35.000          16.000
  22074952.868    22074952.7684   22074952.6114  116004707.505 7  90393290.62444
     -2223.020       -1732.223          47.000          34.000
  24069539.732                                   126486305.871 4
     -3187.515                          32.000
  20843466.014    20843465.8554   20843466.9934  109533190.727 8  85350560.46746
     -2131.959       -1661.271          51.000          41.000
  22019459.211    22019459.685    22019459.111   117871922.602 5  91678163.712 4
      3549.713        2760.880          39.000          33.000
  41036421.099                                   215647848.668 4
          .000                          30.000
 05 10  2  0  6 30.0000000  0 11G 4G 7G 9G11G17G24G26G28G29G31R21
  23291365.231    23291365.3874   23291367.9294  122396979.184 6  95374266.41542
      3458.405        2694.848          41.000          21.000
  20487815.387    20487814.5574   20487816.0954  107664241.305 8  83894224.25847
      -335.133        -261.141          54.000          45.000
  21577327.613    21577327.7334   21577328.5554  113389637.476 7  88355568.93344
      2384.902        1858.360          46.000          32.000
  24481936.183    24481935.5364   24481936.8754  128653487.303 4 100249485.48541
     -2693.047       -2098.456          31.000           6.000
  22407605.099    22407605.3294   22407605.5154  117752779.681 7  91755409.18744
      3018.205        2351.851          46.000          33.000
  22172233.302    22172232.9504   22172234.8524  116515904.484 7  90791628.02344
      1321.934        1030.084          48.000          32.000
  23761645.776    23761646.1274   23761647.9894  124868325.703 4  97299986.34841
     -3270.185       -2548.187          33.000          14.000
  22087664.728    22087664.8504   22087664.6104  116071508.671 7  90445343.47044
     -2230.400       -1737.970          48.000          34.000
  24087748.175                                   126581992.540 3
     -3191.845                          29.000
  20855676.707    20855676.5794   20855677.7684  109597358.324 8  85400561.19746
     -2145.904       -1672.135          52.000          41.000
  21999594.321    21999596.397    21999595.152   117765587.599 6  91595458.741 4
      3539.184        2752.694          43.000          34.000
 05 10  2  0  7  0.0000000  0 10G 4G 7G 9G11G17G24G26G28G31R21
  23271640.980    23271640.5594   23271642.9764  122293325.973 6  95293497.69242
      3451.767        2689.681          41.000          22.000
  20489768.454    20489767.4614   20489768.8724  107674503.239 8  83902220.57647
      -349.040        -271.975          54.000          45.000
  21563757.295    21563757.2804   21563758.4224  113318325.850 7  88300001.43644
      2369.127        1846.077          47.000          32.000
  24497345.083    24497344.7804   24497342.9884  128734454.702 4 100312577.09441
     -2704.798       -2107.634          30.000           2.000
  22390401.615    22390401.4104   22390401.2614  117662372.394 7  91684961.98444
      3008.931        2344.627          46.000          34.000
  22164737.241    22164737.1444   22164738.8964  116476512.983 7  90760933.36644
      1304.137        1016.216          48.000          33.000
  23780335.368    23780335.5044   23780336.4834  124966535.250 5  97376513.23041
     -3277.027       -2553.511          35.000          15.000
  22100419.146    22100418.7004   22100418.4304  116138530.681 7  90497568.41244
     -2237.777       -1743.719          48.000          34.000
  20867966.856    20867966.7294   20867967.5544  109661942.329 8  85450886.38646
     -2159.708       -1682.895          52.000          41.000
  21979789.013    21979789.931    21979789.904   117659570.245 6  91513000.829 5
      3528.614        2744.458          40.000          36.000
 05 10  2  0  7 30.0000000  0 10G 4G 7G 9G11G17G24G26G28G31R21
  23251954.209    23251955.0164   23251956.5154  122189874.689 6  95212886.35642
      3445.004        2684.418          41.000          22.000
  20491800.177    20491799.6574   20491801.2384  107685182.426 8  83910542.02647
      -362.907        -282.784          54.000          45.000
  21550277.531    21550277.4174   21550278.1184  113247488.257 7  88244803.32344
      2353.335        1833.769          47.000          31.000
  24512815.036                                   128815773.871 4
     -2716.494                          30.000
  22373250.201    22373250.2604   22373251.4594  117572243.944 7  91614731.98144
      2999.622        2337.368          45.000          34.000
  22157343.069    22157343.0034   22157344.8364  116437656.365 7  90730655.49544
      1286.316        1002.322          47.000          33.000
  23799060.868    23799061.3864   23799063.5934  125064949.836 4  97453199.89341
     -3283.906       -2558.880          31.000          10.000
  22113214.372    22113214.1234   22113214.0094  116205773.140 7  90549965.11444
     -2245.078       -1749.408          46.000          34.000
  20880335.454    20880335.5004   20880336.1014  109726940.403 8  85501534.22946
     -2173.466       -1693.608          51.000          41.000
  21960042.514    21960044.899    21960045.568   117553873.912 6  91430792.612 5
      3517.875        2736.125          40.000          35.000
 05 10  2  0  8  0.0000000  0 12G 4G 7G 9G11G17G24G26G28G31R 3R21S22
  23232307.041    23232307.8964   23232309.1944  122086628.372 6  95132434.75842
      3438.099        2679.032          41.000          22.000
  20493911.891    20493911.1174   20493912.5844  107696278.025 8  83919187.94247
      -376.778        -293.591          54.000          45.000
  21536888.309    21536888.0444   21536889.0864  113177127.216 7  88189976.55644
      2337.408        1821.360          47.000          34.000
  24528357.758                                   128897442.047 4
     -2728.057                          30.000
  22356153.104    22356153.0044   22356153.8014  117482395.763 7  91544720.49744
      2990.257        2330.070          45.000          34.000
  22150050.816    22150050.6024   22150052.5594  116399336.192 7  90700795.63044
      1268.400         988.363          46.000          33.000
  23817828.704    23817826.8294   23817830.0064  125163565.927 4  97530043.63141
     -3290.557       -2564.074          33.000          12.000
  22126051.976    22126051.5344   22126051.7714  116273235.592 7  90602533.26144
     -2252.412       -1755.128          48.000          33.000
  20892782.564    20892782.2564   20892782.9984  109792349.923 8  85552502.69546
     -2187.164       -1704.282          51.000          41.000
  23638633.672                                   126849929.251
                                          .000
  21940360.295    21940360.526    21940359.954   117448500.503 6  91348835.625 4
      3506.934        2727.610          42.000          34.000
  41036499.926                                   215648262.950 4
          .000                          31.000
 05 10  2  0  8 30.0000000  0 11G 4G 7G 9G11G17G24G26G28G31R 3R21
  23212699.914    23212699.9034   23212701.3654  121983590.151 6  95052145.26742
      3431.090        2673.573          43.000          24.000
  20496102.256    20496101.4344   20496103.0944  107707788.869 8  83928157.43747
      -390.622        -304.380          53.000          45.000
  21523590.307    21523589.8964   21523591.1014  113107245.160 7  88135523.05744
      2321.363        1808.860          48.000          33.000
  24543961.888                                   128979457.316 3
     -2739.589                          28.000
  22339108.691    22339108.4704   22339109.6564  117392829.792 7  91474928.86544
      2980.784        2322.688          45.000          33.000
  22142861.395    22142861.1754   22142863.0714  116361554.063 7  90671355.03044
      1250.423         974.352          49.000          33.000
  23836632.347    23836632.0164   23836635.9344  125262380.535 4  97607041.96741
     -3297.093       -2569.152          33.000          12.000
  22138931.473    22138931.0524   22138931.6384  116340917.680 7  90655272.53144
     -2259.743       -1760.839          48.000          34.000
  20905307.604    20905307.1654   20905307.6154  109858168.613 8  85603789.98246
     -2200.784       -1714.894          52.000          41.000
  23634084.863    23634085.312    23634084.633   126825536.569 4  98642105.110 4
       801.011         623.015          33.000          31.000
  21920734.660    21920736.607    21920736.000   117343451.722 6  91267131.045 4
      3496.144        2719.223          44.000          34.000
 05 10  2  0  9  0.0000000  0 11G 4G 7G 9G17G24G26G28G31R 3R21S22
  23193133.006    23193132.8384   23193134.2254  121880763.295 6  94972020.51742
      3423.990        2668.047          41.000          24.000
  20498371.602    20498370.7694   20498372.5104  107719714.171 8  83937449.88347
      -404.407        -315.123          54.000          45.000
  21510382.929    21510383.2404   21510384.3374  113037844.745 7  88081444.86344
      2305.285        1796.326          45.000          31.000
  22322118.915    22322118.7644   22322119.7664  117303547.305 6  91405358.13544
      2971.347        2315.337          44.000          33.000
  22135774.262    22135774.2064   22135776.0224  116324311.317 7  90642334.72544
      1232.411         960.322          47.000          33.000
  23855474.457    23855473.3944   23855475.4794  125361390.389 4  97684192.46441
     -3303.518       -2574.164          32.000          11.000
  22151853.162    22151852.4814   22151852.7574  116408818.917 7  90708182.58244
     -2267.006       -1766.498          47.000          34.000
  20917909.832    20917909.6414   20917910.1044  109924394.421 8  85655394.50046
     -2214.292       -1725.423          52.000          41.000
  23629677.554    23629673.260    23629673.145   126801866.012 4  98623694.706 4
       777.037         604.351          30.000          31.000
  21901173.387    21901173.419    21901172.359   117238728.312 6  91185679.524 4
      3485.327        2710.822          43.000          34.000
  41036521.127                                   215648374.461 4
          .000                          32.000
 05 10  2  0  9 30.0000000  0 10G 4G 7G 9G17G24G26G28G31R 3R21
  23173606.241    23173605.9424   23173607.6814  121778150.778 6  94892062.75742
      3416.788        2662.433          42.000          22.000
  20500719.485    20500718.7664   20500720.3584  107732052.801 9  83947064.40547
      -418.164        -325.840          55.000          45.000
  21497269.213    21497268.9124   21497269.6934  112968928.413 6  88027743.84444
      2289.112        1783.726          44.000          31.000
  22305182.575    22305182.9234   22305184.0394  117214548.591 7  91336008.50444
      2961.867        2307.945          45.000          32.000
  22128790.061    22128790.0414   22128791.9694  116287609.783 7  90613736.14744
      1214.338         946.235          47.000          33.000
  23874350.233    23874349.7134   23874351.4714  125460592.217 4  97761492.58541
     -3309.888       -2579.136          31.000           9.000
  22164815.636    22164815.3404   22164815.4724  116476938.834 7  90761263.02344
     -2274.304       -1772.187          49.000          33.000
  20930589.052    20930588.8234   20930589.7444  109991024.962 8  85707314.40646
     -2227.754       -1735.911          53.000          41.000
  23625404.639    23625397.732    23625399.332   126778919.784 4  98605847.556 4
       752.738         585.470          31.000          32.000
  21881670.567    21881671.463    21881670.421   117134332.942 6  91104483.157 5
      3474.423        2702.324          41.000          36.000
 05 10  2  0 10  0.0000000  0 11G 4G 7G 9G11G17G24G26G28G31R 3R21
  23154121.277    23154121.1914   23154122.5014  121675755.883 6  94812274.60942
      3409.510        2656.765          40.000          23.000
  20503145.852    20503145.2084   20503146.8774  107744803.917 8  83957000.34147
      -431.878        -336.529          54.000          45.000
  21484246.885    21484246.9134   21484247.6934  112900498.643 6  87974421.95444
      2272.879        1771.070          44.000          30.000
  24591179.010                                   129227539.686 4
     -2773.688                          34.000
  22288301.955    22288301.6914   22288301.5874  117125836.232 7  91266882.01044
      2952.310        2300.501          46.000          34.000
  22121909.084    22121909.1444   22121911.2454  116251451.107 7  90585560.56144
      1196.239         932.133          47.000          33.000
  23893263.544    23893264.2204   23893265.1884  125559983.058 5  97838939.94141
     -3316.111       -2583.988          35.000          13.000
  22177820.274    22177819.5764   22177819.9494  116545276.788 7  90814513.39844
     -2281.558       -1777.840          49.000          33.000
  20943345.233    20943345.0304   20943345.8284  110058058.118 8  85759548.02046
     -2241.113       -1746.320          52.000          41.000
  23621262.550    23621257.388    23621256.545   126756698.329 4  98588564.336 4
       728.545         566.646          30.000          30.000
  21862229.684    21862231.105    21862230.538   117030266.002 6  91023542.234 5
      3463.343        2693.705          42.000          38.000
 05 10  2  0 10 30.0000000  0 12G 4G 7G 9G11G17G24G26G28G31R 3R21S22
  23134678.290    23134678.0504   23134678.9104  121573581.833 6  94732658.49942
      3402.056        2650.958          42.000          23.000
  20505650.697    20505649.7804   20505651.5844  107757966.443 8  83967256.86347
      -445.618        -347.235          54.000          46.000
  21471318.896    21471318.0694   21471319.5044  112832557.608 7  87921480.87944
      2256.516        1758.314          47.000          32.000
  24607046.255                                   129310918.564 4
     -2784.868                          32.000
  22271474.438    22271474.5014   22271474.9554  117037410.835 7  91197979.11644
      2942.708        2293.016          45.000          34.000
  22115131.858    22115131.9964   22115133.8254  116215836.660 7  90557809.06944
      1178.051         917.961          45.000          33.000
  23912212.469    23912213.6434   23912214.5284  125659559.557 5  97916532.04241
     -3322.292       -2588.813          36.000          14.000
  22190866.124    22190865.5994   22190865.4314  116613832.294 7  90867933.25744
     -2288.808       -1783.488          48.000          33.000
  20956177.418    20956177.0794   20956177.9624  110125491.528 8  85812093.54646
     -2254.427       -1756.695          51.000          41.000
  23617256.476    23617251.542    23617251.291   126735203.831 4  98571846.380 4
       704.432         547.909          32.000          30.000
  21842850.099    21842851.811    21842852.365   116926530.989 6  90942859.512 5
      3452.262        2685.092          42.000          38.000
  41036563.049                                   215648648.896 4
          .000                          30.000
 05 10  2  0 11  0.0000000  0 11G 4G 7G 9G11G17G24G26G28G31R 3R21
  23115277.069    23115277.4064   23115278.7024  121471631.552 6  94653216.77242
      3394.604        2645.144          42.000          23.000
  20508233.645    20508232.7604   20508234.3684  107771539.322 8  83977833.13147
      -459.273        -357.873          54.000          45.000
  21458483.513    21458482.9124   21458484.6954  112765107.908 7  87868922.69444
      2240.091        1745.514          45.000          33.000
  24622976.547                                   129394632.364 3
     -2796.219                          27.000
  22254702.780    22254702.3624   22254704.0024  116949274.158 7  91129301.23045
      2932.998        2285.448          45.000          35.000
  22108458.832    22108458.5714   22108460.5704  116180767.923 7  90530482.79844
      1159.839         903.775          46.000          33.000
  23931196.491    23931196.7904   23931197.9994  125759318.404 5  97994266.08141
     -3328.304       -2593.460          37.000          14.000
  22203952.575    22203952.2934   22203952.5354  116682604.985 7  90921522.33744
     -2296.031       -1789.113          46.000          33.000
  20969085.399    20969085.0824   20969085.8284  110193323.062 8  85864949.26946
     -2267.676       -1767.020          52.000          41.000
  23613384.733    23613382.683    23613380.905   126714436.408 4  98555693.952 3
       680.140         529.002          32.000          29.000
  21823535.045    21823535.591    21823536.119   116823128.976 6  90862435.734 5
      3441.063        2676.370          43.000          37.000
 05 10  2  0 11 30.0000000  0 12G 4G 7G 9G11G17G24G26G28G31R 3R21S22
  23095920.002    23095920.2264   23095921.7154  121369908.437 6  94573952.04742
      3386.960        2639.198          42.000          23.000
  20510894.351    20510893.5784   20510895.0474  107785521.646 8  83988728.46047
      -472.877        -368.472          54.000          45.000
  21445742.004    21445741.7044   21445743.2224  112698151.982 7  87816749.26944
      2223.610        1732.664          45.000          33.000
  24638968.344                                   129478678.670 3
     -2806.939                          29.000
  22237986.430    22237986.0884   22237987.3084  116861427.685 7  91060849.46845
      2923.388        2277.966          45.000          35.000
  22101889.703    22101889.3124   22101891.4134  116146246.447 7  90503582.95544
      1141.619         889.572          47.000          33.000
  23950213.845    23950214.1324   23950215.3314  125859256.632 5  98072139.99241
     -3334.180       -2598.047          37.000          14.000
  22217080.860    22217080.5184   22217080.6354  116751594.317 7  90975280.27044
     -2303.273       -1794.757          46.000          33.000
  20982068.427    20982068.4404   20982069.1704  110261550.428 8  85918113.45046
     -2280.812       -1777.257          50.000          40.000
  23609649.256    23609647.739    23609647.022   126694398.497 3  98540108.858 4
       655.722         510.014          29.000          31.000
  21804281.331    21804281.686    21804281.677   116720061.183 6  90782271.934 5
      3429.928        2667.732          43.000          36.000
  41036590.428                                   215648807.755 4
          .000                          31.000
 05 10  2  0 12  0.0000000  0 11G 4G 7G 9G11G17G24G26G28G31R 3R21
  23076606.562    23076606.7724   23076608.3264  121268415.484 6  94494866.66443
      3379.236        2633.170          44.000          25.000
  20513632.700    20513631.9284   20513633.4864  107799912.343 8  83999941.99147
      -486.503        -379.094          53.000          45.000
  21433094.873    21433094.7684   21433096.2024  112631692.349 7  87764962.55144
      2207.008        1719.753          46.000          34.000
  24655027.007                                   129563055.146 4
     -2817.982                          30.000
  22221324.824    22221324.9964   22221325.6784  116773872.394 7  90992624.59545
      2913.616        2270.344          46.000          35.000
  22095424.833    22095424.3974   22095426.3034  116112273.713 7  90477110.72144
      1123.231         875.238          47.000          33.000
  23969265.685    23969265.3214   23969266.3604  125959370.924 5  98150151.06941
     -3340.071       -2602.660          38.000          14.000
  22230250.535    22230249.9294   22230250.0934  116820799.787 7  91029206.60844
     -2310.467       -1800.361          47.000          33.000
  20995126.606    20995126.4094   20995127.4044  110330171.249 8  85971584.22446
     -2293.906       -1787.468          51.000          40.000
  23606053.318    23606050.255    23606050.156   126675091.083 4  98525091.973 4
       631.348         491.052          30.000          33.000
  21785088.874    21785090.510    21785090.926   116617329.754 6  90702369.764 5
      3418.702        2658.982          44.000          37.000
 05 10  2  0 12 30.0000000  0 10G 4G 7G 9G17G24G26G28G31R 3R21
  23057336.732    23057337.8084   23057339.3304  121167155.731 6  94415963.00742
      3371.410        2627.069          41.000          24.000
  20516448.685    20516447.9984   20516449.5064  107814710.314 8  84011472.87947
      -500.060        -389.656          54.000          45.000
  21420543.084    21420542.7714   21420544.3474  112565731.283 7  87713564.34444
      2190.374        1706.784          47.000          34.000
  22204719.707    22204719.6054   22204719.6964  116686609.928 7  90924627.88344
      2903.870        2262.753          45.000          34.000
  22089064.680    22089064.5354   22089066.3824  116078851.349 7  90451067.34344
      1104.865         860.935          47.000          33.000
  23988349.485    23988348.5574   23988350.5174  126059657.916 5  98228296.80041
     -3345.781       -2607.066          38.000          13.000
  22243460.527    22243460.2194   22243460.3224  116890220.692 7  91083300.80444
     -2317.607       -1805.929          46.000          32.000
  21008259.498    21008259.0874   21008259.9304  110399183.435 8  86025359.95446
     -2306.904       -1797.593          53.000          41.000
  23602588.257    23602589.239    23602588.387   126656515.736 4  98510644.536 4
       606.990         472.108          30.000          33.000
  21765962.521    21765962.688    21765961.856   116514935.355 6  90622729.665 5
      3407.461        2650.237          44.000          36.000
 05 10  2  0 13  0.0000000  0 12G 4G 7G 9G11G17G24G26G28G31R 3R21S22
  23038113.979    23038113.0334   23038115.1044  121066132.635 6  94337243.80942
      3363.427        2620.839          42.000          24.000
  20519341.690    20519341.1524   20519342.7094  107829914.693 8  84023320.44647
      -513.590        -400.198          54.000          45.000
  21408086.601    21408086.3334   21408088.0424  112500271.251 7  87662556.54145
      2173.609        1693.720          46.000          35.000
  24687325.426                                   129732782.717 4
     -2839.531                          31.000
  22188169.843    22188169.9764   22188169.8694  116599640.818 7  90856859.75944
      2894.010        2255.071          46.000          34.000
  22082809.733    22082809.4394   22082811.3374  116045980.881 7  90425453.98844
      1086.451         846.589          48.000          34.000
  24007465.938    24007465.6524   24007466.3854  126160114.673 5  98306574.74441
     -3351.336       -2611.413          37.000          14.000
  22256712.205    22256711.8364   22256711.8064  116959857.261 7  91137563.06744
     -2324.838       -1811.564          48.000          33.000
  21021465.899    21021465.6704   21021466.5494  110468584.602 8  86079438.78546
     -2319.843       -1807.672          52.000          40.000
  23599263.955    23599264.161    23599263.816   126638673.603 4  98496767.295 4
       582.498         453.054          32.000          34.000
  21746895.866    21746897.365    21746897.405   116412880.562 7  90543353.797 5
      3396.178        2641.465          45.000          36.000
  41036642.751                                   215649043.600 4
          .000                          32.000
 05 10  2  0 13 30.0000000  0 11G 4G 7G 9G11G17G24G26G28G31R 3R21
  23018935.053    23018934.8524   23018936.1654  120965349.427 6  94258711.48543
      3355.432        2614.623          43.000          25.000
  20522312.488    20522311.6074   20522313.3364  107845524.431 8  84035483.88847
      -527.056        -410.693          54.000          45.000
  21395726.256    21395725.7254   21395727.1024  112435314.829 7  87611941.15945
      2156.798        1680.623          48.000          37.000
  24703564.678                                   129818135.091 3
     -2850.397                          27.000
  22171675.488    22171676.0834   22171676.7804  116512967.395 6  90789322.05944
      2884.176        2247.412          44.000          33.000
  22076659.855    22076659.6704   22076661.6094  116013663.511 7  90400271.64244
      1068.009         832.219          47.000          34.000
  24026613.802    24026613.5234   24026614.9964  126260737.946 5  98384982.47241
     -3356.833       -2615.719          35.000          12.000
  22270004.161    22270004.0314   22270004.1514  117029708.712 7  91191992.74144
     -2331.955       -1817.109          47.000          32.000
  21034745.783    21034745.8564   21034746.6314  110538372.378 8  86133818.85545
     -2332.673       -1817.665          51.000          39.000
  23596078.416    23596076.043    23596074.792   126621564.842 4  98483460.489 4
       557.946         433.959          32.000          32.000
  21727895.643    21727896.982    21727897.205   116311167.021 7  90464243.350 5
      3384.692        2632.530          45.000          38.000
 05 10  2  0 14  0.0000000  0 11G 4G 7G 9G11G17G24G26G28G31R 3R21
  22999802.723    22999802.6344   22999803.5504  120864808.807 6  94180368.17242
      3347.269        2608.266          43.000          24.000
  20525359.757    20525359.0154   20525360.6414  107861538.303 8  84047962.22947
      -540.520        -421.185          53.000          45.000
  21383461.423    21383461.0674   21383462.3244  112370864.037 7  87561719.79745
      2139.908        1667.460          48.000          36.000
  24719869.041                                   129903807.770 4
     -2861.012                          31.000
  22155238.872    22155239.0164   22155239.6274  116426590.494 6  90722015.37444
      2874.267        2239.688          44.000          34.000
  22070614.957    22070615.4284   22070616.5864  115981900.482 7  90375521.23444
      1049.512         817.802          48.000          33.000
  24045793.272    24045792.8554   24045793.8774  126361524.317 4  98463517.26441
     -3362.232       -2619.905          34.000          10.000
  22283337.970    22283337.2824   22283337.3174  117099774.140 7  91246589.19644
     -2339.061       -1822.645          48.000          33.000
  21048098.774    21048098.9904   21048100.0624  110608544.409 7  86188498.35846
     -2345.450       -1827.625          48.000          40.000
  23593025.608    23593024.797    23593021.352   126605191.193 4  98470725.543 3
       533.548         414.979          31.000          29.000
  21708959.345    21708959.546    21708959.833   116209795.886 6  90385399.114 5
      3373.268        2623.646          44.000          36.000
 05 10  2  0 14 30.0000000  0 12G 4G 7G 9G11G17G24G26G28G29G31R 3R21
  22980716.860    22980716.9174   22980717.7014  120764514.169 6  94102216.53042
      3339.020        2601.824          41.000          22.000
  20528483.704    20528483.1004   20528484.8174  107877955.527 8  84060754.87147
      -553.944        -431.648          54.000          45.000
  21371293.541    21371293.3504   21371294.7184  112306921.762 8  87511894.63345
      2122.900        1654.210          50.000          37.000
  24736233.183                                   129989798.491 4
     -2871.633                          30.000
  22138858.704    22138858.5844   22138859.6364  116340511.359 7  90654940.75844
      2864.317        2231.934          45.000          34.000
  22064677.071    22064676.7914   22064678.4974  115950693.745 7  90351204.32344
      1030.916         803.308          46.000          34.000
  24065001.195    24065002.5664   24065004.3384  126462470.957 4  98542176.92041
     -3367.560       -2624.065          33.000          12.000
  22296711.372    22296711.0724   22296711.2144  117170053.748 7  91301352.50544
     -2346.237       -1828.231          47.000          32.000
  24381843.474                                   128127491.751 4
     -3243.540                          32.000
  21061525.432    21061525.0624   21061526.2244  110679098.721 8  86243475.75346
     -2358.157       -1837.521          52.000          40.000
  23590112.488    23590110.805    23590108.331   126589554.722 4  98458563.804 3
       508.902         395.806          34.000          29.000
  21690085.836    21690087.789    21690086.507   116108769.874 7  90306823.368 5
      3361.702        2614.651          45.000          36.000
 05 10  2  0 15  0.0000000  0 13G 4G 7G 9G11G17G24G26G28G29G31R 3R21
                                S22
  22961679.241    22961678.5504   22961679.8834  120664468.750 6  94024259.16642
      3330.660        2595.328          42.000          22.000
  20531684.376    20531683.6544   20531685.2484  107894774.718 8  84073860.74347
      -567.333        -442.077          54.000          45.000
  21359222.700    21359222.6734   21359224.0164  112243490.034 7  87462467.32745
      2105.878        1640.939          48.000          36.000
  24752657.096                                   130076105.069 4
     -2882.074                          31.000
  22122535.555    22122535.1354   22122536.1144  116254731.275 7  90588099.17245
      2854.294        2224.118          46.000          36.000
  22058844.512    22058844.4394   22058846.4574  115920044.325 7  90327321.67144
      1012.348         788.843          48.000          34.000
  24084243.327    24084240.9874   24084243.6894  126563574.460 4  98620958.91041
     -3372.736       -2628.126          31.000           9.000
  22310125.076    22310124.7544   22310124.7124  117240546.401 7  91356281.84844
     -2353.290       -1833.732          47.000          31.000
  24400363.738                                   128224835.919 4
     -3246.077                          31.000
  21075023.613    21075023.4474   21075024.2784  110750032.799 8  86298749.05845
     -2370.778       -1847.359          51.000          39.000
  23587329.281    23587333.730    23587332.992   126574654.552 4  98446974.825 4
       484.323         376.700          32.000          32.000
  21671277.558    21671278.913    21671279.244   116008089.615 6  90228516.559 5
      3350.198        2605.701          44.000          38.000
  41036706.706                                   215649349.465 4
          .000                          32.000
 05 10  2  0 15 30.0000000  0 12G 4G 7G 9G11G17G24G26G28G29G31R21S22
  22942688.962    22942689.0304   22942689.4644  120564675.551 6  93946498.24842
      3322.215        2588.745          43.000          22.000
  20534961.479    20534960.6794   20534962.1664  107911995.056 9  84087279.18847
      -580.693        -452.488          55.000          45.000
  21347249.639    21347249.3904   21347250.8234  112180571.182 7  87413439.68245
      2088.706        1627.563          48.000          36.000
  24769139.210                                   130162724.800 4
     -2892.562                          32.000
  22106269.338    22106269.3704   22106270.3754  116169252.309 7  90521492.17745
      2844.258        2216.304          46.000          35.000
  22053118.427    22053117.8574   22053119.8714  115889953.540 7  90303874.31144
       993.680         774.294          47.000          33.000
  24103510.264    24103509.3424   24103512.0214  126664831.712 3  98699860.51641
     -3377.828       -2632.081          29.000           8.000
  22323579.940    22323579.4894   22323580.0484  117311251.940 7  91411377.05444
     -2360.410       -1839.277          45.000          32.000
  24418905.834                                   128322250.619 3
     -3248.269                          28.000
  21088593.692    21088593.4914   21088594.2604  110821344.391 8  86354316.52045
     -2383.330       -1857.144          51.000          39.000
  21652534.663    21652536.232    21652535.989   115907756.846 6  90150479.971 5
      3338.594        2596.688          44.000          36.000
  41036714.708                                   215649463.755 4
          .000                          31.000
 05 10  2  0 16  0.0000000  0 10G 4G 7G 9G11G17G24G26G28G31R21
  22923747.274    22923747.5744   22923748.3664  120465137.678 6  93868936.33042
      3313.656        2582.064          42.000          23.000
  20538314.467    20538313.7174   20538315.1364  107929615.271 8  84101009.23047
      -593.985        -462.847          53.000          45.000
  21335374.673    21335374.5894   21335375.5564  112118167.621 7  87364813.52245
      2071.500        1614.157          49.000          37.000
  24785683.678                                   130249655.132 4
     -2902.784                          32.000
  22090060.743    22090060.1514   22090061.5184  116084074.630 7  90455119.98845
      2834.220        2208.481          46.000          36.000
  22047498.754    22047498.6124   22047500.8044  115860422.684 7  90280863.28144
       975.008         759.743          48.000          34.000
  24122808.657    24122807.5924   24122808.7054  126766239.319 4  98778879.52441
     -3382.689       -2635.850          32.000           9.000
  22337075.939    22337075.0944   22337075.2154  117382169.854 7  91466637.76644
     -2367.466       -1844.778          47.000          32.000
  21102235.285    21102235.0754   21102236.0204  110893031.345 8  86410176.47345
     -2395.800       -1866.861          51.000          39.000
  21633856.716    21633857.920    21633857.802   115807773.148 6  90072714.932 5
      3326.899        2587.582          44.000          37.000
 05 10  2  0 16 30.0000000  0 11G 4G 7G 9G11G17G24G26G28G31R21S22
  22904854.966    22904855.0944   22904856.4334  120365858.207 6  93791575.76543
      3304.926        2575.270          43.000          26.000
  20541743.262    20541742.6004   20541743.9494  107947634.356 8  84115050.07947
      -607.284        -473.211          54.000          45.000
  21323598.187    21323598.1404   21323598.9984  112056281.609 7  87316590.65845
      2054.225        1600.694          49.000          37.000
  24802284.425                                   130336893.768 4
     -2913.109                          31.000
  22073909.733    22073909.8624   22073910.6064  115999200.031 7  90388983.94645
      2824.089        2200.587          46.000          36.000
  22041986.458    22041986.1324   22041987.8224  115831453.130 7  90258289.62844
       956.278         745.150          47.000          34.000
  24142130.928    24142132.9404   24142135.0224  126867794.525 4  98858013.33441
     -3387.696       -2639.800          32.000          10.000
  22350611.102    22350611.0664   22350611.2504  117453299.436 7  91522063.40644
     -2374.521       -1850.270          47.000          32.000
  21115947.615    21115947.5274   21115948.4014  110965091.361 8  86466327.13345
     -2408.201       -1876.522          51.000          39.000
  21615244.811    21615245.678    21615246.056   115708139.796 6  89995222.341 5
      3315.246        2578.519          44.000          38.000
  41036755.290                                   215649640.636 4
          .000                          31.000
 05 10  2  0 17  0.0000000  0  9G 4G 7G 9G11G17G24G28G31R21
  22886012.327    22886012.7784   22886014.6064  120266840.566 6  93714419.19643
      3296.209        2568.473          44.000          26.000
  20545247.937    20545247.2334   20545248.8014  107966051.263 8  84129400.92647
      -620.513        -483.517          54.000          45.000
  21311920.483    21311920.3014   21311921.6234  111994915.698 8  87268773.08645
      2036.848        1587.155          50.000          37.000
  24818940.744                                   130424438.445 3
     -2923.306                          29.000
  22057816.536    22057816.5604   22057816.9744  115914629.829 7  90323085.11045
      2813.924        2192.667          46.000          36.000
  22036580.535    22036580.1214   22036582.0764  115803046.125 7  90236154.31144
       937.519         730.536          48.000          34.000
  22364186.464    22364186.3504   22364187.1514  117524640.850 7  91577654.10444
     -2381.570       -1855.768          47.000          32.000
  21129730.855    21129730.7294   21129731.5494  111037522.113 8  86522766.67645
     -2420.499       -1886.101          51.000          39.000
  21596698.221    21596699.471    21596699.647   115608859.717 7  89918004.531 5
      3303.410        2569.320          45.000          38.000
 05 10  2  0 17 30.0000000  0  8G 4G 7G 9G17G24G28G31R21
  22867220.268    22867220.7204   22867222.8904  120168087.661 6  93637468.97143
      3287.282        2561.514          41.000          26.000
  20548827.856    20548827.3774   20548828.8434  107984864.817 8  84144060.83547
      -633.729        -493.817          54.000          45.000
  21300342.648    21300342.2634   21300343.3144  111934071.876 7  87221362.30345
      2019.392        1573.551          49.000          37.000
  22041780.664    22041781.0974   22041782.1514  115830365.394 7  90257424.54245
      2803.738        2184.728          46.000          35.000
  22031282.222    22031281.7244   22031283.7004  115775202.480 7  90214457.98044
       918.718         715.883          47.000          34.000
  22377802.150    22377802.2564   22377802.6024  117596192.869 7  91633408.90344
     -2388.569       -1861.217          47.000          32.000
  21143584.059    21143583.9844   21143584.8704  111110321.304 8  86579493.31845
     -2432.760       -1895.654          51.000          39.000
  21578218.435    21578219.557    21578218.797   115509933.436 7  89841061.920 5
      3291.685        2560.202          45.000          37.000
 05 10  2  0 18  0.0000000  0  8G 4G 7G 9G17G24G28G31R21
  22848479.933    22848479.7684   22848481.3044  120069602.581 7  93560727.41143
      3278.320        2554.542          45.000          26.000
  20552483.247    20552482.5114   20552484.1354  108004073.851 9  84159028.91047
      -646.886        -504.071          55.000          45.000
  21288864.289    21288864.0274   21288865.2124  111873752.526 7  87174360.21145
      2001.872        1559.900          49.000          37.000
  22025804.288    22025804.5724   22025805.7854  115746407.521 7  90192002.85045
      2793.436        2176.700          46.000          36.000
  22026091.250    22026090.9934   22026092.4284  115747923.795 7  90193201.88844
       899.849         701.176          48.000          34.000
  22391459.075    22391458.4144   22391458.8824  117667955.093 7  91689327.52644
     -2395.566       -1866.678          48.000          32.000
  21157506.941    21157506.9164   21157507.6484  111183486.465 8  86636505.12446
     -2444.921       -1905.135          52.000          40.000
  21559803.613    21559805.685    21559805.181   115411361.994 6  89764395.315 5
      3279.739        2550.901          44.000          36.000
 05 10  2  0 18 30.0000000  0  9G 4G 7G 9G17G24G28G31R21S22
  22829790.206    22829790.4084   22829791.6684  119971388.598 6  93484197.07943
      3269.263        2547.478          44.000          25.000
  20556213.798    20556212.9304   20556214.6684  108023677.419 8  84174304.42847
      -660.005        -514.291          53.000          45.000
  21277485.778    21277485.5924   21277486.7314  111813960.113 7  87127768.74745
      1984.300        1546.209          48.000          35.000
  22009886.258    22009886.8494   22009887.8264  115662757.951 7  90126821.38845
      2783.190        2168.719          46.000          37.000
  22021007.876    22021007.5474   22021009.6554  115721211.275 7  90172386.94945
       880.999         686.484          46.000          35.000
  22405154.876    22405154.4614   22405154.6174  117739927.117 7  91745409.60944
     -2402.545       -1872.113          48.000          32.000
  21171499.484    21171499.1494   21171500.1014  111257015.636 8  86693800.58345
     -2456.986       -1914.533          51.000          39.000
  21541457.081    21541457.889    21541457.325   115313147.652 7  89688006.395 5
      3267.899        2541.698          45.000          36.000
  41036811.871                                   215649971.617 4
          .000                          32.000
 05 10  2  0 19  0.0000000  0  9G 4G 7G 9G17G24G28G31R21S22
  22811152.656    22811152.9564   22811154.5214  119873448.768 7  93407880.38543
      3260.017        2540.271          46.000          28.000
  20560019.091    20560018.3524   20560019.9624  108043674.364 8  84189886.46047
      -673.097        -524.488          54.000          45.000
  21266208.461    21266208.1084   21266209.2174  111754696.884 7  87081589.63145
      1966.594        1532.409          47.000          36.000
  21994027.099    21994027.2324   21994028.3504  115579417.409 7  90061880.70945
      2772.855        2160.667          46.000          36.000
  22016032.519    22016032.0914   22016034.6614  115695066.018 7  90152014.02544
       862.072         671.742          47.000          34.000
  22418889.815    22418889.8074   22418890.6084  117812108.741 7  91801655.00044
     -2409.508       -1877.529          46.000          31.000
  21185560.182    21185560.2174   21185560.9784  111330906.348 8  86751377.75545
     -2469.009       -1923.912          51.000          39.000
  21523177.538    21523177.989    21523177.312   115215292.645 7  89611896.985 5
      3255.885        2532.347          45.000          37.000
  41036818.707                                   215650004.387 4
          .000                          30.000
 05 10  2  0 19 30.0000000  0  8G 4G 7G 9G17G24G28G31R21
  22792568.337    22792568.1114   22792569.4864  119775786.238 6  93331779.74543
      3250.773        2533.068          44.000          25.000
  20563898.985    20563898.3134   20563899.8734  108064063.586 9  84205774.16647
      -686.162        -534.671          55.000          45.000
  21255032.194    21255031.8264   21255033.2334  111695965.070 7  87035824.61245
      1948.843        1518.579          48.000          36.000
  21978227.400    21978227.2414   21978228.3254  115496387.856 7  89997182.36945
      2762.475        2152.579          45.000          36.000
  22011165.373    22011165.1494   22011167.4374  115669489.397 7  90132084.21445
       843.057         656.931          48.000          35.000
  22432666.128    22432665.4734   22432665.5064  117884499.518 7  91858063.40444
     -2416.511       -1882.995          48.000          31.000
  21199689.638    21199689.5384   21199690.4154  111405156.434 8  86809234.95746
     -2480.968       -1933.219          51.000          40.000
  21504963.763    21504965.229    21504964.459   115117796.361 6  89536066.604 5
      3243.720        2522.896          44.000          37.000
 05 10  2  0 20  0.0000000  0  9G 4G 7G 9G17G24G28G31R21S22
  22774037.354    22774037.2304   22774038.2954  119678404.197 7  93255897.66343
      3241.368        2525.753          45.000          26.000
  20567853.474    20567852.7234   20567853.9054  108084843.902 8  84221966.62947
      -699.184        -544.817          53.000          45.000
  21243956.888    21243956.6794   21243958.3464  111637766.785 7  86990475.29845
      1931.036        1504.708          47.000          35.000
  21962486.775    21962486.8544   21962487.9834  115413669.797 7  89932726.75545
      2752.085        2144.479          47.000          37.000
  22006407.066    22006406.6864   22006408.3114  115644482.281 7  90112598.16945
       824.091         642.149          48.000          35.000
  22446481.084    22446480.7684   22446480.9874  117957098.617 7  91914634.12544
     -2423.426       -1888.383          46.000          31.000
  21213886.979    21213886.6904   21213887.6744  111479763.599 8  86867370.41545
     -2492.814       -1942.450          50.000          39.000
  21486817.676    21486819.032    21486818.283   115020662.199 7  89460517.790 5
      3231.971        2513.753          46.000          36.000
  41036860.276                                   215650208.803 4
          .000                          31.000
 05 10  2  0 20 30.0000000  0  8G 4G 7G 9G17G24G28G31R21
  22755558.395    22755559.5694   22755560.9024  119581305.586 6  93180236.42943
      3231.875        2518.344          42.000          26.000
  20571881.918    20571881.2924   20571882.8104  108106014.053 9  84238462.85247
      -712.149        -554.918          55.000          45.000
  21232984.761    21232984.2604   21232985.6414  111580104.164 7  86945543.39545
      1913.145        1490.757          49.000          36.000
  21946805.350    21946805.4274   21946806.6804  115331264.531 7  89868514.90845
      2741.607        2136.324          45.000          36.000
  22001756.553    22001756.2294   22001758.3654  115620045.810 7  90093556.77845
       805.029         627.295          48.000          35.000
  22460335.031    22460334.9714   22460335.7944  118029905.518 7  91971366.73944
     -2430.364       -1893.792          47.000          30.000
  21228151.361    21228151.3664   21228152.1524  111554725.482 8  86925782.27145
     -2504.617       -1951.650          51.000          39.000
  21468740.239    21468741.707    21468740.874   114923890.423 7  89385250.907 5
      3219.610        2504.138          45.000          38.000
 05 10  2  0 21  0.0000000  0  8G 4G 7G 9G17G24G28G31R21
  22737136.350    22737136.5334   22737138.1054  119484493.557 6  93104798.58743
      3222.245        2510.833          42.000          27.000
  20575984.325    20575983.8424   20575985.4254  108127572.964 8  84255262.00947
      -725.111        -565.023          53.000          45.000
  21222114.459    21222114.1914   21222115.2664  111522979.592 8  86901030.72345
      1895.155        1476.746          50.000          37.000
  21931183.715    21931183.7664   21931184.9984  115249173.194 7  89804547.65045
      2731.087        2128.120          48.000          36.000
  21997215.214    21997214.9924   21997217.0394  115596180.698 7  90074960.59045
       785.943         612.417          49.000          35.000
  22474229.584    22474229.4434   22474229.5654  118102919.670 7  92028260.89244
     -2437.271       -1899.176          45.000          31.000
  21242483.426    21242483.0414   21242484.1984  111630039.769 7  86984468.73345
     -2516.316       -1960.767          49.000          39.000
  21450730.941    21450731.497    21450731.628   114827483.444 7  89310267.709 5
      3207.518        2494.722          46.000          37.000
 05 10  2  0 21 30.0000000  0  9G 4G 7G 9G17G24G28G31R21S22
  22718769.211    22718768.9594   22718771.2174  119387971.366 6  93029586.55343
      3212.563        2503.287          44.000          28.000
  20580160.384    20580159.9444   20580161.6204  108149519.542 8  84272363.23747
      -737.982        -575.049          54.000          45.000
  21211346.229    21211346.4524   21211347.6994  111466395.286 7  86856939.07445
      1877.115        1462.688          49.000          36.000
  21915623.018    21915622.5704   21915623.1714  115167397.498 7  89740826.34445
      2720.609        2119.957          47.000          36.000
  21992782.653    21992782.6474   21992784.3384  115572888.416 7  90056810.77244
       766.850         597.548          49.000          34.000
  22488163.051    22488162.9374   22488163.2024  118176140.893 7  92085316.37244
     -2444.156       -1904.535          45.000          30.000
  21256881.942    21256881.4314   21256882.9244  111705703.930 8  87043427.81345
     -2527.928       -1969.814          51.000          39.000
  21432788.822    21432790.783    21432790.476   114731442.491 7  89235569.210 5
      3195.265        2485.210          45.000          39.000
  41036892.615                                   215650388.513 4
          .000                          31.000
 05 10  2  0 22  0.0000000  0  9G 4G 7G 9G17G24G28G31R21S22
  22700457.290    22700457.4494   22700459.1364  119291742.169 6  92954602.77043
      3202.758        2495.666          44.000          26.000
  20584410.605    20584409.8134   20584411.5794  108171852.646 8  84289765.66647
      -750.870        -585.093          54.000          45.000
  21200682.130    21200681.9394   21200683.0344  111410353.555 7  86813270.19945
      1858.982        1448.550          49.000          37.000
  21900121.125    21900121.2564   21900122.1294  115085938.714 7  89677351.99645
      2709.990        2111.679          47.000          37.000
  21988459.366    21988459.0834   21988461.2904  115550169.963 7  90039108.09644
       747.698         582.626          47.000          34.000
  22502136.173    22502135.9234   22502136.2134  118249568.660 7  92142532.81344
     -2451.069       -1909.924          45.000          31.000
  21271346.619    21271346.3554   21271347.0704  111781715.858 8  87102657.89445
     -2539.525       -1978.846          51.000          38.000
  21414916.824    21414918.043    21414916.854   114635769.363 7  89161156.825 5
      3182.905        2475.583          46.000          37.000
  41036916.780                                   215650453.714 4
          .000                          31.000
 05 10  2  0 22 30.0000000  0  8G 4G 7G 9G17G24G28G31R21
  22682202.296    22682201.5684   22682202.9574  119195808.783 6  92879849.55443
      3192.856        2487.933          43.000          27.000
  20588733.894    20588733.0554   20588734.5034  108194570.980 8  84307468.26447
      -763.696        -595.088          53.000          45.000
  21190121.309    21190121.1884   21190122.3374  111354856.390 7  86770025.67445
      1840.820        1434.417          49.000          37.000
  21884680.543    21884680.8054   21884681.7544  115004797.802 7  89614125.34045
      2699.388        2103.419          46.000          36.000
  21984245.846    21984245.3404   21984247.4224  115528026.286 7  90021853.29545
       728.532         567.683          48.000          35.000
  22516147.752    22516147.8184   22516148.1314  118323202.244 7  92199909.62244
     -2457.858       -1915.212          46.000          31.000
  21285877.136    21285876.8014   21285877.1154  111858073.297 8  87162157.19245
     -2550.981       -1987.778          51.000          39.000
  21397112.535    21397114.272    21397112.782   114540464.589 7  89087030.943 5
      3170.785        2466.168          45.000          38.000
 05 10  2  0 23  0.0000000  0  8G 4G 7G 9G17G24G28G31R21
  22664003.290    22664003.3624   22664004.6684  119100174.687 6  92805329.52243
      3182.819        2480.119          44.000          28.000
  20593129.843    20593129.1004   20593130.7214  108217673.476 8  84325470.21147
      -776.465        -605.038          54.000          45.000
  21179664.876    21179664.4524   21179665.4634  111299905.829 7  86727207.09345
      1822.560        1420.179          49.000          38.000
  21869301.030    21869300.7804   21869301.8374  114923975.737 7  89551147.12745
      2688.744        2095.126          49.000          38.000
  21980141.733    21980141.0814   21980143.1684  115506458.549 7  90005047.27844
       709.331         552.721          48.000          34.000
  22530199.326    22530198.6484   22530199.2204  118397040.992 7  92257446.31044
     -2464.681       -1920.538          46.000          30.000
  21300472.191    21300472.2224   21300472.7474  111934773.848 8  87221923.84545
     -2562.347       -1996.632          51.000          38.000
  21379378.774    21379380.144    21379379.491   114445530.683 7  89013193.499 5
      3158.474        2456.590          45.000          39.000
 05 10  2  0 23 30.0000000  0  8G 4G 7G 9G17G24G28G31R21
  22645862.184    22645862.4814   22645863.3674  119004842.579 6  92731044.76343
      3172.652        2472.198          43.000          27.000
  20597599.067    20597598.3014   20597599.7994  108241158.965 8  84343770.58947
      -789.230        -614.985          54.000          45.000
  21169312.036    21169312.1664   21169313.3084  111245504.328 7  86684816.31945
      1804.215        1405.877          49.000          37.000
  21853981.820    21853982.0884   21853982.5134  114843473.567 7  89488418.17745
      2678.057        2086.803          47.000          36.000
  21976147.383    21976146.8064   21976149.0374  115485467.641 7  89988690.74745
       690.081         537.728          49.000          35.000
  22544288.765    22544288.7134   22544289.7164  118471084.979 7  92315142.92144
     -2471.529       -1925.863          46.000          30.000
  21315133.066    21315132.7064   21315133.4644  112011815.337 8  87281956.17445
     -2573.711       -2005.498          51.000          39.000
  21361713.957    21361713.962    21361714.354   114350968.311 7  88939644.989 5
      3145.741        2446.697          45.000          38.000
 05 10  2  0 24  0.0000000  0  8G 4G 7G 9G17G24G28G31R21
  22627779.357    22627779.2784   22627780.4414  118909815.804 6  92656998.00543
      3162.396        2464.199          44.000          27.000
  20602141.021    20602140.2194   20602141.6284  108265026.297 8  84362368.51547
      -801.940        -624.886          53.000          45.000
  21159064.523    21159064.5474   21159065.8654  111191653.865 7  86642854.94845
      1785.804        1391.533          48.000          38.000
  21838723.840    21838723.7424   21838724.0934  114763292.834 7  89425939.72845
      2667.297        2078.410          46.000          36.000
  21972262.932    21972262.5254   21972264.5244  115465054.397 7  89972784.32945
       670.785         522.692          48.000          35.000
  22558418.338    22558417.6814   22558417.8544  118545333.415 7  92372998.83044
     -2478.363       -1931.194          47.000          30.000
  21329857.945    21329857.6854   21329858.4214  112089195.660 8  87342252.52745
     -2584.960       -2014.253          51.000          39.000
  21344118.354    21344119.631    21344118.523   114256778.946 7  88866386.652 5
      3133.376        2437.065          47.000          38.000
 05 10  2  0 24 30.0000000  0  8G 4G 7G 9G17G24G28G31R21
  22609754.565    22609754.8944   22609756.1074  118815097.381 7  92583191.45943
      3152.103        2456.180          45.000          28.000
  20606755.145    20606754.4764   20606755.9254  108289274.146 8  84381262.95447
      -814.562        -634.726          54.000          45.000
  21148922.643    21148922.3774   21148923.9164  111138356.589 7  86601324.60045
      1767.327        1377.132          48.000          37.000
  21823527.790    21823527.2234   21823527.6274  114683434.526 7  89363712.48545
      2656.564        2070.046          48.000          37.000
  21968488.473    21968488.2804   21968489.4674  115445219.614 7  89957328.65845
       651.512         507.672          47.000          35.000
  22572586.444    22572585.9384   22572586.0054  118619786.023 7  92431013.84044
     -2485.144       -1936.474          46.000          30.000
  21344646.926    21344646.6834   21344647.5924  112166912.423 8  87402811.04945
     -2596.141       -2022.975          50.000          37.000
  21326592.177    21326593.573    21326593.382   114162964.748 7  88793420.039 5
      3120.995        2427.447          46.000          37.000
 05 10  2  0 25  0.0000000  0  8G 4G 7G 9G17G24G28G31R21
  22591789.256    22591789.8184   22591790.7224  118720690.292 6  92509627.50643
      3141.687        2448.064          44.000          27.000
  20611441.525    20611440.8154   20611442.4874  108313901.427 8  84400453.04347
      -827.235        -644.598          54.000          45.000
  21138885.792    21138885.9774   21138887.1234  111085614.326 7  86560226.71845
      1748.804        1362.703          48.000          37.000
  21808392.249    21808392.4834   21808392.9904  114603899.935 7  89301737.48345
      2645.743        2061.615          47.000          38.000
  21964823.818    21964823.8384   21964825.7474  115425964.150 7  89942324.41245
       632.186         492.616          48.000          35.000
  22586792.826    22586792.4824   22586792.7294  118694441.774 7  92489187.11944
     -2491.908       -1941.745          45.000          30.000
  21359499.276    21359499.1114   21359500.2774  112244963.134 8  87463629.78145
     -2607.232       -2031.604          51.000          38.000
  21309137.083    21309138.232    21309138.084   114069525.404 7  88720745.009 5
      3108.473        2417.700          46.000          38.000
 05 10  2  0 25 30.0000000  0  9G 4G 7G 9G17G24G28G31R21S22
  22573883.882    22573883.9174   22573885.7574  118626597.801 6  92436308.72443
      3131.175        2439.870          43.000          26.000
  20616199.831    20616199.1984   20616200.7764  108338906.949 8  84419937.86647
      -839.801        -654.388          54.000          45.000
  21128955.520    21128955.4134   21128956.3504  111033429.312 7  86519563.06745
      1730.185        1348.196          49.000          38.000
  21793319.290    21793319.4184   21793320.0404  114524689.954 7  89240015.44145
      2634.932        2053.191          48.000          38.000
  21961270.281    21961269.9544   21961271.8074  115407288.990 7  89927772.37745
       612.826         477.523          49.000          35.000
  22601037.440    22601037.1664   22601037.7284  118769300.307 7  92547518.45643
     -2498.663       -1947.013          45.000          29.000
  21374415.260    21374414.8814   21374415.7184  112323345.627 8  87524707.04845
     -2618.248       -2040.194          51.000          38.000
  21291753.114    21291753.518    21291753.179   113976464.175 7  88648364.122 5
      3095.722        2407.781          46.000          38.000
  41037021.327                                   215651038.946 4
          .000                          31.000
 05 10  2  0 26  0.0000000  0  9G 4G 7G 9G17G24G28G31R21S22
  22556039.812    22556039.0384   22556041.1114  118532822.680 6  92363237.30043
      3120.447        2431.515          43.000          27.000
  20621030.028    20621029.2554   20621030.9124  108364289.358 8  84439716.37247
      -852.337        -664.156          54.000          45.000
  21119131.687    21119131.4394   21119132.5474  110981803.480 8  86479335.16745
      1711.509        1333.638          50.000          39.000
  21778307.654    21778307.9614   21778309.1974  114445805.531 7  89178547.09545
      2624.031        2044.699          48.000          37.000
  21957827.311    21957826.8184   21957828.4034  115389194.804 7  89913673.00845
       593.437         462.415          49.000          35.000
  22615321.864    22615320.8694   22615321.1824  118844361.212 7  92606007.46344
     -2505.406       -1952.264          46.000          30.000
  21389393.524    21389393.1954   21389394.1524  112402057.605 8  87586041.04345
     -2629.206       -2048.730          51.000          38.000
  21274438.285    21274439.576    21274439.603   113883781.530 7  88576277.640 5
      3083.162        2398.015          46.000          39.000
  41037023.813                                   215651123.357 4
          .000                          32.000
 05 10  2  0 26 30.0000000  0  9G 4G 7G 9G17G24G28G31R21S22
  22538255.451    22538255.7274   22538257.2894  118439368.394 6  92290415.80143
      3109.770        2423.189          43.000          27.000
  20625931.831    20625930.9884   20625932.5624  108390047.751 8  84459787.85347
      -864.857        -673.914          53.000          45.000
  21109414.278    21109414.2114   21109415.1684  110930739.271 8  86439544.89845
      1692.761        1319.035          50.000          39.000
  21763358.732    21763359.0094   21763359.8084  114367248.410 7  89117333.77645
      2613.129        2036.203          47.000          38.000
  21954494.362    21954494.1374   21954496.3294  115371682.609 7  89900027.16245
       574.031         447.294          48.000          35.000
  22629643.949    22629643.8054   22629643.4904  118919624.319 7  92664654.01944
     -2512.119       -1957.490          45.000          30.000
  21404434.245    21404433.9454   21404434.8164  112481097.159 7  87647630.31145
     -2640.085       -2057.216          48.000          37.000
  21257196.015    21257197.419    21257196.648   113791478.823 7  88504486.679 5
      3070.327        2388.030          46.000          38.000
  41037044.102                                   215651204.230 4
          .000                          31.000
 05 10  2  0 27  0.0000000  0  9G 4G 7G 9G17G24G28G31R21S22
  22520533.602    22520533.3684   22520534.6994  118346237.752 6  92217846.46543
      3098.960        2414.772          44.000          27.000
  20630904.523    20630903.8964   20630905.2974  108416180.552 8  84480151.07547
      -877.284        -683.595          54.000          45.000
  21099804.372    21099804.2464   21099805.1594  110880238.379 8  86400193.56345
      1673.959        1304.383          51.000          39.000
  21748472.203    21748472.7184   21748473.7964  114289019.229 7  89056375.96445
      2602.167        2027.665          47.000          38.000
  21951272.668    21951272.5324   21951274.3654  115354752.927 7  89886835.20945
       554.604         432.157          48.000          35.000
  22644003.439    22644003.6174   22644003.7084  118995088.442 7  92723457.22743
     -2518.818       -1962.714          45.000          29.000
  21419536.924    21419536.7524   21419537.2934  112560461.616 7  87709472.73745
     -2650.857       -2065.604          49.000          37.000
  21240024.655    21240025.067    21240024.586   113699557.520 7  88432992.341 5
      3057.643        2378.166          47.000          38.000
  41037068.437                                   215651324.570 4
          .000                          31.000
 05 10  2  0 27 30.0000000  0  8G 4G 7G 9G17G24G28G31R21
  22502873.390    22502873.2834   22502874.9034  118253433.909 6  92145531.84443
      3087.973        2406.210          44.000          28.000
  20635948.380    20635947.7944   20635949.5714  108442686.762 8  84500805.27346
      -889.739        -693.303          54.000          44.000
  21090302.185    21090301.9974   21090302.7894  110830302.962 8  86361282.87945
      1655.078        1289.675          50.000          39.000
  21733648.118    21733648.4394   21733649.6684  114211119.549 7  88995674.93245
      2591.163        2019.090          47.000          37.000
  21948162.577    21948162.0574   21948163.7464  115338406.692 7  89874097.91245
       535.162         417.007          48.000          35.000
  22658402.161    22658402.0274   22658401.7144  119070753.558 7  92782417.02943
     -2525.485       -1967.908          45.000          28.000
  21434700.547    21434700.7544   21434701.0254  112640148.722 7  87771566.57345
     -2661.591       -2073.965          49.000          37.000
  21222924.622    21222925.577    21222925.083   113608019.457 7  88361796.091 5
      3044.945        2368.279          47.000          39.000
 05 10  2  0 28  0.0000000  0  9G 4G 7G 9G17G24G28G31R 4R21
  22485275.960    22485275.9644   22485277.4504  118160959.936 7  92073474.24443
      3076.927        2397.607          45.000          28.000
  20641063.337    20641062.5264   20641064.1504  108469565.259 8  84521749.55747
      -902.147        -702.970          53.000          45.000
  21080907.781    21080907.4714   21080908.7144  110780935.147 7  86322814.46545
      1636.103        1274.885          49.000          39.000
  21718887.114    21718887.3124   21718888.3174  114133550.064 7  88935231.20045
      2580.146        2010.504          47.000          37.000
  21945162.809    21945162.5174   21945164.5254  115322644.880 7  89861815.98145
       515.638         401.794          49.000          35.000
  22672839.074    22672838.4334   22672838.3884  119146619.017 6  92841532.96243
     -2532.205       -1973.146          44.000          29.000
  21449925.797    21449925.5964   21449925.9654  112720156.213 7  87833910.08645
     -2672.241       -2082.265          48.000          37.000
  23748085.669                                   127169961.371 5
      2755.957                          35.000
  21205895.078    21205896.976    21205896.784   113516865.264 7  88290898.455 5
      3031.943        2358.173          45.000          38.000
 05 10  2  0 28 30.0000000  0 10G 4G 5G 7G 9G17G24G28G31R 4R21
  22467742.554    22467742.3144   22467744.0054  118068818.827 7  92001676.02743
      3065.787        2388.926          45.000          29.000
  24217142.269                                   127261943.652 4
      3304.263                          32.000
  20646248.545    20646248.0354   20646249.3954  108496814.618 8  84542982.82147
      -914.495        -712.594          53.000          45.000
  21071621.270    21071621.2094   21071623.0774  110732136.718 7  86284789.76045
      1617.091        1260.067          49.000          38.000
  21704189.847    21704189.7174   21704190.4874  114056311.802 7  88875045.59145
      2569.060        2001.858          49.000          38.000
  21942274.902    21942274.5474   21942276.8284  115307467.945 7  89849989.81745
       496.137         386.598          49.000          35.000
  22687313.724    22687313.0794   22687313.5274  119222684.303 7  92900804.59343
     -2538.848       -1978.317          45.000          28.000
  21465210.979    21465210.9134   21465211.6754  112800481.910 7  87896501.52245
     -2682.812       -2090.501          48.000          37.000
  23732693.513    23732693.128    23732693.381   127087530.686 4  98845863.664
      2739.296        2130.580          32.000
  21188939.235    21188940.381    21188939.598   113426097.025 7  88220300.925 5
      3019.122        2348.205          47.000          38.000
 05 10  2  0 29  0.0000000  0 10G 4G 5G 7G 9G17G24G28G31R 4R21
  22450272.421    22450272.5104   22450273.7544  117977013.631 7  91930139.55444
      3054.538        2380.157          45.000          30.000
  24198283.213                                   127162841.192 4
      3302.339                          30.000
  20651504.449    20651503.7614   20651505.1034  108524433.493 8  84564504.03147
      -926.780        -722.166          54.000          45.000
  21062443.931    21062443.7274   21062445.6714  110683909.690 8  86247210.25645
      1598.029        1245.216          50.000          39.000
  21689555.449    21689555.2884   21689555.6604  113979406.257 7  88815119.22245
      2557.973        1993.225          49.000          38.000
  21939498.357    21939497.7304   21939499.6484  115292876.480 7  89838619.85945
       476.618         371.384          48.000          35.000
  22701826.995    22701826.4484   22701826.8274  119298948.923 7  92960231.56844
     -2545.462       -1983.491          45.000          30.000
  21480556.474    21480556.1734   21480557.3564  112881123.431 7  87959339.07145
     -2693.300       -2098.675          49.000          37.000
  23717391.012    23717395.378    23717393.948   127005599.339 4  98782139.332 2
      2722.694        2117.650          33.000          20.000
  21172054.637    21172055.946    21172055.751   113335714.748 7  88150003.631 5
      3006.267        2338.201          46.000          39.000
 05 10  2  0 29 30.0000000  0 10G 4G 5G 7G 9G17G24G28G31R 4R21
  22432867.285    22432867.1514   22432868.3654  117885547.242 7  91858867.07943
      3043.155        2371.282          45.000          29.000
  24179434.540                                   127063794.999 3
      3300.562                          29.000
  20656830.017    20656829.6594   20656831.2204  108552420.916 8  84586312.41047
      -939.053        -731.729          54.000          45.000
  21053375.925    21053375.6884   21053377.3534  110636256.103 8  86210077.59545
      1578.855        1230.278          50.000          39.000
  21674983.706    21674983.9174   21674984.1654  113902834.479 7  88755452.91445
      2546.824        1984.536          48.000          38.000
  21936832.785    21936832.5374   21936834.6594  115278871.365 7  89827706.78645
       457.043         356.140          47.000          35.000
  22716376.809    22716376.4914   22716377.1194  119375412.203 7  93019813.32643
     -2552.109       -1988.656          45.000          29.000
  21495962.110    21495961.4094   21495962.5834  112962078.545 8  88022420.96045
     -2703.706       -2106.786          50.000          36.000
  23702189.181    23702190.074    23702185.820   126924172.335 5  98718807.262 2
      2705.780        2104.511          37.000          22.000
  21155243.203    21155244.559    21155244.456   113245720.957 7  88080008.454 5
      2993.221        2328.060          45.000          39.000
 05 10  2  0 30  0.0000000  0  9G 4G 7G 9G17G24G28G31R 4R21
  22415526.437    22415526.4584   22415528.1724  117794422.936 6  91787861.15643
      3031.756        2362.411          43.000          29.000
  20662225.965    20662225.2284   20662226.8634  108580775.589 8  84608406.97046
      -951.243        -741.228          53.000          44.000
  21044417.685    21044417.3044   21044418.3794  110589177.825 8  86173393.20945
      1559.671        1215.323          51.000          39.000
  21660475.940    21660476.3254   21660477.3584  113826597.430 7  88696047.46645
      2535.661        1975.835          47.000          38.000
  21934279.826    21934279.1334   21934281.0334  115265453.049 7  89817250.97145
       437.498         340.908          48.000          35.000
  22730965.589    22730965.3194   22730966.0404  119452073.803 7  93079549.64344
     -2558.681       -1993.775          46.000          30.000
  21511426.614    21511426.0424   21511426.9934  113043344.982 7  88085745.46045
     -2714.024       -2114.828          49.000          36.000
  23687075.134    23687079.747    23687079.251   126843252.964 4  98655870.011 3
      2688.740        2091.240          34.000          26.000
  21138505.041    21138506.284    21138504.839   113156116.523 7  88010316.146 5
      2980.291        2318.006          46.000          38.000
 05 10  2  0 30 30.0000000  0  9G 4G 7G 9G17G24G28G31R 4R21
  22398252.187    22398251.8684   22398253.1684  117703643.689 7  91717124.11844
      3020.161        2353.369          46.000          30.000
  20667691.620    20667690.7374   20667692.1414  108609496.190 8  84630786.65947
      -963.446        -750.739          54.000          45.000
  21035568.732    21035568.5314   21035569.2684  110542676.748 8  86137158.58945
      1540.394        1200.307          50.000          39.000
  21646033.109    21646033.0844   21646033.7194  113750695.860 7  88636903.43245
      2524.447        1967.102          49.000          39.000
  21931837.907    21931837.8754   21931839.4584  115252622.274 7  89807252.98145
       417.898         325.635          49.000          35.000
  22745591.138    22745590.9164   22745591.2784  119528933.207 6  93139440.07243
     -2565.263       -1998.903          44.000          28.000
  21526950.051    21526949.4784   21526950.1014  113124920.607 8  88149310.87445
     -2724.312       -2122.841          50.000          36.000
  23672063.525    23672063.458    23672060.851   126762845.460 5  98593330.837 3
      2671.627        2077.918          35.000          26.000
  21121839.090    21121840.530    21121839.374   113066902.228 7  87940927.294 5
      2967.345        2307.928          47.000          38.000
 05 10  2  0 31  0.0000000  0  9G 4G 7G 9G17G24G28G31R 4R21
  22381043.311    22381043.2494   22381044.8734  117613212.296 7  91646658.14744
      3008.559        2344.326          46.000          30.000
  20673226.099    20673225.5734   20673227.0474  108638581.388 8  84653450.45047
      -975.557        -760.174          54.000          45.000
  21026829.504    21026829.6684   21026831.0774  110496754.603 7  86101375.13245
      1521.064        1185.241          49.000          38.000
  21631653.227    21631653.6524   21631653.9434  113675130.849 7  88578021.63745
      2513.234        1958.361          47.000          39.000
  21929508.294    21929507.9504   21929509.8554  115240379.451 7  89797713.13545
       398.285         310.354          48.000          35.000
  22760254.680    22760254.2754   22760254.1384  119605989.978 7  93199484.30443
     -2571.841       -2004.040          46.000          28.000
  21542531.815    21542531.4654   21542531.6894  113206802.922 7  88213115.27645
     -2734.491       -2130.770          48.000          36.000
  23657142.212    23657143.105    23657144.421   126682953.948 4  98531193.132 2
      2654.439        2064.551          34.000          24.000
  21105245.619    21105247.164    21105246.317   112978079.141 7  87871842.704 5
      2954.295        2297.783          46.000          39.000
 05 10  2  0 31 30.0000000  0  9G 4G 7G 9G17G24G28G31R 4R21
  22363901.064    22363901.4254   22363903.0764  117523131.955 6  91576465.71044
      2996.789        2335.155          44.000          30.000
  20678830.133    20678829.2624   20678830.9494  108668029.974 8  84676397.41347
      -987.655        -769.599          53.000          45.000
  21018201.939    21018201.4604   21018202.3094  110451413.687 8  86066044.56345
      1501.644        1170.110          51.000          38.000
  21617337.710    21617337.5894   21617338.7674  113599903.325 7  88519402.82945
      2501.945        1949.568          48.000          39.000
  21927290.212    21927290.2044   21927292.5834  115228725.373 7  89788632.03445
       378.660         295.054          49.000          36.000
  22774954.740    22774954.5204   22774955.6684  119683243.284 6  93259681.67343
     -2578.367       -2009.112          44.000          29.000
  21558170.639    21558170.8884   21558171.6444  113288989.814 7  88277157.00845
     -2744.619       -2138.666          48.000          36.000
  23642316.819    23642320.561    23642321.682   126603582.704 4  98469459.980 3
      2636.929        2050.938          30.000          25.000
  21088726.988    21088727.411    21088727.302   112889649.595 7  87803064.173 5
      2941.149        2287.560          47.000          39.000
 05 10  2  0 32  0.0000000  0 10G 4G 5G 7G 9G17G24G28G31R 4R21
  22346827.098    22346826.7904   22346828.8424  117433405.762 7  91506549.27843
      2984.944        2325.931          45.000          29.000
  24085364.910                                   126569466.454 4
      3290.515                          32.000
  20684502.682    20684502.0674   20684503.6544  108697840.880 8  84699626.68846
      -999.721        -779.005          53.000          44.000
  21009684.741    21009684.5164   21009685.0814  110406655.633 8  86031168.17245
      1482.201        1154.962          51.000          38.000
  21603086.898    21603087.4464   21603087.9014  113525015.270 7  88461048.52645
      2490.616        1940.747          48.000          39.000
  21925185.065    21925184.6754   21925186.5364  115217660.441 7  89780010.02745
       358.999         279.740          49.000          35.000
  22789693.428    22789692.9884   22789693.5644  119760692.811 6  93320031.93043
     -2584.941       -2014.243          43.000          28.000
  21573868.504    21573868.0764   21573868.4104  113371479.168 7  88341434.41845
     -2754.663       -2146.488          48.000          36.000
  23627596.859    23627592.594    23627595.936   126524736.137 4  98408134.836 2
      2619.406        2037.327          31.000          23.000
  21072280.259    21072281.767    21072281.119   112801614.385 7  87734592.383 5
      2927.920        2277.261          47.000          39.000
 05 10  2  0 32 30.0000000  0  9G 4G 7G 9G17G24G28G31R 4R21
  22329820.830    22329820.5264   22329821.3154  117344036.528 7  91436910.89843
      2972.948        2316.576          45.000          29.000
  20690244.334    20690243.4504   20690245.1794  108728012.662 8  84723137.17946
     -1011.753        -788.378          53.000          44.000
  21001278.002    21001278.1764   21001279.0414  110362482.340 7  85996747.42445
      1462.679        1139.752          48.000          37.000
  21588901.228    21588901.1484   21588901.5114  113450466.883 7  88402958.90445
      2479.236        1931.873          48.000          39.000
  21923191.786    21923191.3864   21923192.9144  115207185.302 7  89771847.60445
       339.335         264.418          49.000          35.000
  22804469.065    22804468.6034   22804468.9484  119838338.024 7  93380534.68343
     -2591.439       -2019.299          46.000          28.000
  21589622.659    21589622.4104   21589622.7384  113454268.778 7  88405945.80745
     -2764.634       -2154.258          49.000          36.000
  23612965.215    23612970.485    23612969.538   126446417.388 4  98347220.490 2
      2601.784        2023.615          32.000          22.000
  21055908.737    21055910.389    21055910.019   112713974.978 7  87666428.410 6
      2914.736        2267.017          47.000          40.000
 05 10  2  0 33  0.0000000  0  9G 4G 7G 9G17G24G28G31R 4R21
  22312882.221    22312882.7244   22312884.1134  117255027.379 6  91367553.14244
      2960.895        2307.193          44.000          30.000
  20696054.305    20696053.6704   20696055.0174  108758544.134 8  84746927.93347
     -1023.720        -797.703          54.000          45.000
  20992983.997    20992983.5994   20992984.9484  110318895.381 8  85962783.59545
      1443.078        1124.471          51.000          39.000
  21574779.553    21574779.7334   21574780.3714  113376259.664 7  88345135.11345
      2467.843        1922.995          48.000          39.000
  21921311.062    21921310.6144   21921312.1174  115197300.437 7  89764145.10545
       319.640         249.067          49.000          36.000
  22819281.352    22819281.0844   22819281.5034  119916178.337 7  93441189.46843
     -2597.950       -2024.377          45.000          28.000
  21605433.875    21605433.6944   21605433.6044  113537356.238 8  88470689.27445
     -2774.533       -2161.980          50.000          36.000
  23598444.825    23598446.820    23598445.447   126368631.589 5  98286720.223 2
      2583.883        2009.692          36.000          22.000
  21039611.778    21039612.271    21039612.169   112626732.453 7  87598573.128 5
      2901.447        2256.686          48.000          39.000
 05 10  2  0 33 30.0000000  0  9G 4G 7G 9G17G24G28G31R 4R21
  22296013.573    22296013.4614   22296015.3544  117166380.954 7  91298478.06344
      2948.779        2297.751          45.000          30.000
  20701932.336    20701931.7144   20701933.1084  108789433.819 8  84770997.82447
     -1035.624        -806.983          53.000          45.000
  20984802.165    20984801.6714   20984802.7954  110275896.659 8  85929278.09946
      1423.454        1109.185          52.000          41.000
  21560723.663    21560723.4624   21560724.4404  113302394.098 7  88287577.56845
      2456.453        1914.118          47.000          39.000
  21919542.120    21919542.0264   21919543.5014  115188005.955 7  89756902.65845
       299.965         233.738          49.000          36.000
  22834130.930    22834131.0564   22834130.9854  119994213.167 6  93501995.83243
     -2604.398       -2029.398          44.000          28.000
  21621300.989    21621300.8524   21621301.3524  113620739.114 7  88535662.92345
     -2784.333       -2169.612          48.000          36.000
  23584017.830    23584020.618    23584019.557   126291382.030 5  98226637.293 2
      2565.956        1995.756          35.000          24.000
  21023388.021    21023388.715    21023388.669   112539887.281 7  87531026.909 5
      2888.238        2246.410          47.000          39.000
 05 10  2  0 34  0.0000000  0  9G 4G 7G 9G17G24G28G31R 4R21
  22279214.545    22279214.3874   22279215.9174  117078100.464 7  91229688.10144
      2936.581        2288.252          45.000          31.000
  20707878.659    20707877.8294   20707879.2034  108820680.709 8  84795346.05946
     -1047.486        -816.221          54.000          44.000
  20976731.876    20976731.7084   20976732.6964  110233487.987 8  85896232.39146
      1403.785        1093.865          51.000          41.000
  21546732.441    21546732.5154   21546733.6684  113228871.643 7  88230287.37445
      2445.029        1905.219          48.000          39.000
  21917885.413    21917885.5144   21917887.4084  115179302.773 7  89750120.97345
       280.254         218.382          49.000          35.000
  22849017.196    22849017.4434   22849017.6674  120072442.156 6  93562953.47043
     -2610.849       -2034.432          42.000          28.000
  21637223.548    21637223.7704   21637224.9084  113704415.233 7  88600865.10245
     -2794.062       -2177.191          47.000          36.000
  23569693.059    23569694.463    23569694.927   126214672.855 5  98166974.654 2
      2547.991        1981.764          39.000          23.000
  21007238.708    21007240.170    21007239.511   112453441.502 7  87463791.356 5
      2874.934        2236.061          47.000          39.000
 05 10  2  0 34 30.0000000  0  9G 4G 7G 9G17G24G28G31R 4R21
  22262485.491    22262485.3034   22262487.2894  116990189.195 7  91161185.87843
      2924.182        2278.582          45.000          29.000
  20713892.415    20713891.6264   20713893.0464  108852283.472 8  84819971.59747
     -1059.337        -825.458          53.000          45.000
  20968774.405    20968774.2754   20968775.2094  110191671.254 8  85863647.92246
      1384.002        1078.443          51.000          40.000
  21532806.721    21532807.1254   21532808.0894  113155692.951 7  88173265.03745
      2433.554        1896.274          47.000          39.000
  21916341.963    21916342.0654   21916343.7854  115171191.269 7  89743800.32845
       260.514         202.997          48.000          35.000
  22863940.223    22863940.3614   22863941.6304  120150864.656 6  93624061.90043
     -2617.289       -2039.438          44.000          28.000
  21653202.846    21653202.1024   21653203.7034  113788382.401 7  88666294.07245
     -2803.742       -2184.737          49.000          36.000
  23555472.008    23555471.875    23555470.265   126138508.385 5  98107735.633 2
      2529.676        1967.530          35.000          24.000
  20991164.796    20991166.289    20991165.981   112367395.577 7  87396866.758 6
      2861.556        2225.654          47.000          40.000
 05 10  2  0 35  0.0000000  0 10G 4G 7G 9G17G24G28G31R 4R21S22
  22245827.652    22245827.1044   22245828.5864  116902649.609 7  91092973.24844
      2911.727        2268.880          46.000          31.000
  20719973.457    20719972.8494   20719974.1834  108884240.718 8  84844873.34546
     -1071.143        -834.657          53.000          44.000
  20960929.845    20960929.7344   20960930.5604  110150448.028 8  85831525.92146
      1364.188        1063.003          50.000          40.000
  21518947.439    21518947.5644   21518948.3104  113082858.813 7  88116511.17445
      2422.040        1887.306          49.000          39.000
  21914911.218    21914910.7344   21914912.9434  115163671.317 7  89737940.63645
       240.801         187.635          49.000          36.000
  22878901.145    22878900.2324   22878901.5044  120229480.263 6  93685320.79443
     -2623.716       -2044.442          44.000          27.000
  21669235.689    21669235.6844   21669236.4234  113872638.488 7  88731948.14845
     -2813.333       -2192.209          49.000          35.000
  23541351.776    23541352.918    23541350.325   126062891.981 5  98048922.918 3
      2511.374        1953.297          37.000          26.000
  20975164.950    20975166.651    20975166.043   112281751.671 7  87330254.835 6
      2847.979        2215.094          47.000          40.000
  41037296.143                                   215652482.087 4
          .000                          31.000
 05 10  2  0 35 30.0000000  0 10G 4G 7G 9G17G24G28G31R 4R21S22
  22229240.384    22229240.4264   22229241.3714  116815484.939 7  91025052.74044
      2899.222        2259.135          45.000          30.000
  20726121.727    20726121.0824   20726122.8544  108916551.198 8  84870050.34646
     -1082.909        -843.827          53.000          44.000
  20953198.100    20953198.2754   20953199.4974  110109820.066 8  85799867.77145
      1344.302        1047.506          50.000          39.000
  21505153.195    21505153.1794   21505154.1854  113010371.158 7  88060027.30145
      2410.479        1878.296          48.000          39.000
  21913592.891    21913592.5624   21913594.6034  115156743.829 8  89732542.61745
       221.043         172.234          50.000          35.000
  22893897.566    22893896.8084   22893897.6644  120308288.312 6  93746729.66143
     -2630.140       -2049.459          43.000          27.000
  21685323.412    21685323.5374   21685324.0664  113957181.271 7  88797825.64545
     -2822.855       -2199.627          48.000          35.000
  23527333.594    23527333.588    23527334.237   125987827.619 4  97990539.509 3
      2492.959        1938.952          34.000          28.000
  20959241.310    20959242.676    20959243.343   112196510.639 7  87263956.257 6
      2834.619        2204.700          46.000          41.000
  41037317.648                                   215652613.591 4
          .000                          32.000
 05 10  2  0 36  0.0000000  0 10G 4G 7G 9G17G24G28G31R 4R21S22
  22212725.391    22212725.1544   22212726.3734  116728698.122 7  90957426.68044
      2886.556        2249.258          46.000          31.000
  20732337.316    20732336.4384   20732338.4224  108949213.725 8  84895501.67146
     -1094.637        -852.964          53.000          44.000
  20945580.707    20945580.5474   20945581.8254  110069789.175 8  85768674.87246
      1324.382        1031.978          50.000          40.000
  21491424.829    21491425.0944   21491426.2254  112938229.977 7  88003813.43145
      2398.903        1869.273          47.000          39.000
  21912387.163    21912386.8414   21912388.8654  115150408.860 7  89727606.28045
       201.260         156.826          49.000          35.000
  22908931.260    22908930.3954   22908930.6724  120387288.130 6  93808287.94943
     -2636.523       -2054.431          44.000          27.000
  21701465.899    21701465.6604   21701466.1174  114042008.468 7  88863924.75945
     -2832.297       -2206.986          47.000          35.000
  23513420.289    23513417.865    23513419.614   125913319.576 5  97932588.923 3
      2474.266        1924.439          36.000          28.000
  20943394.017    20943395.014    20943394.408   112111672.665 7  87197971.231 6
      2821.082        2194.172          48.000          40.000
  41037337.127                                   215652662.915 4
          .000                          31.000
 05 10  2  0 36 30.0000000  0 10G 4G 7G 9G17G24G28G31R 4R21S22
  22196283.121    22196283.1354   22196283.9724  116642292.022 7  90890097.27044
      2873.870        2239.385          46.000          31.000
  20738619.722    20738618.7794   20738620.4674  108982226.960 8  84921226.26546
     -1106.272        -862.031          54.000          44.000
  20938077.078    20938076.7984   20938078.0334  110030357.048 8  85737948.56846
      1304.418        1016.427          51.000          40.000
  21477763.780    21477763.3474   21477764.4094  112866436.910 7  87947870.80746
      2387.323        1860.252          49.000          40.000
  21911294.522    21911294.2954   21911296.2024  115144666.843 7  89723131.99645
       181.516         141.437          49.000          36.000
  22924000.060    22923999.9054   22923999.9964  120466479.373 7  93869995.38243
     -2642.892       -2059.393          45.000          27.000
  21717661.831    21717661.5314   21717662.6344  114127117.805 7  88930243.70345
     -2841.640       -2214.261          49.000          36.000
  23499607.688    23499611.290    23499609.094   125839371.642 5  97875073.904 3
      2455.522        1909.852          36.000          28.000
  20927620.721    20927621.586    20927621.742   112027239.556 7  87132301.067 5
      2807.764        2183.817          47.000          39.000
  41037353.644                                   215652749.052 4
          .000                          31.000
 05 10  2  0 37  0.0000000  0  9G 4G 7G 9G17G24G28G31R 4R21
  22179913.214    22179913.1834   22179914.6624  116556269.413 7  90823066.70844
      2861.002        2229.349          46.000          32.000
  20744968.241    20744967.7434   20744969.1204  109015589.498 8  84947223.04746
     -1117.883        -871.078          53.000          44.000
  20930688.240    20930687.7164   20930688.6584  109991525.274 8  85707690.04046
      1284.368        1000.807          52.000          40.000
  21464168.325    21464168.1574   21464168.8554  112794992.235 7  87892199.65445
      2375.677        1851.172          48.000          39.000
  21910315.015    21910314.5424   21910316.3124  115139518.037 7  89719119.95445
       161.741         126.034          49.000          36.000
  22939106.594    22939106.1534   22939106.2024  120545861.441 6  93931851.52243
     -2649.260       -2064.349          44.000          27.000
  21733910.416    21733910.4574   21733911.4894  114212506.988 7  88996780.74445
     -2850.938       -2221.512          48.000          35.000
  23485905.183    23485906.466    23485905.105   125765987.386 5  97817997.298 3
      2436.673        1895.186          35.000          28.000
  20911923.428    20911925.014    20911924.598   111943212.261 7  87066946.501 5
      2794.155        2173.235          48.000          39.000
 05 10  2  0 37 30.0000000  0  9G 4G 7G 9G17G24G28G31R 4R21
  22163617.652    22163617.3064   22163618.7114  116470633.353 7  90756337.33544
      2848.029        2219.239          47.000          32.000
  20751382.981    20751382.4954   20751384.0634  109049300.061 8  84973491.02446
     -1129.487        -880.121          53.000          44.000
  20923413.386    20923413.0894   20923413.8934  109953295.674 8  85677900.74546
      1264.263         985.140          51.000          40.000
  21450639.314    21450639.3994   21450639.9494  112723897.193 7  87836800.94146
      2363.987        1842.067          49.000          40.000
  21909447.343    21909447.5214   21909449.5384  115134962.429 7  89715570.13645
       141.948         110.613          49.000          35.000
  22954248.345    22954247.9954   22954248.2544  120625433.769 6  93993855.92043
     -2655.577       -2069.284          44.000          26.000
  21750212.039    21750212.2294   21750213.4134  114298173.947 7  89063534.19545
     -2860.156       -2228.691          47.000          35.000
  23472308.462    23472307.965    23472307.396   125693171.080 5  97761362.353 3
      2417.719        1880.454          38.000          27.000
  20896302.701    20896304.228    20896303.894   111859592.580 7  87001909.016 6
      2780.595        2162.674          48.000          40.000
 05 10  2  0 38  0.0000000  0  9G 4G 7G 9G17G24G28G31R 4R21
  22147395.254    22147395.2064   22147396.6784  116385386.790 6  90689911.49144
      2835.039        2209.114          44.000          31.000
  20757864.085    20757863.4394   20757864.9264  109083357.466 8  85000029.26246
     -1141.018        -889.106          53.000          44.000
  20916252.369    20916252.7514   20916253.8304  109915669.913 7  85648581.97845
      1244.116         969.445          49.000          39.000
  21437176.943    21437177.2944   21437177.6474  112653153.001 7  87781675.59545
      2352.281        1832.949          48.000          39.000
  21908694.482    21908693.8474   21908695.6414  115131000.612 7  89712483.02745
       122.166          95.195          49.000          36.000
  22969426.286    22969426.0824   22969426.4644  120705195.686 6  94056008.04943
     -2661.902       -2074.201          42.000          26.000
  21766566.838    21766566.3974   21766567.4804  114384116.390 7  89130502.33944
     -2869.308       -2235.822          48.000          34.000
  23458815.995    23458817.564    23458817.634   125620926.809 5  97705172.343 2
      2398.550        1865.529          37.000          23.000
  20880758.019    20880759.484    20880758.750   111776380.122 7  86937188.265 6
      2766.937        2152.067          48.000          40.000
 05 10  2  0 38 30.0000000  0  9G 4G 7G 9G17G24G28G31R 4R21
  22131248.170    22131247.9444   22131249.3304  116300532.589 7  90623791.36644
      2821.877        2198.859          46.000          31.000
  20764410.992    20764410.0644   20764411.6434  109117760.329 8  85026836.69146
     -1152.500        -898.053          53.000          44.000
  20909208.036    20909207.8274   20909208.9854  109878649.420 8  85619734.84246
      1223.897         953.685          50.000          40.000
  21423781.807    21423781.8284   21423782.3214  112582760.593 7  87726824.38746
      2340.550        1823.800          49.000          40.000
  21908053.060    21908052.6884   21908054.9904  115127632.720 7  89709858.69045
       102.359          79.761          47.000          35.000
  22984640.757    22984640.2164   22984640.8794  120785146.765 6  94118307.58843
     -2668.190       -2079.105          43.000          27.000
  21782973.238    21782972.9364   21782974.0184  114470331.919 7  89197683.25545
     -2878.392       -2242.904          47.000          35.000
  23445430.744    23445435.994    23445433.452   125549258.002 4  97649430.020 2
      2379.343        1850.619          34.000          24.000
  20865290.088    20865291.185    20865290.112   111693577.530 7  86872786.236 5
      2753.291        2141.456          49.000          38.000
 05 10  2  0 39  0.0000000  0  8G 4G 7G 9G17G24G28G31R21
  22115176.116    22115176.1324   22115176.9074  116216073.714 7  90557979.27544
      2808.650        2188.559          47.000          31.000
  20771023.052    20771022.2274   20771023.8004  109152507.355 8  85053912.29646
     -1163.977        -906.994          53.000          44.000
  20902279.068    20902278.6904   20902279.8414  109842235.827 8  85591360.62146
      1203.640         937.902          52.000          40.000
  21410453.236    21410453.6454   21410454.1894  112512720.305 7  87672247.56446
      2328.787        1814.641          48.000          40.000
  21907525.676    21907525.2804   21907526.9824  115124858.910 8  89707697.28345
        82.546          64.322          50.000          36.000
  22999890.748    22999890.6044   22999890.9604  120865286.559 6  94180754.14643
     -2674.487       -2084.010          44.000          26.000
  21799430.691    21799430.3784   21799431.7604  114556818.527 7  89265075.40944
     -2887.403       -2249.928          47.000          34.000
  20849898.160    20849899.631    20849899.270   111611184.670 7  86808702.950 6
      2739.621        2130.810          49.000          40.000
 05 10  2  0 39 30.0000000  0  8G 4G 7G 9G17G24G28G31R21
  22099179.557    22099179.9384   22099181.0284  116132012.901 7  90492477.37244
      2795.365        2178.207          45.000          32.000
  20777700.026    20777699.4944   20777701.1384  109187597.266 8  85081255.08246
     -1175.362        -915.869          53.000          43.000
  20895465.451    20895465.2134   20895466.3854  109806430.382 8  85563460.28246
      1183.367         922.103          50.000          41.000
  21397192.676    21397192.5034   21397193.0384  112443033.512 7  87617946.21145
      2316.999        1805.452          49.000          39.000
  21907110.492    21907110.3784   21907112.2064  115122679.397 8  89705998.97345
        62.748          48.893          50.000          36.000
  23015176.873    23015176.7364   23015177.2074  120945614.365 6  94243347.24043
     -2680.705       -2088.860          43.000          27.000
  21815939.641    21815939.5604   21815940.3444  114643573.954 7  89332677.04544
     -2896.305       -2256.859          48.000          34.000
  20834583.902    20834584.589    20834583.506   111529203.824 7  86744940.108 6
      2725.859        2120.111          49.000          40.000
 05 10  2  0 40  0.0000000  0  8G 4G 7G 9G17G24G28G31R21
  22083259.262    22083259.7294   22083261.1244  116048353.147 7  90427288.02144
      2781.924        2167.728          46.000          32.000
  20784442.719    20784441.8834   20784443.4174  109223028.737 8  85108864.03246
     -1186.707        -924.708          54.000          44.000
  20888768.126    20888767.7604   20888768.9094  109771234.982 8  85536035.31246
      1162.998         906.231          51.000          40.000
  21383998.984    21383999.1424   21383999.1244  112373701.308 7  87563921.10245
      2305.157        1796.223          49.000          39.000
  21906808.415    21906808.7244   21906810.3024  115121094.408 7  89704763.90945
        42.914          33.443          49.000          36.000
  23030499.035    23030498.0314   23030498.7754  121026129.848 6  94306086.58943
     -2686.975       -2093.736          43.000          26.000
  21832500.087    21832499.7534   21832500.5774  114730596.213 7  89400486.58545
     -2905.169       -2263.768          48.000          35.000
  20819345.312    20819347.108    20819346.546   111447634.916 7  86681497.652 6
      2712.007        2109.331          48.000          41.000
 05 10  2  0 40 30.0000000  0  9G 4G 7G 9G17G24G28G31R21S22
  22067416.925    22067416.7254   22067418.3004  115965097.293 7  90362413.37444
      2768.437        2157.225          46.000          33.000
  20791249.788    20791249.0894   20791250.5454  109258800.299 8  85136737.97646
     -1198.042        -933.540          54.000          44.000
  20882186.859    20882186.8514   20882187.6224  109736651.093 8  85509086.82645
      1142.593         890.333          50.000          39.000
  21370873.639    21370873.4944   21370873.9054  112304724.588 7  87510173.04746
      2293.289        1786.975          49.000          41.000
  21906620.609    21906620.5724   21906622.0304  115120104.003 7  89703992.17545
        23.098          18.000          49.000          36.000
  23045855.695    23045855.1054   23045856.0914  121106832.144 6  94368971.46543
     -2693.191       -2098.579          44.000          26.000
  21849109.337    21849109.8494   21849110.4484  114817883.036 7  89468502.29244
     -2913.942       -2270.601          47.000          34.000
  20804185.741    20804186.431    20804185.800   111366479.340 7  86618376.640 5
      2698.366        2098.721          49.000          39.000
  41037446.881                                   215653296.425 4
          .000                          31.000
 05 10  2  0 41  0.0000000  0 10G 4G 5G 7G 9G17G24G28G31R21S22
  22051651.282    22051651.3334   22051652.4614  115882248.143 7  90297855.62844
      2754.805        2146.598          47.000          33.000
  23749364.342                                   124803779.461 4
      3246.895                          30.000
  20798121.296    20798120.6604   20798122.1784  109294910.896 8  85164876.10146
     -1209.303        -942.314          53.000          44.000
  20875721.992    20875721.9684   20875723.0434  109702680.133 8  85482615.94445
      1122.125         874.379          50.000          38.000
  21357815.265    21357815.3254   21357815.7784  112236103.705 7  87456702.25846
      2281.404        1777.718          49.000          41.000
  21906545.036    21906544.8134   21906546.7444  115119708.143 7  89703683.73445
         3.282           2.556          49.000          36.000
  23061247.412    23061247.2454   23061247.7604  121187720.752 6  94432001.53942
     -2699.408       -2103.439          42.000          24.000
  21865770.172    21865769.8484   21865770.5444  114905432.249 7  89536722.46244
     -2922.662       -2277.397          47.000          34.000
  20789101.431    20789103.132    20789102.741   111285737.997 7  86555577.838 6
      2684.428        2087.893          49.000          40.000
  41037471.809                                   215653443.674 4
          .000                          32.000
 05 10  2  0 41 30.0000000  0 10G 4G 5G 7G 9G17G24G28G31R21S22
  22035963.050    22035963.1604   22035963.9914  115799808.546 7  90233616.98844
      2741.114        2135.934          47.000          32.000
  23730839.019                                   124706413.333 3
      3244.124                          27.000
  20805057.010    20805056.6054   20805058.1894  109331359.040 8  85193277.25346
     -1220.541        -951.071          54.000          44.000
  20869375.044    20869374.5284   20869375.5524  109669323.695 8  85456623.92045
      1101.621         858.404          50.000          39.000
  21344825.042    21344825.0424   21344825.5854  112167839.959 8  87403509.73546
      2269.487        1768.431          50.000          41.000
  21906583.056    21906582.7484   21906584.3934  115119906.807 8  89703838.52345
       -16.537         -12.880          50.000          36.000
  23076676.238    23076675.9074   23076675.6304  121268795.203 6  94495176.42943
     -2705.548       -2108.224          44.000          25.000
  21882479.629    21882479.3354   21882479.8884  114993241.437 7  89605145.20244
     -2931.283       -2284.115          48.000          34.000
  20774097.405    20774098.362    20774097.240   111205413.182 7  86493103.012 6
      2670.729        2077.231          49.000          40.000
  41037491.671                                   215653538.461 4
          .000                          31.000
 05 10  2  0 42  0.0000000  0 10G 4G 5G 7G 9G17G24G28G31R 4R21
  22020354.023    22020353.7734   22020355.2854  115717781.312 7  90169699.71044
      2727.333        2125.190          47.000          33.000
  23712327.079                                   124609131.274 4
      3241.386                          30.000
  20812057.311    20812056.5924   20812057.9364  109368143.490 8  85221940.47646
     -1231.756        -959.807          54.000          44.000
  20863144.385    20863144.2044   20863145.0684  109636583.033 8  85431111.73145
      1081.074         842.394          51.000          39.000
  21331902.940    21331903.0434   21331903.9764  112099934.167 7  87350596.16546
      2257.557        1759.136          49.000          41.000
  21906734.160    21906733.8154   21906735.6014  115120700.077 8  89704456.68445
       -36.355         -28.326          50.000          36.000
  23092140.062    23092139.0874   23092139.3544  121350054.806 6  94558495.60543
     -2711.739       -2113.057          43.000          26.000
  21899238.101    21899237.9984   21899238.4974  115081308.387 7  89673768.79644
     -2939.835       -2290.785          48.000          34.000
  23354814.978    23354815.349    23354820.126   125064014.586 5  97272006.163
      2241.104        1743.063          37.000
  20759168.995    20759170.059    20759169.237   111125503.734 7  86430951.243 6
      2656.747        2066.357          49.000          40.000
 05 10  2  0 42 30.0000000  0 10G 4G 7G 9G17G24G28G31R 4R21S22
  22004824.040    22004823.5154   22004824.7884  115636169.221 7  90106105.93844
      2713.449        2114.378          47.000          33.000
  20819120.639    20819119.9754   20819121.3194  109405262.913 8  85250864.69746
     -1242.891        -968.486          53.000          44.000
  20857031.559    20857031.3954   20857032.3514  109604459.746 8  85406080.60546
      1060.458         826.329          51.000          40.000
  21319049.048    21319049.1674   21319049.6424  112032386.631 8  87297961.73646
      2245.581        1749.802          50.000          40.000
  21906997.732    21906997.6984   21906999.7804  115122088.164 7  89705538.30145
       -56.182         -43.777          49.000          35.000
  23107637.148    23107637.3524   23107638.6484  121431499.136 6  94621958.68643
     -2717.890       -2117.835          43.000          25.000
  21916045.448    21916045.3174   21916045.7234  115169631.184 7  89742591.73844
     -2948.344       -2297.411          49.000          34.000
  23342315.384    23342318.330    23342316.247   124997085.365 5  97219950.218 2
      2220.830        1727.320          37.000          23.000
  20744318.963    20744320.440    20744319.700   111046011.823 7  86369124.232 6
      2642.740        2055.466          49.000          40.000
  41037507.990                                   215653641.546 4
          .000                          32.000
 05 10  2  0 43  0.0000000  0 10G 4G 7G 9G17G24G28G31R 4R21S22
  21989372.669    21989373.0624   21989373.4744  115554975.093 7  90042837.79844
      2699.451        2103.465          47.000          32.000
  20826247.687    20826246.9024   20826248.5504  109442715.760 8  85280048.73546
     -1253.964        -977.115          53.000          44.000
  20851036.707    20851036.3134   20851037.0844  109572955.251 8  85381531.64346
      1039.816         810.247          51.000          40.000
  21306263.464    21306263.7264   21306264.2754  111965198.788 7  87245607.59846
      2233.573        1740.443          49.000          41.000
  21907374.907    21907375.0314   21907376.7404  115124070.913 7  89707083.31645
       -76.019         -59.235          49.000          35.000
  23123171.110    23123170.6714   23123171.4854  121513127.746 6  94685565.38943
     -2724.017       -2122.614          42.000          25.000
  21932900.985    21932900.5704   21932901.4674  115258207.647 7  89811612.34444
     -2956.746       -2303.959          47.000          33.000
  23329929.669    23329931.900    23329930.724   124930765.072 4  97168367.755 2
      2200.451        1711.453          32.000          23.000
  20729546.258    20729548.393    20729547.915   110966937.818 7  86307622.258 6
      2628.842        2044.651          48.000          40.000
  41037538.922                                   215653774.438 4
          .000                          32.000
 05 10  2  0 43 30.0000000  0  9G 4G 7G 9G17G24G28G31R 4R21
  21974002.475    21974002.2744   21974003.3754  115474201.716 7  89979897.55544
      2685.417        2092.527          46.000          32.000
  20833437.927    20833437.1464   20833439.0824  109480500.915 8  85309491.71646
     -1265.035        -985.741          53.000          44.000
  20845159.628    20845159.3784   20845160.0424  109542070.998 8  85357466.00646
      1019.119         794.117          52.000          40.000
  21293546.958    21293546.7594   21293547.6454  111898371.385 7  87193534.32446
      2221.555        1731.078          48.000          41.000
  21907866.026    21907865.7434   21907867.1634  115126648.294 7  89709091.68545
       -95.830         -74.672          49.000          35.000
  23138739.894    23138739.4614   23138739.2214  121594939.783 6  94749314.99443
     -2730.119       -2127.369          43.000          25.000
  21949803.797    21949803.8044   21949805.3574  115347035.605 7  89880828.94844
     -2965.112       -2310.480          46.000          34.000
  23317661.923    23317670.334    23317661.448   124865057.577 6  97117261.932 3
      2179.987        1695.556          40.000          27.000
  20714854.200    20714855.433    20714854.432   110888283.421 7  86246446.611 6
      2614.747        2033.693          48.000          41.000
 05 10  2  0 44  0.0000000  0  9G 4G 7G 9G17G24G28G31R 4R21
  21958711.972    21958711.9014   21958713.2534  115393851.954 7  89917287.38844
      2671.245        2081.486          46.000          32.000
  20840691.299    20840690.4604   20840692.1884  109518617.038 8  85339192.59046
     -1276.025        -994.305          53.000          44.000
  20839400.649    20839400.6404   20839401.5974  109511808.410 8  85333884.77646
       998.394         777.972          51.000          41.000
  21280898.499    21280898.7394   21280898.9804  111831904.964 7  87141742.33746
      2209.514        1721.700          48.000          41.000
  21908469.626    21908469.2744   21908471.0284  115129820.352 7  89711563.42445
      -115.632         -90.102          49.000          36.000
  23154342.590    23154342.2014   23154342.8684  121676934.861 6  94813207.26942
     -2736.189       -2132.106          43.000          24.000
  21966755.141    21966754.8274   21966755.4414  115436112.970 7  89950239.87744
     -2973.369       -2316.911          46.000          33.000
  23305506.507    23305503.390    23305506.843   124799966.347 5  97066635.482 3
      2159.407        1679.542          37.000          27.000
  20700238.948    20700239.897    20700240.081   110810048.763 7  86185597.483 6
      2600.856        2022.881          49.000          41.000
 05 10  2  0 44 30.0000000  0  9G 4G 7G 9G17G24G28G31R 4R21
  21943503.395    21943503.4844   21943504.2444  115313928.870 7  89855009.68144
      2656.967        2070.367          48.000          33.000
  20848007.291    20848006.4564   20848008.2914  109557062.895 8  85369150.39746
     -1287.025       -1002.876          54.000          44.000
  20833760.243    20833760.2284   20833761.3534  109482168.711 8  85310788.94546
       977.601         761.765          51.000          40.000
  21268319.380    21268319.4524   21268319.8144  111765800.839 8  87090232.65246
      2197.428        1712.279          50.000          41.000
  21909186.323    21909186.3354   21909188.0984  115133587.110 7  89714498.55745
      -135.451        -105.547          49.000          36.000
  23169980.255    23169979.4264   23169980.3634  121759112.561 6  94877241.84142
     -2742.281       -2136.839          41.000          24.000
  21983753.637    21983753.2514   21983753.4014  115525437.556 7  90019843.42344
     -2981.579       -2323.305          46.000          34.000
  23293467.804    23293465.829    23293467.340   124735494.920 5  97016491.034 4
      2138.692        1663.424          39.000          30.000
  20685703.685    20685703.851    20685703.617   110732235.712 8  86125076.247 6
      2586.797        2011.952          50.000          40.000
 05 10  2  0 45  0.0000000  0 10G 2G 4G 7G 9G17G24G28G31R 4R21
  24589544.842                                   129218950.075 4
      3883.811                          32.000
  21928376.497    21928376.2624   21928376.6054  115234434.719 7  89793066.22044
      2642.627        2059.191          48.000          33.000
  20855385.783    20855385.0354   20855386.8764  109595836.934 8  85399363.93546
     -1297.960       -1011.396          54.000          44.000
  20828238.915    20828238.6424   20828239.2764  109453153.256 8  85288179.50746
       956.739         745.510          51.000          40.000
  21255808.780    21255808.9554   21255809.7394  111700059.367 7  87039005.55146
      2185.292        1702.821          49.000          41.000
  21910016.164    21910016.1094   21910017.2694  115137948.311 7  89717896.91745
      -155.302        -121.017          49.000          35.000
  23185653.464    23185652.1014   23185653.0994  121841471.995 6  94941418.00343
     -2748.357       -2141.577          43.000          25.000
  22000797.995    22000797.8904   22000797.8784  115615006.943 7  90089637.75144
     -2989.729       -2329.662          48.000          33.000
  23281543.514    23281544.645    23281542.727   124671646.599 5  96966831.285 3
      2117.792        1647.155          37.000          29.000
  20671245.253    20671246.303    20671246.315   110654845.177 7  86064883.622 6
      2572.462        2000.802          48.000          40.000
 05 10  2  0 45 30.0000000  0 11G 2G 4G 7G 9G17G24G28G31R 4R21S22
  24567372.705                                   129102441.051 4
      3883.382                          33.000
  21913330.837    21913330.9134   21913331.7534  115155372.326 7  89731459.18544
      2628.171        2047.925          47.000          33.000
  20862826.154    20862825.5574   20862827.2454  109634937.869 8  85429832.19046
     -1308.806       -1019.844          53.000          44.000
  20822836.263    20822836.1234   20822837.2594  109424763.233 8  85266057.40546
       935.891         729.263          51.000          40.000
  21243367.943    21243367.8964   21243368.7104  111634681.728 8  86988061.96746
      2173.173        1693.382          50.000          41.000
  21910959.539    21910958.8414   21910960.2554  115142903.762 7  89721758.31145
      -175.099        -136.443          49.000          35.000
  23201359.816    23201359.2694   23201359.9494  121924012.691 6  95005735.40242
     -2754.387       -2146.278          41.000          24.000
  22017888.306    22017888.3744   22017888.7534  115704819.162 7  90159621.29044
     -2997.768       -2335.923          46.000          33.000
  23269735.195    23269739.904    23269737.614   124608425.419 5  96917659.299 3
      2096.910        1630.945          37.000          27.000
  20656867.515    20656868.648    20656867.865   110577877.329 7  86005019.793 6
      2558.598        1990.020          49.000          41.000
  41037601.129                                   215654081.097 4
          .000                          30.000
 05 10  2  0 46  0.0000000  0 11G 2G 4G 7G 9G17G24G28G31R 4R21S22
  24545205.506                                   128985946.001 4
      3882.908                          31.000
  21898368.656    21898368.6644   21898369.5544  115076744.627 7  89670190.88944
      2613.682        2036.630          48.000          34.000
  20870329.252    20870328.1884   20870329.8544  109674364.496 8  85460554.24246
     -1319.618       -1028.275          53.000          44.000
  20817553.104    20817553.0164   20817553.9534  109397000.052 8  85244423.76745
       914.982         712.979          51.000          39.000
  21230996.690    21230996.3994   21230996.8114  111569668.579 7  86937402.40546
      2161.005        1683.900          48.000          41.000
  21912014.882    21912014.7314   21912016.3824  115148453.501 7  89726082.77645
      -194.887        -151.862          49.000          36.000
  23217100.733    23217100.4924   23217101.7324  122006734.161 6  95070193.68642
     -2760.411       -2150.972          41.000          24.000
  22035025.096    22035024.4414   22035025.3384  115794872.277 7  90229792.53144
     -3005.745       -2342.136          47.000          33.000
  23258046.876    23258049.005    23258046.819   124545834.667 4  96868977.752 3
      2075.860        1614.583          30.000          26.000
  20642568.120    20642569.191    20642569.083   110501332.829 7  85945485.168 6
      2544.400        1978.973          49.000          40.000
  41037614.143                                   215654142.706 4
          .000                          31.000
 05 10  2  0 46 30.0000000  0 11G 2G 4G 7G 9G17G24G28G31R 4R21S22
  24523040.675                                   128869467.235 4
      3882.318                          33.000
  21883488.861    21883489.4624   21883490.6134  114998554.476 7  89609263.52744
      2599.019        2025.212          48.000          33.000
  20877893.089    20877892.5964   20877894.2594  109714115.467 8  85491529.02546
     -1330.421       -1036.691          54.000          44.000
  20812389.665    20812389.4474   20812390.1754  109369864.854 8  85223279.45646
       894.026         696.643          50.000          40.000
  21218694.492    21218694.3564   21218695.2194  111505020.903 7  86887027.62546
      2148.826        1674.408          49.000          42.000
  21913184.305    21913184.2154   21913185.7554  115154597.044 7  89730869.95545
      -214.675        -167.278          49.000          36.000
  23232876.501    23232876.2174   23232877.5934  122089635.452 6  95134792.05742
     -2766.361       -2155.606          42.000          24.000
  22052206.560    22052206.9404   22052207.4884  115885163.995 7  90300149.70944
     -3013.683       -2348.327          48.000          33.000
  23246478.902    23246477.685    23246479.054   124483877.824 5  96820789.077 2
      2054.635        1598.056          35.000          24.000
  20628348.857    20628349.688    20628348.595   110425212.877 8  85886280.817 6
      2530.280        1967.992          50.000          41.000
  41037619.275                                   215654213.161 4
          .000                          31.000
 05 10  2  0 47  0.0000000  0 11G 2G 4G 7G 9G17G24G28G31R 4R21S22
  24500879.354                                   128753007.773 4
      3881.679                          30.000
  21868693.878    21868694.0624   21868695.5184  114920804.431 7  89548679.10244
      2584.303        2013.743          48.000          34.000
  20885519.057    20885518.4154   20885519.8124  109754189.225 8  85522755.33146
     -1341.165       -1045.062          53.000          43.000
  20807345.712    20807345.5734   20807346.1444  109343358.964 8  85202625.50646
       873.035         680.288          50.000          40.000
  21206462.088    21206462.0524   21206462.7814  111440739.731 7  86836938.41846
      2136.594        1664.877          49.000          41.000
  21914466.174    21914465.8674   21914467.8204  115161334.138 7  89736119.66245
      -234.458        -182.694          49.000          35.000
  23248687.208    23248686.2004   23248686.8894  122172716.327 6  95199530.40342
     -2772.381       -2160.290          42.000          24.000
  22069433.755    22069433.5554   22069434.5064  115975692.142 7  90370691.11144
     -3021.517       -2354.430          46.000          33.000
  23235027.974    23235027.861    23235028.927   124422558.173 6  96773095.972 3
      2033.346        1581.489          40.000          28.000
  20614207.529    20614208.885    20614208.524   110349518.580 7  85827407.519 6
      2516.000        1956.889          49.000          41.000
  41037636.890                                   215654238.018 4
          .000                          32.000
 05 10  2  0 47 30.0000000  0 10G 2G 4G 7G 9G17G24G28G31R 4R21
  24478718.748                                   128636569.940 4
      3880.862                          31.000
  21853983.064    21853983.1154   21853984.1194  114843497.121 7  89488439.67944
      2569.492        2002.197          47.000          33.000
  20893206.076    20893205.3144   20893206.7944  109794584.602 8  85554232.25146
     -1351.847       -1053.387          53.000          43.000
  20802421.853    20802421.8254   20802422.5754  109317483.369 8  85182462.71446
       852.000         663.896          51.000          40.000
  21194299.549    21194299.4364   21194300.0114  111376825.293 8  86787134.98946
      2124.372        1655.354          50.000          41.000
  21915861.182    21915860.9424   21915862.8894  115168664.732 7  89741831.81445
      -254.240        -198.110          49.000          36.000
  23264531.314    23264530.5704   23264530.5604  122255976.261 6  95264408.26043
     -2778.308       -2164.920          41.000          25.000
  22086704.837    22086704.8274   22086706.0984  116066454.516 7  90441415.01644
     -3029.286       -2360.479          47.000          32.000
  23223696.988    23223698.500    23223696.968   124361878.789 5  96725900.887 2
      2011.901        1564.806          35.000          24.000
  20600147.606    20600148.587    20600147.727   110274250.618 8  85768865.806 6
      2502.009        1946.005          50.000          42.000
 05 10  2  0 48  0.0000000  0 11G 2G 4G 7G 9G17G24G28G31R 4R21S22
  24456569.518                                   128520156.103 5
      3880.018                          36.000
  21839356.833    21839356.8944   21839357.8854  114766635.125 7  89428547.22744
      2554.587        1990.585          48.000          34.000
  20900953.895    20900953.0834   20900954.7304  109835300.238 8  85585958.72346
     -1362.509       -1061.696          53.000          43.000
  20797617.678    20797617.5504   20797619.2674  109292239.359 7  85162792.08046
       830.925         647.474          49.000          40.000
  21182206.956    21182206.9344   21182207.5334  111313278.034 7  86737617.65746
      2112.103        1645.794          49.000          42.000
  21917369.066    21917369.2154   21917370.7954  115176588.442 8  89748006.14045
      -274.018        -213.521          50.000          36.000
  23280408.753    23280408.2244   23280409.1614  122339414.391 6  95329424.97643
     -2784.241       -2169.533          41.000          25.000
  22104021.300    22104020.8534   22104021.5734  116157448.825 7  90512319.68844
     -3036.991       -2366.487          48.000          32.000
  23212486.572    23212484.771    23212485.737   124301843.474 5  96679206.861 3
      1990.429        1548.099          37.000          26.000
  20586166.530    20586167.239    20586167.404   110199409.509 7  85710656.061 6
      2487.572        1934.772          49.000          42.000
  41037666.608                                   215654443.149 4
          .000                          31.000
 05 10  2  0 48 30.0000000  0 11G 2G 4G 7G 9G17G24G28G31R 4R21S22
  24434423.374                                   128403769.514 4
      3879.074                          34.000
  21824814.819    21824815.4314   21824816.7804  114690221.299 7  89369004.02244
      2539.618        1978.922          46.000          34.000
  20908762.661    20908761.7274   20908763.2084  109876334.690 8  85617933.62146
     -1373.105       -1069.952          53.000          43.000
  20792934.701    20792934.1734   20792935.6974  109267628.157 8  85143614.55446
       809.811         631.018          51.000          41.000
  21170184.518    21170184.6664   21170184.8164  111250098.930 7  86688387.22146
      2099.827        1636.227          49.000          41.000
  21918989.897    21918989.8054   21918991.3344  115185105.222 7  89754642.60945
      -293.781        -228.918          49.000          36.000
  23296319.485    23296319.5034   23296320.5394  122423030.309 6  95394580.16342
     -2790.154       -2174.146          43.000          24.000
  22121380.328    22121380.1644   22121381.0694  116248673.118 7  90583403.54344
     -3044.628       -2372.434          46.000          32.000
  23201393.782    23201396.578    23201393.321   124242455.575 6  96633016.325 3
      1968.809        1531.294          40.000          25.000
  20572265.364    20572266.255    20572265.997   110124997.170 7  85652779.831 6
      2473.261        1923.646          49.000          41.000
  41037678.879                                   215654497.848 4
          .000                          31.000
 05 10  2  0 49  0.0000000  0 11G 2G 4G 5G 7G 9G17G24G28G31R 4R21
  24412278.042                                   128287412.500 4
      3877.986                          30.000
  21810360.748    21810360.6464   21810361.5754  114614258.452 8  89309812.22245
      2524.531        1967.170          50.000          35.000
  23454968.066                                   123256719.196 4
      3197.473                          30.000
  20916631.663    20916630.7944   20916632.3134  109917686.803 8  85650156.04946
     -1383.680       -1078.193          53.000          43.000
  20788372.193    20788371.8924   20788372.9604  109243651.101 8  85124931.11246
       788.647         614.534          53.000          41.000
  21158232.205    21158232.3024   21158232.2874  111187289.487 8  86639444.82346
      2087.449        1626.583          51.000          42.000
  21920723.251    21920723.0444   21920724.8474  115194214.943 8  89761741.09645
      -313.536        -244.316          50.000          36.000
  23312264.736    23312264.6404   23312265.7364  122506823.320 6  95459873.44242
     -2796.052       -2178.746          42.000          23.000
  22138782.695    22138782.6674   22138783.4464  116340125.410 7  90654665.05644
     -3052.195       -2378.326          47.000          31.000
  23190426.084    23190427.459    23190425.071   124183718.483 6  96587331.905 2
      1947.037        1514.358          40.000          24.000
  20558443.957    20558445.864    20558445.407   110051013.152 7  85595236.749 6
      2459.010        1912.559          49.000          41.000
 05 10  2  0 49 30.0000000  0 11G 2G 4G 5G 7G 9G17G24G28G31R 4R21
  24390142.804                                   128171087.229 5
      3876.931                          35.000
  21795991.116    21795991.3834   21795992.4434  114538748.907 7  89250973.62044
      2509.426        1955.395          47.000          34.000
  23436724.772                                   123160846.389 4
      3194.044                          31.000
  20924560.975    20924560.2064   20924561.5374  109959355.147 8  85682624.88146
     -1394.177       -1086.370          53.000          43.000
  20783930.210    20783929.9174   20783931.1674  109220309.006 8  85106742.49046
       767.488         598.039          51.000          41.000
  21146350.331    21146350.6644   21146350.4044  111124849.819 7  86590790.55446
      2075.167        1617.014          49.000          42.000
  21922569.459    21922569.1734   21922571.0984  115203916.793 7  89769300.97445
      -333.247        -259.674          49.000          36.000
  23328244.068    23328243.1604   23328244.4354  122590792.912 6  95525304.26942
     -2801.916       -2183.309          42.000          23.000
  22156228.590    22156228.2934   22156229.2504  116431803.462 7  90726102.48244
     -3059.663       -2384.152          47.000          32.000
  23179578.412    23179581.184    23179579.961   124125635.458 6  96542156.205 3
      1925.131        1497.328          41.000          27.000
  20544704.681    20544704.914    20544703.967   109977458.244 8  85538027.382 6
      2444.616        1901.361          50.000          41.000
 05 10  2  0 50  0.0000000  0 12G 2G 4G 5G 7G 9G17G24G28G31R 4R21S22
  24368012.830                                   128054796.928 5
      3875.731                          36.000
  21781709.433    21781709.2874   21781710.4804  114463695.628 7  89192490.58344
      2494.137        1943.481          48.000          34.000
  23418497.715                                   123065077.812 3
      3190.552                          28.000
  20932550.010    20932549.4774   20932550.8514  110001338.427 8  85715339.12446
     -1404.703       -1094.573          53.000          44.000
  20779609.216    20779608.9174   20779610.2564  109197603.073 8  85089049.58646
       746.229         581.474          51.000          41.000
  21134538.683    21134538.7294   21134539.2104  111062780.558 7  86542424.92946
      2062.761        1607.347          49.000          42.000
  21924528.296    21924527.8314   21924530.1654  115214210.630 7  89777322.14745
      -353.007        -275.067          48.000          36.000
  23344256.340    23344256.6944   23344257.3404  122674938.437 6  95590872.18442
     -2807.788       -2187.877          43.000          24.000
  22173716.874    22173716.9234   22173718.0804  116523705.377 7  90797714.34044
     -3067.123       -2389.967          45.000          32.000
  23168855.358    23168856.138    23168855.666   124068209.761 6  96497491.813 3
      1903.213        1480.279          41.000          26.000
  20531044.236    20531045.326    20531044.554   109904335.604 8  85481154.292 6
      2430.278        1890.213          50.000          42.000
  41037728.159                                   215654717.391 4
          .000                          31.000
 05 10  2  0 50 30.0000000  0 11G 2G 4G 7G 9G17G24G28G31R 4R21S22
  24345890.253                                   127938544.079 5
      3874.441                          35.000
  21767513.896    21767513.7484   21767515.0014  114389100.919 7  89134364.86944
      2478.822        1931.550          48.000          34.000
  20940599.075    20940598.0784   20940599.6404  110043635.007 8  85748297.50746
     -1415.105       -1102.679          54.000          44.000
  20775409.730    20775409.4144   20775410.2354  109175534.301 8  85071853.13246
       725.007         564.940          52.000          40.000
  21122798.066    21122798.1904   21122798.7804  111001082.707 8  86494348.70446
      2050.409        1597.722          51.000          43.000
  21926599.847    21926599.2614   21926601.2794  115225095.964 8  89785804.23745
      -372.700        -290.415          50.000          36.000
  23360301.167    23360301.6524   23360302.7834  122759259.146 6  95656576.59842
     -2813.599       -2192.415          41.000          23.000
  22191247.124    22191247.2564   22191248.4444  116615828.887 7  90869498.89544
     -3074.445       -2395.672          45.000          31.000
  23158253.857    23158255.599    23158254.570   124011444.465 6  96453341.017 3
      1881.172        1463.138          41.000          28.000
  20517464.669    20517465.877    20517465.588   109831643.365 8  85424615.903 6
      2415.934        1879.060          50.000          42.000
  41037729.486                                   215654828.422 4
          .000                          32.000
 05 10  2  0 51  0.0000000  0 10G 2G 4G 7G 9G17G24G28G31R 4R21
  24323773.922                                   127822330.982 5
      3873.085                          35.000
  21753407.097    21753406.9424   21753408.0894  114314967.823 7  89076598.84545
      2463.375        1919.514          48.000          35.000
  20948706.969    20948706.5724   20948707.7994  110086243.824 8  85781499.17346
     -1425.473       -1110.756          53.000          43.000
  20771331.697    20771331.4284   20771332.2634  109154103.762 8  85055154.01146
       703.719         548.353          52.000          41.000
  21111128.567    21111128.2714   21111128.6494  110939756.924 8  86446562.41246
      2038.003        1588.051          50.000          42.000
  21928783.705    21928783.4654   21928784.9584  115236572.574 7  89794747.05945
      -392.374        -305.746          47.000          36.000
  23376381.754    23376381.5484   23376381.0584  122843754.587 6  95722417.21942
     -2819.405       -2196.948          43.000          24.000
  22208820.736    22208819.7224   22208821.0734  116708172.049 7  90941454.59844
     -3081.726       -2401.343          46.000          32.000
  23147778.873    23147779.931    23147778.565   123955343.074 6  96409706.594 4
      1858.960        1445.859          41.000          31.000
  20503964.722    20503966.023    20503965.074   109759381.155 7  85368411.982 6
      2401.468        1867.808          49.000          41.000
 05 10  2  0 51 30.0000000  0 11G 2G 4G 7G 9G17G24G28G31R 4R21S22
  24301668.892                                   127706160.769 5
      3871.589                          35.000
  21739388.127    21739388.3594   21739389.5234  114241298.638 7  89019194.31545
      2447.905        1907.456          48.000          35.000
  20956874.557    20956873.6384   20956875.2794  110129163.396 8  85814943.00046
     -1435.817       -1118.818          53.000          43.000
  20767375.119    20767374.9204   20767376.1654  109133312.440 8  85038952.99246
       682.388         531.730          51.000          40.000
  21099529.149    21099529.1984   21099529.7004  110878803.798 8  86399066.48846
      2025.553        1578.353          50.000          42.000
  21931080.213    21931079.8404   21931081.6834  115248639.900 7  89804150.17345
      -412.091        -321.110          49.000          36.000
  23392492.605    23392492.7894   23392492.5604  122928424.183 6  95788393.48942
     -2825.205       -2201.463          40.000          22.000
  22226433.583    22226433.8904   22226434.7234  116800732.658 7  91013579.71544
     -3088.951       -2406.971          45.000          31.000
  23137426.291    23137427.311    23137426.118   123899908.604 5  96366590.967 4
      1836.698        1428.535          39.000          31.000
  20490546.816    20490548.483    20490548.199   109687553.576 8  85312546.116 6
      2387.121        1856.648          50.000          42.000
  41037775.643                                   215654967.068 4
          .000                          32.000
 05 10  2  0 52  0.0000000  0 11G 2G 4G 5G 7G 9G17G24G28G31R 4R21
  24279571.266                                   127590035.907 5
      3870.045                          36.000
  21725458.167    21725458.3694   21725459.4004  114168095.838 7  88962153.19645
      2432.310        1895.305          49.000          35.000
  23345804.654                                   122683044.044 4
      3176.173                          34.000
  20965100.462    20965099.8264   20965101.4024  110172392.438 8  85848627.96346
     -1446.125       -1126.851          53.000          43.000
  20763540.263    20763540.2204   20763541.1314  109113161.386 8  85023250.84846
       661.021         515.083          50.000          40.000
  21088001.314    21088001.2274   21088002.0404  110818224.359 8  86351861.75046
      2013.075        1568.631          51.000          42.000
  21933488.526    21933488.4164   21933490.3734  115261297.587 8  89814013.30845
      -431.757        -336.431          50.000          36.000
  23408638.605    23408637.3864   23408638.0324  123013267.188 5  95854504.91742
     -2830.996       -2205.964          39.000          22.000
  22244088.468    22244087.9254   22244088.9234  116893508.689 7  91085872.74944
     -3096.114       -2412.550          46.000          31.000
  23127200.036    23127201.524    23127198.519   123845144.271 6  96323996.549 4
      1814.289        1411.106          43.000          30.000
  20477210.056    20477211.524    20477210.428   109616159.208 7  85257017.181 6
      2372.578        1845.333          49.000          41.000
 05 10  2  0 52 30.0000000  0 11G 2G 4G 5G 7G 9G17G24G28G31R 4R21
  24257482.609    24257482.8124   24257483.2904  127473958.993 5  99330351.28441
      3868.446        3014.385          37.000          15.000
  21711617.531    21711617.3974   21711618.4474  114095362.322 7  88905477.73844
      2416.615        1883.077          48.000          34.000
  23327684.103                                   122587814.675 5
      3172.448                          37.000
  20973385.406    20973384.6474   20973385.9674  110215929.587 8  85882553.01446
     -1456.343       -1134.811          53.000          43.000
  20759828.066    20759827.6774   20759828.8894  109093651.538 8  85008048.37946
       639.638         498.419          52.000          41.000
  21076544.275    21076544.5094   21076545.2254  110758018.469 8  86304948.07646
      2000.619        1558.926          51.000          42.000
  21936009.049    21936009.1044   21936010.9314  115274545.006 7  89824335.95945
      -451.399        -351.744          48.000          35.000
  23424815.556    23424815.8194   23424817.1844  123098283.358 6  95920751.24242
     -2836.735       -2210.441          40.000          23.000
  22261783.846    22261783.6424   22261785.0524  116986498.166 7  91158332.04944
     -3103.168       -2418.052          46.000          32.000
  23117097.646    23117101.106    23117098.044   123791053.190 6  96281925.729 4
      1791.788        1393.613          41.000          30.000
  20463954.351    20463955.490    20463954.456   109545199.019 8  85201825.948 6
      2358.101        1834.074          50.000          41.000
 05 10  2  0 53  0.0000000  0 11G 2G 4G 5G 7G 9G17G24G28G31R 4R21
  24235402.776    24235404.3384   24235403.9084  127357932.663 4  99239941.27841
      3866.639        3012.959          34.000          13.000
  21697866.005    21697866.4684   21697867.8114  114023100.471 7  88849169.84245
      2400.854        1870.792          48.000          36.000
  23309582.884                                   122492697.088 4
      3168.725                          33.000
  20981728.505    20981727.9114   20981729.1504  110259773.571 8  85916717.15646
     -1466.566       -1142.775          53.000          42.000
  20756237.572    20756237.3274   20756238.4434  109074784.049 8  84993346.43246
       618.200         481.715          51.000          40.000
  21065158.980    21065159.2314   21065159.7734  110698188.279 7  86258327.18846
      1988.076        1549.146          49.000          42.000
  21938642.627    21938642.0944   21938643.9044  115288382.127 8  89835118.14145
      -471.051        -367.053          50.000          36.000
  23441027.627    23441026.9914   23441027.9824  123183471.799 6  95987131.85942
     -2842.478       -2214.914          42.000          23.000
  22279519.097    22279519.1064   22279520.6484  117079699.135 7  91230956.16244
     -3110.190       -2423.529          46.000          31.000
  23107122.498    23107124.202    23107122.694   123737638.238 5  96240380.793 3
      1769.269        1376.090          39.000          29.000
  20450778.954    20450780.553    20450779.795   109474673.889 8  85146973.125 6
      2343.601        1822.799          50.000          41.000
 05 10  2  0 53 30.0000000  0 11G 2G 4G 5G 7G 9G17G24G28G31R 4R21
  24213335.013    24213335.2514   24213334.2044  127241959.685 5  99149572.76541
      3864.840        3011.552          35.000          11.000
  21684205.767    21684205.5494   21684207.0634  113951312.751 7  88793231.38645
      2385.005        1858.442          48.000          35.000
  23291505.868                                   122397692.296 3
      3164.863                          26.000
  20990130.071    20990129.1524   20990130.6104  110303922.813 8  85951119.16646
     -1476.721       -1150.692          52.000          43.000
  20752769.292    20752769.1324   20752769.9864  109056559.550 8  84979145.51746
       596.757         465.004          50.000          40.000
  21053845.097    21053845.0914   21053845.9804  110638733.209 8  86211998.57846
      1975.589        1539.419          50.000          42.000
  21941387.879    21941387.6014   21941389.4494  115302807.885 7  89846358.99045
      -490.662        -382.336          49.000          36.000
  23457269.438    23457270.1594   23457270.9344  123268831.631 5  96053645.96842
     -2848.188       -2219.361          39.000          21.000
  22297294.857    22297294.4504   22297295.8414  117173109.231 7  91303743.25344
     -3117.141       -2428.941          45.000          31.000
  23097276.156    23097276.725    23097275.598   123684902.495 6  96199364.123 4
      1746.501        1358.383          40.000          30.000
  20437686.513    20437688.023    20437686.992   109404585.994 8  85092460.338 6
      2329.002        1811.446          51.000          42.000
 05 10  2  0 54  0.0000000  0 11G 2G 4G 7G 9G17G24G28G31R 4R21S22
  24191277.598    24191276.9954   24191276.3364  127126042.619 4  99059247.76441
      3862.945        3010.078          33.000          11.000
  21670635.836    21670635.6364   21670636.2294  113880001.788 7  88737664.42045
      2369.069        1846.026          49.000          35.000
  20998589.156    20998588.4604   20998589.8324  110348376.013 8  85985758.02146
     -1486.820       -1158.562          53.000          43.000
  20749424.194    20749423.7894   20749424.6054  109038978.922 8  84965446.33146
       575.274         448.265          52.000          40.000
  21042602.782    21042602.7514   21042603.5494  110579653.682 8  86165962.59946
      1963.021        1529.625          50.000          42.000
  21944244.773    21944244.3374   21944246.5094  115317821.976 7  89858058.28645
      -510.280        -397.621          48.000          36.000
  23473546.286    23473545.1434   23473546.3164  123354362.604 5  96120293.47742
     -2853.865       -2223.791          38.000          21.000
  22315109.474    22315109.5004   22315110.5944  117266726.670 7  91376691.88044
     -3124.013       -2434.292          45.000          31.000
  23087553.935    23087556.902    23087554.945   123632849.390 6  96158878.338 3
      1723.696        1340.640          41.000          28.000
  20424674.443    20424675.867    20424675.370   109334932.239 8  85038285.229 6
      2314.413        1800.094          50.000          42.000
  41037841.046                                   215655310.352 4
          .000                          31.000
 05 10  2  0 54 30.0000000  0 11G 2G 4G 7G 9G17G24G28G31R 4R21S22
  24169228.594    24169228.5664   24169227.6324  127010184.053 5  98968968.41141
      3860.927        3008.527          37.000           8.000
  21657156.702    21657156.9454   21657157.4694  113809170.225 7  88682471.01645
      2353.055        1833.551          48.000          35.000
  21007105.783    21007105.1964   21007106.6454  110393132.033 8  86020632.84246
     -1496.912       -1166.426          53.000          43.000
  20746201.169    20746201.1794   20746201.7564  109022043.127 8  84952249.60146
       553.768         431.505          52.000          41.000
  21031432.102    21031432.1744   21031432.3814  110520951.483 8  86120220.65246
      1950.437        1519.818          50.000          42.000
  21947213.806    21947213.4354   21947215.1324  115333423.818 7  89870215.56645
      -529.852        -412.874          49.000          36.000
  23489855.053    23489854.3504   23489855.2684  123440064.058 5  96187073.78642
     -2859.556       -2228.226          38.000          23.000
  22332963.793    22332963.4624   22332964.6084  117360549.377 7  91449800.48644
     -3130.821       -2439.600          45.000          31.000
  23077962.556    23077962.501    23077963.557   123581482.054 6  96118925.979 3
      1700.784        1322.829          40.000          29.000
  20411744.093    20411745.460    20411745.248   109265715.916 8  84984450.320 6
      2299.938        1788.837          50.000          42.000
  41037831.778                                   215655346.231 4
          .000                          31.000
 05 10  2  0 55  0.0000000  0 11G 2G 4G 7G 9G17G24G28G31R 4R21S22
  24147192.364    24147193.2924   24147190.9404  126894386.957 4  98878737.01741
      3858.848        3006.891          32.000           8.000
  21643769.293    21643769.7044   21643770.4194  113738820.490 7  88627653.06345
      2336.964        1821.006          48.000          35.000
  21015680.057    21015679.2974   21015681.0354  110438189.492 8  86055742.54646
     -1506.909       -1174.216          52.000          42.000
  20743101.306    20743101.0344   20743102.2164  109005753.013 8  84939556.02446
       532.237         414.728          50.000          41.000
  21020332.688    21020332.9114   21020333.6134  110462626.466 7  86074772.61046
      1937.869        1510.028          49.000          42.000
  21950294.819    21950294.1904   21950295.6664  115349612.773 7  89882830.33845
      -549.406        -428.109          49.000          35.000
  23506195.062    23506194.7924   23506196.6854  123525935.146 6  96253986.29142
     -2865.187       -2232.620          40.000          21.000
  22350855.638    22350855.9424   22350856.9134  117454575.223 7  91523067.34244
     -3137.554       -2444.849          45.000          31.000
  23068498.450    23068499.509    23068497.148   123530802.760 5  96079508.749 3
      1677.807        1304.961          39.000          28.000
  20398895.282    20398897.279    20398896.739   109196936.881 8  84930955.539 6
      2285.343        1777.486          50.000          41.000
  41037855.830                                   215655447.541 4
          .000                          32.000
 05 10  2  0 55 30.0000000  0 11G 2G 4G 7G 9G17G24G28G31R 4R21S22
  24125170.375    24125168.6884   24125168.2714  126778653.684 5  98788555.25041
      3856.681        3005.184          37.000           9.000
  21630474.808    21630474.7874   21630475.6494  113668954.846 7  88573212.34145
      2320.745        1808.375          49.000          36.000
  21024310.998    21024310.3554   21024312.3664  110483546.835 8  86091085.92846
     -1516.890       -1181.990          51.000          43.000
  20740124.924    20740124.3534   20740125.4304  108990109.392 8  84927366.19046
       510.668         397.922          52.000          41.000
  21009306.346    21009306.1844   21009306.9574  110404679.628 8  86029619.24446
      1925.243        1500.190          50.000          43.000
  21953486.656    21953486.5324   21953487.8154  115366388.205 7  89895902.11745
      -568.944        -443.332          49.000          36.000
  23522569.163    23522567.9714   23522568.9864  123611975.819 6  96321030.92142
     -2870.840       -2237.027          41.000          21.000
  22368786.151    22368786.3764   22368787.2934  117548802.132 6  91596490.92143
     -3144.221       -2450.045          44.000          29.000
  23059163.808    23059166.259    23059162.525   123480814.813 6  96040629.284 4
      1654.716        1286.995          41.000          30.000
  20386129.018    20386130.135    20386129.192   109128595.945 8  84877801.509 6
      2270.713        1766.118          50.000          41.000
  41037866.236                                   215655486.353 4
          .000                          32.000
 05 10  2  0 56  0.0000000  0 11G 2G 4G 7G 9G17G24G28G31R 4R21S22
  24103160.482    24103160.1044   24103159.7884  126662987.144 5  98698425.60841
      3854.417        3003.417          37.000          17.000
  21617272.190    21617272.3304   21617273.3404  113599575.881 7  88519150.81845
      2304.475        1795.696          49.000          35.000
  21032999.382    21032998.4384   21033000.1304  110529202.817 8  86126662.02346
     -1526.854       -1189.756          52.000          42.000
  20737270.733    20737270.8354   20737271.4614  108975112.959 8  84915680.63746
       489.078         381.101          51.000          40.000
  20998351.342    20998351.3964   20998351.9194  110347111.357 8  85984760.85546
      1912.617        1490.352          51.000          43.000
  21956790.086    21956789.7674   21956791.9084  115383749.516 7  89909430.38845
      -588.471        -458.549          47.000          35.000
  23538973.576    23538973.7204   23538973.9624  123698184.745 6  96388206.70042
     -2876.435       -2241.378          40.000          22.000
  22386755.700    22386755.3664   22386756.4384  117643228.092 6  91670069.57644
     -3150.831       -2455.189          44.000          30.000
  23049956.674    23049957.812    23049957.580   123431521.532 5  96002290.068 4
      1631.470        1268.919          38.000          30.000
  20373444.165    20373445.495    20373444.466   109060693.887 8  84824988.840 6
      2256.065        1754.713          50.000          40.000
  41037890.430                                   215655601.972 4
          .000                          31.000
 05 10  2  0 56 30.0000000  0 11G 2G 4G 7G 9G17G24G28G31R 4R21S22
  24081162.179    24081161.9754   24081162.0254  126547389.857 5  98608349.72541
      3852.069        3001.606          38.000          14.000
  21604162.576    21604162.9334   21604164.2944  113530686.055 7  88465470.44645
      2288.163        1782.987          48.000          36.000
  21041743.826    21041743.1484   21041744.8714  110575156.077 8  86162469.74746
     -1536.716       -1197.440          52.000          42.000
  20734539.901    20734540.0104   20734541.0244  108960764.568 8  84904500.08046
       467.466         364.259          52.000          40.000
  20987468.827    20987468.8164   20987468.9694  110289922.816 8  85940198.36246
      1899.948        1480.478          51.000          42.000
  21960205.604    21960205.3294   21960206.9904  115401696.073 8  89923414.72145
      -607.972        -473.747          50.000          36.000
  23555410.952    23555410.7274   23555411.3634  123784561.550 6  96455513.30442
     -2882.054       -2245.753          42.000          22.000
  22404762.101    22404761.4034   22404762.3494  117737851.200 7  91743801.85344
     -3157.385       -2460.295          45.000          31.000
  23040883.477    23040884.408    23040882.434   123382925.245 6  95964493.003 4
      1608.162        1250.786          42.000          31.000
  20360841.713    20360842.456    20360842.132   108993231.664 8  84772518.252 6
      2241.396        1743.304          51.000          42.000
  41037901.338                                   215655660.217 4
          .000                          31.000
 05 10  2  0 57  0.0000000  0 11G 2G 4G 7G 9G17G24G28G31R 4R21S22
  24059178.134    24059178.3834   24059177.7844  126431864.389 6  98518329.89441
      3849.607        2999.699          40.000          15.000
  21591146.744    21591147.3194   21591148.4924  113462287.836 7  88412173.15745
      2271.708        1770.160          48.000          35.000
  21050544.734    21050544.0664   21050545.3184  110621405.140 8  86198507.97646
     -1546.545       -1205.097          53.000          42.000
  20731933.483    20731933.2414   20731934.0824  108947064.781 8  84893824.93146
       445.847         347.411          52.000          41.000
  20976658.010    20976658.3484   20976658.6894  110233113.791 8  85895931.60146
      1887.299        1470.624          50.000          42.000
  21963731.818    21963731.7014   21963733.3104  115420227.122 7  89937854.51545
      -627.430        -488.903          49.000          35.000
  23571879.120    23571879.5154   23571880.2354  123871105.569 5  96522950.15042
     -2887.559       -2250.042          38.000          22.000
  22422805.329    22422805.2184   22422805.2064  117832669.325 7  91817686.09744
     -3163.827       -2465.315          46.000          30.000
  23031938.456    23031939.246    23031939.062   123335028.810 6  95927240.216 4
      1584.830        1232.652          40.000          32.000
  20348321.433    20348322.397    20348322.011   108926209.145 8  84720389.655 6
      2226.744        1731.915          50.000          42.000
  41037898.790                                   215655634.095 4
          .000                          32.000
 05 10  2  0 57 30.0000000  0 10G 2G 4G 7G 9G17G24G28G31R 4R21
  24037209.109    24037208.7254   24037207.4254  126316413.787 5  98428368.52441
      3847.068        2997.728          39.000          14.000
  21578225.450    21578225.2654   21578226.7664  113394383.838 8  88359260.98945
      2255.162        1757.266          50.000          36.000
  21059401.869    21059401.1394   21059402.5494  110667948.956 8  86234775.88446
     -1556.357       -1212.745          53.000          42.000
  20729449.941    20729449.7944   20729450.6794  108934014.535 8  84883655.89146
       424.167         330.519          52.000          40.000
  20965920.388    20965920.3144   20965920.6984  110176685.406 8  85851961.45946
      1874.586        1460.714          51.000          43.000
  21967369.122    21967368.8224   21967370.5754  115439341.833 8  89952749.08945
      -646.889        -504.068          50.000          35.000
  23588380.367    23588379.4114   23588381.5424  123957816.199 5  96590516.85542
     -2893.166       -2254.407          39.000          22.000
  22440885.055    22440885.0424   22440885.8994  117927680.531 6  91891720.77044
     -3170.229       -2470.312          44.000          30.000
  23023124.976    23023126.942    23023124.766   123287835.328 6  95890534.186 3
      1561.375        1214.400          40.000          29.000
  20335883.612    20335884.616    20335884.324   108859627.480 8  84668603.937 6
      2212.082        1720.504          51.000          43.000
 05 10  2  0 58  0.0000000  0 10G 2G 4G 7G 9G17G24G28G31R 4R21
  24015252.435    24015252.5934   24015254.4884  126201040.444 5  98338467.31241
      3844.464        2995.663          37.000          13.000
  21565398.075    21565398.2894   21565399.4434  113326976.139 8  88306735.54345
      2238.632        1744.386          50.000          36.000
  21068314.348    21068313.8154   21068315.4884  110714785.810 8  86271272.13546
     -1566.101       -1220.341          52.000          42.000
  20727090.006    20727090.0524   20727091.1474  108921614.428 8  84873993.48646
       402.490         313.626          51.000          40.000
  20955254.806    20955254.6184   20955255.3004  110120638.069 8  85808288.22046
      1861.877        1450.816          50.000          42.000
  21971117.814    21971117.2804   21971118.8504  115459039.419 7  89968097.84945
      -666.282        -519.183          48.000          35.000
  23604911.526    23604912.1034   23604912.3274  124044692.761 6  96658212.81642
     -2898.639       -2258.677          41.000          22.000
  22459001.495    22459000.9914   22459002.7054  118022882.734 6  91965904.31544
     -3176.556       -2475.248          44.000          30.000
  23014443.798    23014445.206    23014445.275   123241347.539 6  95854376.984 4
      1537.801        1196.064          40.000          30.000
  20323527.991    20323529.077    20323528.144   108793486.833 8  84617161.251 6
      2197.309        1709.014          52.000          42.000
 05 10  2  0 58 30.0000000  0 12G 2G 4G 7G 9G17G24G28G31R 4R 5R21S22
  23993313.547    23993312.7284   23993313.9784  126085747.120 5  98248628.38741
      3841.738        2993.564          37.000          14.000
  21552665.870    21552665.8484   21552666.4634  113260067.186 7  88254598.71045
      2221.958        1731.399          48.000          35.000
  21077282.727    21077282.0854   21077283.4254  110761914.633 8  86307995.88446
     -1575.814       -1227.906          52.000          42.000
  20724854.442    20724854.1324   20724855.1864  108909865.178 8  84864838.21145
       380.785         296.721          50.000          39.000
  20944662.102    20944661.9944   20944662.3984  110064972.491 8  85764912.46046
      1849.126        1440.880          51.000          43.000
  21974976.703    21974976.1884   21974977.8514  115479319.071 7  89983900.19145
      -685.698        -534.309          48.000          35.000
  23621474.675    23621474.7874   23621475.6414  124131734.731 5  96726037.72042
     -2904.143       -2262.959          38.000          21.000
  22477153.589    22477153.3124   22477154.9914  118118274.060 6  92040235.20644
     -3182.849       -2480.148          43.000          30.000
  23005895.491    23005897.089    23005895.804   123195567.990 6  95818770.769 3
      1514.189        1177.697          43.000          29.000
  24146460.648    24146465.318    24146458.870   129121978.291 4 100428233.662
      3699.903        2877.708          32.000
  20311254.933    20311256.272    20311254.726   108727788.404 8  84566062.486 6
      2182.714        1697.671          52.000          42.000
  41037962.136                                   215655947.173 4
          .000                          31.000
 05 10  2  0 59  0.0000000  0 11G 2G 4G 7G 9G17G24G28G31R 4R 5R21
  23971389.053    23971388.7934   23971390.3864  125970536.723 5  98158854.04641
      3838.886        2991.345          37.000          16.000
  21540028.888    21540028.8944   21540029.8394  113193659.529 8  88202852.48545
      2205.190        1718.327          51.000          37.000
  21086306.560    21086305.6214   21086307.1044  110809333.944 8  86344945.99546
     -1585.500       -1235.452          53.000          42.000
  20722742.877    20722742.5574   20722743.4854  108898767.387 8  84856190.58345
       359.043         279.776          50.000          39.000
  20934142.100    20934141.7924   20934142.0294  110009688.988 8  85721834.42446
      1836.395        1430.954          50.000          43.000
  21978946.733    21978946.0154   21978947.6094  115500180.341 7  90000155.72245
      -705.074        -549.407          49.000          36.000
  23638071.547    23638070.0294   23638070.5774  124218941.328 6  96793990.88842
     -2909.633       -2267.260          40.000          22.000
  22495342.076    22495341.7294   22495343.0654  118213852.549 7  92114711.94644
     -3189.071       -2484.991          45.000          30.000
  22997478.192    22997481.428    22997478.313   123150499.902 6  95783717.862 4
      1490.384        1159.194          40.000          30.000
  24125720.861    24125722.184    24125715.486   129011060.512 4 100341964.343 3
      3694.611        2873.573          32.000          28.000
  20299064.470    20299065.674    20299064.300   108662532.295 8  84515307.757 6
      2167.901        1686.147          52.000          42.000
 05 10  2  0 59 30.0000000  0 12G 2G 4G 7G 9G17G24G28G31R 4R 5R21S22
  23949482.509    23949482.0094   23949482.3054  125855411.584 6  98069146.20741
      3836.043        2989.122          40.000          18.000
  21527487.283    21527487.5974   21527488.8644  113127755.263 8  88151498.54545
      2188.386        1705.236          50.000          36.000
  21095385.096    21095384.3374   21095385.6364  110857042.433 8  86382121.44246
     -1595.082       -1242.922          52.000          42.000
  20720754.482    20720754.3584   20720755.7064  108888321.699 8  84848051.11046
       337.309         262.839          50.000          40.000
  20923694.549    20923694.7744   20923694.9244  109954787.900 8  85679054.35746
      1823.633        1421.013          52.000          44.000
  21983026.837    21983026.5444   21983028.5504  115521622.483 7  90016863.87145
      -724.404        -564.467          49.000          35.000
  23654696.718    23654695.9994   23654697.4424  124306312.091 6  96862071.94142
     -2915.082       -2271.486          40.000          21.000
  22513565.103    22513564.8764   22513566.2334  118309616.077 6  92189332.89244
     -3195.203       -2489.762          43.000          30.000
  22989195.080    22989197.904    22989195.633   123106145.358 6  95749219.913 3
      1466.530        1140.635          41.000          29.000
  24105006.504    24105010.113    24105005.420   128900302.798 4 100255819.552 3
      3689.192        2869.360          32.000          29.000
  20286956.543    20286958.103    20286957.225   108597718.910 8  84464897.363 6
      2153.099        1674.632          51.000          42.000
  41037967.088                                   215656102.494 4
          .000                          32.000
 05 10  2  1  0  0.0000000  0 11G 2G 4G 7G 9G17G24G28G31R 4R 5R21
  23927592.118    23927591.5764   23927591.6534  125740374.621 5  97979507.08141
      3833.082        2986.814          36.000          19.000
  21515042.769    21515042.6014   21515043.6234  113062357.062 7  88100538.93145
      2171.486        1692.067          49.000          36.000
  21104518.594    21104517.7614   21104519.0814  110905038.710 8  86419521.13146
     -1604.646       -1250.373          52.000          42.000
  20718891.473    20718890.9704   20718892.0094  108878528.556 7  84840420.09545
       315.559         245.889          49.000          39.000
  20913320.178    20913320.4114   20913320.9114  109900270.883 8  85636573.57946
      1810.820        1411.031          51.000          43.000
  21987217.926    21987217.1844   21987218.5334  115543644.432 7  90034023.83345
      -743.719        -579.521          48.000          35.000
  23671353.582    23671353.4594   23671354.9094  124393846.277 5  96930280.34542
     -2920.530       -2275.726          39.000          21.000
  22531823.030    22531822.3614   22531823.7724  118405562.986 6  92264096.68843
     -3201.262       -2494.484          44.000          29.000
  22981048.464    22981048.369    22981047.461   123062507.472 6  95715279.285 4
      1442.643        1122.054          43.000          31.000
  24084323.903    24084328.164    24084324.361   128789710.076 4 100169802.949 3
      3683.621        2865.037          30.000          29.000
  20274931.461    20274933.117    20274932.010   108533349.484 8  84414832.276 6
      2138.266        1663.096          51.000          42.000
 05 10  2  1  0 30.0000000  0 12G 2G 4G 7G 9G17G24G28G31R 4R 5R21S22
  23905718.373    23905717.5324   23905718.3434  125625428.502 5  97889938.71441
      3829.983        2984.393          38.000          19.000
  21502694.564    21502694.8324   21502695.8204  112997466.900 8  88049975.18745
      2154.472        1678.813          50.000          37.000
  21113706.004    21113705.6004   21113706.9154  110953321.377 8  86457143.97546
     -1614.199       -1257.819          51.000          41.000
  20717152.030    20717151.7884   20717152.2864  108869388.702 8  84833298.11246
       293.759         228.906          51.000          40.000
  20903019.068    20903019.2674   20903019.7884  109846137.839 8  85594391.99446
      1798.049        1401.078          50.000          44.000
  21991518.427    21991517.9884   21991519.3584  115566245.157 7  90051634.80345
      -763.007        -594.553          48.000          36.000
  23688042.754    23688042.2054   23688041.9404  124481542.880 6  96998615.36442
     -2925.917       -2279.937          41.000          21.000
  22550116.333    22550115.6374   22550115.9444  118501690.992 7  92339001.61743
     -3207.281       -2499.181          46.000          29.000
  22973032.149    22973034.218    22973032.478   123019588.522 6  95681897.927 4
      1418.632        1103.381          40.000          30.000
  24063672.753    24063679.889    24063672.365   128679286.806 4 100083918.368 3
      3677.908        2860.586          32.000          29.000
  20262989.955    20262991.285    20262990.496   108469423.369 8  84365111.988 6
      2123.371        1651.509          51.000          42.000
  41037991.513                                   215656233.689 4
          .000                          32.000
 05 10  2  1  1  0.0000000  0 12G 2G 4G 5G 7G 9G17G24G28G31R 4R 5R21
  23883861.110    23883861.9994   23883862.2574  125510575.963 5  97800443.29041
      3826.842        2981.956          37.000          18.000
  21490443.557    21490443.7324   21490445.1364  112933087.331 7  87999809.32145
      2137.404        1665.505          49.000          37.000
  23023078.069                                   120987112.953 5
      3102.615                          37.000
  21122948.709    21122947.6754   21122948.9734  111001889.343 8  86494989.14846
     -1623.686       -1265.210          52.000          42.000
  20715537.004    20715536.7764   20715538.0804  108860902.745 8  84826685.68746
       271.966         211.918          50.000          40.000
  20892791.103    20892791.2324   20892791.3914  109792388.826 8  85552509.66646
      1785.203        1391.068          51.000          43.000
  21995928.661    21995928.3844   21995931.1834  115589424.458 7  90069696.58045
      -782.281        -609.567          48.000          35.000
  23704761.186    23704761.3414   23704761.4354  124569401.843 6  97067076.86642
     -2931.329       -2284.156          40.000          21.000
  22568442.320    22568442.0414   22568442.4334  118597998.439 7  92414046.36243
     -3213.220       -2503.808          45.000          29.000
  22965149.681    22965152.755    22965153.076   122977391.262 5  95649077.902 3
      1394.568        1084.658          35.000          28.000
  24043055.457    24043059.974    24043056.383   128569036.916 4  99998168.574 4
      3672.069        2856.056          31.000          30.000
  20251130.981    20251132.506    20251131.456   108405942.221 8  84315737.784 6
      2108.757        1640.140          51.000          42.000
 05 10  2  1  1 30.0000000  0 13G 2G 4G 5G 7G 9G17G24G28G31R 4R 5R21
                                S22
  23862024.683    23862025.0294   23862024.7714  125395819.757 5  97711022.98941
      3823.549        2979.386          39.000          17.000
  21478289.647    21478289.9804   21478291.0164  112869220.582 8  87950043.02945
      2120.294        1652.175          50.000          36.000
  23005377.568                                   120894101.966 5
      3098.083                          37.000
  21132244.461    21132243.8274   21132245.0874  111050740.875 8  86533055.26646
     -1633.089       -1272.536          52.000          41.000
  20714046.754    20714046.5964   20714047.4214  108853070.747 8  84820582.82945
       250.154         194.923          52.000          39.000
  20882635.911    20882636.0404   20882636.7504  109739025.154 8  85510927.58146
      1772.371        1381.069          51.000          43.000
  22000449.912    22000449.3614   22000452.1034  115613181.143 8  90088208.27745
      -801.492        -624.537          50.000          36.000
  23721512.209    23721511.1804   23721511.6694  124657422.010 6  97135663.96642
     -2936.672       -2288.322          40.000          21.000
  22586802.939    22586802.9204   22586803.3164  118694483.056 7  92489229.17443
     -3219.083       -2508.373          45.000          29.000
  22957408.361    22957407.845    22957408.003   122935918.426 6  95616821.189 3
      1370.329        1065.816          42.000          29.000
  24022476.215    24022473.520    24022471.980   128458965.243 4  99912557.330 3
      3666.031        2851.354          31.000          29.000
  20239355.706    20239356.790    20239355.679   108342906.233 8  84266709.791 6
      2093.806        1628.521          52.000          42.000
  41038030.662                                   215656307.501 4
          .000                          32.000
 05 10  2  1  2  0.0000000  0 12G 2G 4G 5G 7G 9G17G24G28G31R 4R 5R21
  23840206.160    23840206.6104   23840206.1764  125281162.335 5  97621679.61041
      3820.254        2976.807          37.000          17.000
  21466234.723    21466234.6434   21466236.1604  112805868.966 7  87900678.15845
      2103.139        1638.809          49.000          37.000
  22987704.580                                   120801227.333 5
      3093.557                          36.000
  21141594.423    21141593.7484   21141595.2314  111099874.971 8  86571341.57146
     -1642.481       -1279.854          52.000          42.000
  20712680.848    20712680.7134   20712681.3414  108845893.411 8  84814990.10246
       228.339         177.929          51.000          40.000
  20872554.614    20872554.6064   20872555.3924  109686046.776 8  85469645.73346
      1759.526        1371.060          50.000          43.000
  22005080.487    22005080.0944   22005081.4234  115637514.071 7  90107169.01945
      -820.678        -639.490          48.000          35.000
  23738291.166    23738290.7024   23738291.4374  124745602.894 5  97204376.29442
     -2942.034       -2292.498          39.000          20.000
  22605196.101    22605195.9774   22605197.3484  118791143.076 7  92564548.62643
     -3224.901       -2512.912          45.000          29.000
  22949798.085    22949800.538    22949797.402   122895172.325 6  95585129.867 3
      1346.081        1046.953          41.000          29.000
  24001926.742    24001926.442    24001920.482   128349076.645 4  99827088.591 3
      3659.862        2846.552          32.000          28.000
  20227663.130    20227664.203    20227662.992   108280315.016 8  84218027.765 6
      2078.930        1616.943          51.000          43.000
 05 10  2  1  2 30.0000000  0 13G 2G 4G 5G 7G 9G17G24G28G31R 4R 5R21
                                S22
  23818407.496    23818406.1514   23818407.2674  125166606.779 5  97532415.70641
      3816.778        2974.102          38.000          12.000
  21454277.305    21454277.5084   21454279.1094  112743034.573 7  87851716.31345
      2085.818        1625.311          49.000          37.000
  22970057.889                                   120708490.715 4
      3088.929                          33.000
  21150997.880    21150997.0514   21150999.0174  111149290.038 8  86609846.82046
     -1651.876       -1287.177          51.000          41.000
  20711440.081    20711439.6514   20711440.5454  108839371.223 8  84809907.88346
       206.469         160.884          51.000          40.000
  20862546.838    20862546.8414   20862547.1154  109633454.409 8  85428664.68846
      1746.642        1361.019          51.000          44.000
  22009819.957    22009819.5484   22009821.5384  115662422.593 7  90126578.24445
      -839.888        -654.459          48.000          35.000
  23755101.458    23755101.1674   23755102.6704  124833944.237 5  97273213.66242
     -2947.380       -2296.671          39.000          20.000
  22623623.437    22623623.0554   22623624.6014  118887976.556 6  92640003.32543
     -3230.670       -2517.405          44.000          29.000
  22942324.815    22942327.443    22942326.069   122855155.038 5  95554005.315 4
      1321.726        1028.005          39.000          31.000
  23981406.150    23981411.308    23981406.833   128239374.762 4  99741764.973 3
      3653.570        2841.659          33.000          29.000
  20216053.735    20216054.637    20216054.070   108218170.104 8  84169692.851 6
      2064.148        1605.453          51.000          43.000
  41038043.723                                   215656459.874 4
          .000                          32.000
 05 10  2  1  3  0.0000000  0 13G 2G 4G 5G 7G 9G17G24G28G31R 4R 5R21
                                S22
  23796626.441    23796626.7734   23796628.4494  125052155.606 5  97443233.01741
      3813.286        2971.378          37.000           9.000
  21442419.311    21442419.3824   21442420.5964  112680719.976 8  87803159.49945
      2068.427        1611.759          50.000          37.000
  22952437.041                                   120615893.317 4
      3084.200                          33.000
  21160454.637    21160453.7354   21160455.3454  111198985.002 8  86648570.16646
     -1661.158       -1294.409          52.000          41.000
  20710323.364    20710323.3484   20710323.9634  108833504.706 8  84805336.58046
       184.623         143.859          51.000          40.000
  20852612.231    20852612.3174   20852612.7094  109581248.748 8  85387984.98046
      1733.731        1350.959          51.000          43.000
  22014669.748    22014669.1394   22014670.9884  115687905.707 8  90146435.22145
      -859.007        -669.358          50.000          35.000
  23771942.452    23771942.6234   23771944.5944  124922445.018 5  97342175.27942
     -2952.689       -2300.787          39.000          21.000
  22642082.970    22642082.3674   22642084.7344  118984981.737 6  92715591.77044
     -3236.343       -2521.826          44.000          30.000
  22934989.653    22934990.625    22934989.320   122815869.729 6  95523450.099 4
      1297.311        1009.010          42.000          30.000
  23960932.578    23960931.804    23960928.417   128129863.852 4  99656589.916 3
      3647.130        2836.653          30.000          29.000
  20204527.562    20204529.050    20204528.151   108156471.500 8  84121705.063 6
      2049.149        1593.778          51.000          43.000
  41038072.987                                   215656529.339 4
          .000                          32.000
 05 10  2  1  3 30.0000000  0 13G 2G 4G 5G 7G 9G17G24G28G31R 4R 5R21
                                S22
  23774868.685    23774868.8604   23774869.8124  124937811.322 5  97354133.69241
      3809.694        2968.587          38.000           8.000
  21430660.836    21430660.8684   21430661.8234  112618926.819 7  87755009.01545
      2051.067        1598.233          48.000          37.000
  22934844.854    22934843.5294   22934844.2424  120523436.495 4  93914370.47741
      3079.577        2399.683          31.000          13.000
  21169963.917    21169963.3534   21169965.0284  111248958.249 8  86687510.35246
     -1670.392       -1301.603          52.000          41.000
  20709331.923    20709331.5694   20709332.8134  108828293.947 8  84801276.23846
       162.773         126.833          52.000          40.000
  20842751.365    20842751.4764   20842751.6564  109529429.788 8  85347606.57946
      1720.856        1340.929          50.000          43.000
  22019627.982    22019627.8364   22019629.1714  115713962.366 7  90166739.10545
      -878.088        -684.226          49.000          35.000
  23788815.111    23788814.0874   23788815.8294  125011104.385 6  97411260.46842
     -2957.925       -2304.878          40.000          20.000
  22660574.630    22660574.5424   22660576.3054  119082156.226 7  92791312.15143
     -3241.954       -2526.203          45.000          29.000
  22927789.262    22927792.337    22927788.932   122777318.606 6  95493465.923 3
      1272.847         989.983          42.000          28.000
  23940486.228    23940488.710    23940484.967   128020549.485 4  99571567.684 3
      3640.523        2831.502          30.000          28.000
  20193085.201    20193086.558    20193085.866   108095219.568 8  84074064.686 6
      2034.346        1582.270          50.000          43.000
  41038065.469                                   215656575.496 4
          .000                          32.000
 05 10  2  1  4  0.0000000  0 12G 2G 4G 7G 9G17G24G28G31R 4R 5R21S22
  23753129.535    23753129.4484   23753131.8764  124823576.966 5  97265119.99541
      3805.946        2965.688          37.000          11.000
  21419001.323    21419001.4104   21419002.5414  112557657.722 8  87707266.87845
      2033.538        1584.577          51.000          37.000
  21179526.354    21179525.5934   21179526.9924  111299208.447 8  86726666.35746
     -1679.613       -1308.789          52.000          41.000
  20708465.118    20708464.8664   20708466.1114  108823739.332 8  84797727.20146
       140.885         109.778          51.000          41.000
  20832964.622    20832964.4164   20832964.5174  109477998.033 8  85307529.91046
      1707.917        1330.843          50.000          43.000
  22024695.127    22024695.1634   22024696.7234  115740591.451 7  90187489.03745
      -897.168        -699.091          49.000          35.000
  23805716.061    23805716.7064   23805717.1594  125099921.693 6  97480468.74942
     -2963.232       -2309.019          40.000          21.000
  22679097.703    22679097.4194   22679098.5264  119179498.207 6  92867163.04243
     -3247.490       -2530.506          42.000          27.000
  22920727.304    22920729.377    22920727.860   122739503.642 6  95464054.276 3
      1248.238         970.855          40.000          29.000
  23920087.534    23920083.806    23920080.866   127911435.260 4  99486701.187 4
      3633.757        2826.258          32.000          30.000
  20181726.627    20181727.979    20181727.378   108034414.808 8  84026772.101 6
      2019.457        1570.689          51.000          43.000
  41038077.295                                   215656612.115 4
          .000                          32.000
 05 10  2  1  4 30.0000000  0 12G 2G 4G 7G 9G17G24G28G31R 4R 5R21S22
  23731413.382    23731412.2534   23731413.2934  124709455.167 5  97176193.90241
      3802.151        2962.745          35.000          11.000
  21407442.652    21407442.8134   21407443.9764  112496914.782 7  87659934.74445
      2015.944        1570.863          49.000          37.000
  21189141.088    21189140.3034   21189141.6854  111349734.230 8  86766037.09546
     -1688.791       -1315.942          51.000          41.000
  20707723.346    20707723.1344   20707724.3514  108819841.206 8  84794689.70546
       118.976          92.708          51.000          41.000
  20823250.859    20823251.1364   20823251.4394  109426954.629 8  85267755.84346
      1694.949        1320.738          51.000          44.000
  22029871.510    22029871.3744   22029873.1064  115767791.751 7  90208684.08145
      -916.196        -713.919          49.000          36.000
  23822647.443    23822647.5164   23822647.0984  125188896.297 6  97549799.58041
     -2968.439       -2313.079          41.000          19.000
  22697653.656    22697653.0644   22697654.2244  119277005.975 7  92943143.06543
     -3253.011       -2534.824          45.000          28.000
  22913805.279    22913805.219    22913804.686   122702427.588 6  95435217.380 4
      1223.529         951.630          42.000          31.000
  23899721.176                                   127802534.167 4
          .000                          30.000
  20170450.451    20170451.866    20170452.025   107974057.566 8  83979827.609 6
      2004.308        1558.906          50.000          43.000
  41038103.243                                   215656688.275 4
          .000                          30.000
 05 10  2  1  5  0.0000000  0 11G 2G 4G 7G 9G17G24G28G31R 4R 5R21
  23709719.220    23709718.4934   23709720.0254  124595448.607 5  97087357.67541
      3798.280        2959.694          37.000          13.000
  21395983.950    21395984.0064   21395985.0614  112436700.423 8  87613014.48645
      1998.330        1557.140          50.000          36.000
  21198808.202    21198807.3254   21198809.0184  111400534.564 8  86805621.78146
     -1697.895       -1323.037          52.000          41.000
  20707106.350    20707106.4354   20707107.5414  108816600.296 8  84792164.31746
        97.081          75.646          50.000          40.000
  20813611.458    20813611.7854   20813612.3274  109376299.705 8  85228284.49146
      1682.020        1310.664          50.000          44.000
  22035156.056    22035155.8904   22035157.6484  115795562.632 7  90230323.71445
      -935.185        -728.717          48.000          35.000
  23839608.511    23839608.2454   23839608.9234  125278027.725 5  97619252.61941
     -2973.667       -2317.148          36.000          19.000
  22716239.873    22716239.8304   22716239.9854  119374677.762 6  93019250.93243
     -3258.439       -2539.034          44.000          28.000
  22907019.666    22907021.428    22907019.091   122666092.856 6  95406957.058 4
      1198.739         932.352          41.000          30.000
  23879388.911    23879390.082    23879384.808   127693834.249 4  99317439.138 4
      3619.808        2815.410          32.000          30.000
  20159260.305    20159260.946    20159260.312   107914148.211 8  83933231.446 6
      1989.429        1547.335          51.000          43.000
 05 10  2  1  5 30.0000000  0 11G 2G 4G 7G 9G17G24G28G31R 4R 5R21
  23688046.535    23688047.2074   23688046.5574  124481560.376 5  96998613.71841
      3794.302        2956.592          36.000          12.000
  21384626.657    21384626.5634   21384627.5924  112377016.367 7  87566507.43645
      1980.611        1543.335          49.000          38.000
  21208526.739    21208526.2544   21208527.7934  111451607.951 8  86845419.20446
     -1706.968       -1330.104          51.000          41.000
  20706614.640    20706614.5224   20706615.5994  108814016.752 7  84790151.18346
        75.163          58.568          49.000          40.000
  20804046.152    20804046.2654   20804046.8214  109326033.799 8  85189116.26546
      1669.050        1300.559          51.000          43.000
  22040549.237    22040549.1494   22040549.9524  115823902.796 8  90252406.98545
      -954.137        -743.484          50.000          35.000
  23856598.697    23856598.7684   23856600.1904  125367315.276 5  97688827.30741
     -2978.826       -2321.155          37.000          19.000
  22734856.489    22734856.3184   22734856.8924  119472511.666 6  93095485.16643
     -3263.803       -2543.217          44.000          27.000
  22900372.970    22900374.688    22900372.679   122630501.323 6  95379274.739 3
      1173.943         913.067          42.000          29.000
  23859100.997    23859101.432    23859099.989   127585348.294 4  99233061.257 4
      3612.652        2809.836          30.000          33.000
  20148152.068    20148152.897    20148152.279   107854688.093 8  83886984.707 6
      1974.467        1535.699          51.000          42.000
 05 10  2  1  6  0.0000000  0 12G 2G 4G 7G 9G17G24G28G31R 4R 5R21S22
  23666396.601    23666397.3034   23666396.8034  124367792.719 4  96909963.63341
      3790.222        2953.409          34.000           8.000
  21373370.114    21373370.3734   21373371.8594  112317864.878 7  87520415.39845
      1962.828        1529.473          49.000          38.000
  21218297.536    21218296.6554   21218298.3354  111502952.919 8  86885428.27546
     -1715.999       -1337.144          50.000          41.000
  20706248.731    20706248.2024   20706249.1974  108812090.600 8  84788650.28746
        53.254          41.495          51.000          41.000
  20794555.330    20794555.2004   20794555.6944  109276156.831 8  85150251.11146
      1656.087        1290.458          52.000          44.000
  22046049.981    22046049.5364   22046051.3344  115852811.386 7  90274933.14144
      -973.077        -758.242          48.000          34.000
  23873619.721    23873619.1484   23873620.7654  125456758.349 5  97758523.16741
     -2984.010       -2325.205          38.000          19.000
  22753504.268    22753504.3744   22753504.9084  119570505.715 6  93171844.17343
     -3269.112       -2547.360          43.000          28.000
  22893864.745    22893866.756    22893865.388   122595655.464 5  95352172.407 4
      1149.114         893.752          39.000          31.000
  23838856.307    23838854.520    23838852.440   127477080.363 4  99148852.998 4
      3605.291        2804.112          33.000          32.000
  20137128.024    20137129.170    20137128.166   107795676.417 8  83841086.751 6
      1959.551        1524.097          52.000          43.000
  41038151.015                                   215656939.291 4
          .000                          32.000
 05 10  2  1  6 30.0000000  0 12G 2G 4G 5G 7G 9G17G24G28G31R 4R 5R21
  23644772.726    23644771.6584   23644769.6114  124254148.675 5  96821409.76541
      3786.059        2950.168          36.000           6.000
  21362216.361    21362215.9594   21362217.2774  112259248.119 8  87474740.03245
      1944.946        1515.540          50.000          37.000
  22829858.261    22829859.7374   22829864.8214  119971746.163 4  93484475.9954
      3050.227                        2376.805          34.000
  21228120.016    21228118.8694   21228120.6014  111554568.359 8  86925648.09846
     -1724.994       -1344.151          52.000          41.000
  20706006.816    20706007.0034   20706007.9984  108810822.146 8  84787661.88946
        31.323          24.407          51.000          40.000
  20785137.942    20785138.0704   20785138.3414  109226669.774 8  85111689.76946
      1643.068        1280.311          51.000          43.000
  22051659.359    22051658.8574   22051660.1534  115882287.377 8  90297901.45045
      -991.972        -772.967          50.000          36.000
  23890668.808    23890668.7534   23890670.2104  125546355.878 5  97828339.40041
     -2989.127       -2329.187          39.000          19.000
  22772181.977    22772181.6514   22772182.9864  119668658.141 6  93248326.53143
     -3274.359       -2551.446          43.000          27.000
  22887496.643    22887498.389    22887497.252   122561557.379 6  95325651.719 4
      1124.110         874.308          40.000          30.000
  23818646.638    23818650.517    23818645.641   127369035.618 4  99064818.263 4
      3597.710        2798.218          33.000          31.000
  20126188.124    20126189.333    20126188.445   107737114.159 8  83795538.373 6
      1944.472        1512.366          52.000          42.000
 05 10  2  1  7  0.0000000  0 13G 2G 4G 5G 7G 9G17G24G28G31R 4R 5R21
                                S22
  23623170.366    23623169.2994   23623167.4754  124140630.590 5  96732954.22041
      3781.804        2946.833          37.000           9.000
  21351163.653    21351163.6024   21351164.4754  112201168.172 8  87429482.93645
      1927.032        1501.585          50.000          38.000
  22812457.370    22812458.0614   22812460.3944  119880315.269 4  93413231.20241
      3045.128        2372.816          33.000          16.000
  21237993.265    21237992.5184   21237994.0514  111606452.647 8  86966077.40446
     -1733.956       -1351.136          53.000          41.000
  20705890.888    20705890.4914   20705891.6054  108810211.417 8  84787186.00046
         9.382           7.308          51.000          40.000
  20775795.395    20775794.9774   20775795.9684  109177572.953 8  85073432.52946
      1630.041        1270.163          51.000          44.000
  22057376.030    22057375.7864   22057377.1894  115912329.267 8  90321310.72345
     -1010.815        -787.651          50.000          35.000
  23907749.416    23907748.6374   23907749.1074  125636107.179 5  97898275.42941
     -2994.297       -2333.226          39.000          19.000
  22790889.577    22790889.6504   22790890.3394  119766966.677 6  93324930.65343
     -3279.539       -2555.490          43.000          27.000
  22881273.106    22881272.496    22881270.515   122528209.062 6  95299714.151 4
      1099.082         854.843          44.000          30.000
  23798488.030    23798488.721    23798481.971   127261217.653 4  98980959.900 4
      3590.104        2792.304          32.000          30.000
  20115332.397    20115333.689    20115332.163   107679001.363 8  83750339.551 6
      1929.614        1500.811          52.000          43.000
  41038174.248                                   215657061.771 4
          .000                          31.000
 05 10  2  1  7 30.0000000  0 12G 2G 4G 5G 7G 9G17G24G28G31R 4R 5R21
  23601593.588    23601592.4764   23601589.2654  124027241.455 5  96644599.19241
      3777.463        2943.472          39.000          13.000
  21340214.146    21340214.0474   21340215.0864  112143626.983 8  87384645.68145
      1909.046        1487.568          51.000          38.000
  22795088.169    22795087.5164   22795090.6004  119789036.892 4  93342105.21941
      3040.038        2368.867          33.000          14.000
  21247917.432    21247916.7464   21247918.1814  111658604.695 8  87006715.36246
     -1742.841       -1358.058          51.000          40.000
  20705900.162    20705899.6154   20705900.8474  108810258.956 8  84787223.04846
       -12.561          -9.790          51.000          41.000
  20766527.117    20766526.7294   20766527.5344  109128867.003 8  85035479.86346
      1617.006        1260.004          52.000          44.000
  22063200.240    22063200.0694   22063201.4274  115942935.878 7  90345160.03445
     -1029.620        -802.301          49.000          35.000
  23924857.934    23924857.1804   23924857.3054  125726011.999 5  97968331.13841
     -2999.377       -2337.185          39.000          19.000
  22809626.646    22809626.2424   22809627.6564  119865429.649 6  93401654.99443
     -3284.647       -2559.459          43.000          27.000
  22875182.478    22875184.922    22875183.480   122495613.037 5  95274361.702 4
      1073.949         835.300          37.000          31.000
  23778367.126    23778369.230    23778363.275   127153631.364 4  98897281.728 4
      3582.351        2786.277          33.000          32.000
  20104560.577    20104561.651    20104561.090   107621338.609 8  83705490.755 6
      1914.546        1489.093          52.000          43.000
 05 10  2  1  8  0.0000000  0 12G 2G 4G 5G 7G 9G17G24G28G31R 4R21S22
  23580041.421    23580041.3784   23580038.4974  123913984.069 5  96556346.69341
      3773.024        2940.028          37.000          15.000
  21329367.213    21329367.2274   21329368.4054  112086626.780 8  87340229.94945
      1890.979        1473.490          50.000          38.000
  22777742.449    22777744.6194   22777750.1324  119697912.507 3  93271099.23541
      3034.900        2364.874          28.000           8.000
  21257891.936    21257891.4724   21257893.0814  111711023.051 8  87047560.83046
     -1751.707       -1364.968          51.000          41.000
  20706034.391    20706034.2574   20706035.1274  108810964.720 8  84787772.99346
       -34.503         -26.883          52.000          41.000
  20757332.849    20757332.9234   20757333.5384  109080552.304 8  84997832.04747
      1603.976        1249.851          51.000          45.000
  22069131.408    22069131.0084   22069133.4774  115974106.325 7  90369448.68245
     -1048.405        -816.940          47.000          35.000
  23941994.384    23941993.5534   23941995.0024  125816069.286 5  98038505.58741
     -3004.434       -2341.130          39.000          19.000
  22828392.564    22828392.3644   22828392.7944  119964045.289 6  93478498.36343
     -3289.706       -2563.400          43.000          27.000
  22869235.544    22869238.601    22869236.576   122463771.185 6  95249595.851 3
      1048.828         815.752          42.000          29.000
  20093873.029    20093873.872    20093872.624   107564126.510 8  83660992.472 6
      1899.590        1477.461          52.000          42.000
  41038188.784                                   215657159.541 4
          .000                          31.000
 05 10  2  1  8 30.0000000  0 13G 2G 4G 5G 7G 9G17G24G28G31R 4R 5R21
                                S22
  23558513.399    23558513.0064   23558513.0964  123800861.200 4  96468199.11241
      3768.516        2936.503          33.000          14.000
  21318624.058    21318623.9694   21318624.7324  112030169.523 8  87296237.29545
      1872.872        1459.379          50.000          38.000
  22760436.950    22760433.3984   22760437.9494  119606943.645 4  93200214.29441
      3029.682        2360.768          33.000           6.000
  21267917.204    21267916.7764   21267918.2504  111763706.432 8  87088612.80346
     -1760.507       -1371.823          52.000          40.000
  20706293.696    20706293.5794   20706294.6694  108812328.876 8  84788835.97646
       -56.427         -43.969          52.000          41.000
  20748213.106    20748213.1424   20748213.4534  109032628.603 7  84960488.91646
      1590.931        1239.687          49.000          43.000
  22075170.100    22075169.8314   22075171.8334  116005839.460 7  90394175.81244
     -1067.114        -831.518          49.000          34.000
  23959161.543    23959161.0354   23959161.1694  125906278.330 5  98108798.34342
     -3009.461       -2345.026          39.000          20.000
  22847186.226    22847186.8864   22847188.0694  120062811.717 6  93555459.18743
     -3294.695       -2567.294          42.000          27.000
  22863431.212    22863433.840    22863431.837   122432685.344 6  95225418.032 4
      1023.591         796.130          41.000          30.000
  23738265.116                                   126939163.000 4
      3566.366                          33.000
  20083269.135    20083270.619    20083269.781   107507365.068 8  83616844.687 6
      1884.525        1465.740          52.000          44.000
  41038201.907                                   215657270.076 4
          .000                          32.000
 05 10  2  1  9  0.0000000  0 13G 2G 4G 5G 7G 9G17G24G28G31R 4R 5R21
                                S22
  23537013.979    23537012.6224   23537011.7654  123687875.312 5  96380158.17741
      3763.885        2932.873          36.000          14.000
  21307984.113    21307984.1884   21307985.2264  111974257.008 8  87252669.13645
      1854.648        1445.183          51.000          39.000
  22743157.553    22743156.1484   22743157.3714  119516131.355 5  93129451.48441
      3024.427        2356.698          37.000          12.000
  21277992.986    21277991.9944   21277993.6114  111816653.326 7  87129870.12446
     -1769.272       -1378.653          49.000          40.000
  20706678.654    20706678.4804   20706679.2744  108814351.011 8  84790411.64246
       -78.376         -61.072          50.000          41.000
  20739168.005    20739167.9414   20739168.3124  108985096.628 8  84923451.01146
      1577.869        1229.507          51.000          44.000
  22081315.374    22081315.1184   22081316.8164  116038133.723 7  90419340.16144
     -1085.818        -846.092          49.000          34.000
  23976355.031    23976355.4084   23976356.7954  125996638.420 5  98179208.79141
     -3014.500       -2348.956          35.000          18.000
  22866009.252    22866008.8564   22866011.2804  120161726.864 6  93632535.89643
     -3299.638       -2571.153          43.000          26.000
  22857768.906    22857770.201    22857769.549   122402357.573 6  95201829.718 4
       998.246         776.416          43.000          31.000
  23718282.305    23718278.295    23718276.440   126832299.384 4  98647345.075 4
      3557.976        2767.315          33.000          32.000
  20072750.242    20072751.319    20072749.846   107451053.991 8  83573047.191 6
      1869.473        1454.034          53.000          42.000
  41038226.012                                   215657333.649 4
          .000                          32.000
 05 10  2  1  9 30.0000000  0 12G 2G 4G 5G 7G 9G17G24G28G31R 4R 5R21
  23515537.790    23515539.7984   23515537.1724  123575029.467 5  96292226.36941
      3759.185        2929.223          36.000          12.000
  21297448.335    21297448.3244   21297449.3394  111918891.575 8  87209527.24845
      1836.352        1430.924          52.000          38.000
  22725905.656    22725905.2814   22725907.1974  119425477.736 5  93058812.31041
      3019.133        2352.584          38.000          15.000
  21288118.166    21288117.5574   21288119.4764  111869862.638 8  87171331.91146
     -1777.998       -1385.448          52.000          40.000
  20707188.602    20707188.3574   20707189.5654  108817031.670 8  84792500.48346
      -100.325         -78.177          50.000          41.000
  20730197.922    20730197.9424   20730198.0014  108937956.978 8  84886718.83146
      1564.799        1219.323          51.000          44.000
  22087567.725    22087567.6484   22087568.6954  116070988.212 7  90444941.09145
     -1104.473        -860.630          48.000          35.000
  23993579.834    23993578.7414   23993579.4304  126087149.330 5  98249736.71741
     -3019.517       -2352.871          39.000          17.000
  22884860.339    22884859.7624   22884861.0644  120260789.318 6  93709727.46043
     -3304.508       -2574.935          41.000          25.000
  22852246.546    22852248.738    22852246.918   122372789.897 6  95178832.659 4
       972.945         756.744          43.000          31.000
  23698342.772    23698343.996    23698336.123   126725685.247 4  98564422.998 4
      3549.567        2760.773          34.000          30.000
  20062314.475    20062315.975    20062314.703   107395194.010 8  83529600.556 6
      1854.542        1442.416          52.000          43.000
 05 10  2  1 10  0.0000000  0 13G 2G 4G 5G 7G 9G17G24G28G31R 4R 5R21
                                S22
  23494094.439    23494092.1024   23494090.9824  123462326.243 4  96204405.82041
      3754.341        2925.448          34.000          14.000
  21287016.859    21287017.3334   21287018.0934  111864074.926 8  87166812.99345
      1818.044        1416.652          50.000          38.000
  22708685.429    22708684.8314   22708687.1904  119334984.028 5  92988297.73041
      3013.763        2348.373          37.000          16.000
  21298293.570    21298292.6754   21298294.4014  111923333.003 8  87212997.13346
     -1786.668       -1392.210          51.000          41.000
  20707824.322    20707824.1924   20707824.6694  108820370.973 8  84795102.51646
      -122.279         -95.283          52.000          41.000
  20721302.225    20721302.1774   20721302.4764  108891209.524 8  84850292.26047
      1551.725        1209.135          51.000          45.000
  22093925.500    22093925.6674   22093927.9354  116104401.714 7  90470977.56845
     -1123.084        -875.131          47.000          35.000
  24010831.750    24010831.1924   24010830.4974  126177809.579 5  98320381.03741
     -3024.484       -2356.729          38.000          16.000
  22903739.424    22903739.1154   22903740.2734  120359997.273 6  93787032.34743
     -3309.329       -2578.696          43.000          27.000
  22846866.743    22846869.158    22846867.914   122343984.430 6  95156428.413 4
       947.463         736.922          42.000          31.000
  23678450.200    23678453.115    23678448.374   126619325.610 5  98481698.852 4
      3541.042        2754.144          35.000          33.000
  20051964.180    20051965.112    20051964.479   107339785.891 8  83486505.352 6
      1839.426        1430.666          53.000          43.000
  41038236.484                                   215657497.224 4
          .000                          33.000
 05 10  2  1 10 30.0000000  0 13G 2G 4G 5G 7G 9G17G24G28G31R 4R 5R21
                                S22
  23472672.817    23472672.1174   23472670.7834  123349768.420 5  96116698.41241
      3749.476        2921.661          37.000          14.000
  21276690.395    21276690.5044   21276691.6294  111809809.003 8  87124527.87945
      1799.675        1402.341          51.000          38.000
  22691495.968    22691494.7374   22691497.3014  119244651.770 5  92917908.96041
      3008.356        2344.181          35.000          15.000
  21308517.947    21308517.2564   21308518.8114  111977063.029 8  87254864.68246
     -1795.307       -1398.938          52.000          41.000
  20708584.558    20708584.4674   20708585.5864  108824368.900 8  84798217.79946
      -144.234        -112.395          50.000          41.000
  20712481.043    20712481.1094   20712481.9334  108844855.420 8  84814172.18747
      1538.587        1198.900          50.000          45.000
  22100390.361    22100389.8214   22100392.1784  116138372.774 7  90497448.50844
     -1141.654        -889.601          48.000          34.000
  24028111.948    24028110.6494   24028111.9074  126268618.917 5  98391141.56841
     -3029.462       -2360.619          37.000          15.000
  22922646.007    22922645.4124   22922646.7634  120459348.595 6  93864448.92043
     -3314.075       -2582.388          43.000          26.000
  22841628.497    22841632.206    22841631.121   122315942.609 5  95134618.133 4
       921.960         717.089          38.000          30.000
  23658604.166    23658611.090    23658607.652   126513225.162 4  98399176.337 4
      3532.338        2747.368          34.000          31.000
  20041697.497    20041698.654    20041697.732   107284829.205 8  83443761.300 6
      1824.286        1418.889          53.000          43.000
  41038249.760                                   215657551.954 4
          .000                          32.000
 05 10  2  1 11  0.0000000  0 12G 2G 4G 5G 7G 9G17G24G28G31R 4R 5R21
  23451281.585    23451281.6244   23451279.4394  123237358.746 5  96029106.50341
      3744.477        2917.751          39.000          13.000
  21266468.926    21266469.3624   21266470.0514  111756095.853 8  87082673.49345
      1781.179        1387.933          50.000          38.000
  22674337.383    22674336.1944   22674338.1164  119154482.496 5  92847647.24041
      3002.919        2339.928          35.000          12.000
  21318791.570    21318790.8114   21318792.2244  112031051.332 8  87296933.48746
     -1803.902       -1405.638          50.000          41.000
  20709471.281    20709470.9064   20709472.0474  108829025.435 8  84801846.27046
      -166.202        -129.507          52.000          42.000
  20703734.728    20703734.9574   20703735.8694  108798894.583 8  84778358.56846
      1525.451        1188.663          51.000          44.000
  22106960.992    22106960.4724   22106961.8164  116172899.972 7  90524352.83844
     -1160.167        -904.033          48.000          34.000
  24045419.982    24045420.3804   24045420.9954  126359576.809 5  98462017.83441
     -3034.423       -2364.494          38.000          18.000
  22941579.119    22941578.3654   22941579.8914  120558841.656 6  93941975.98043
     -3318.776       -2586.075          43.000          27.000
  22836537.057    22836538.673    22836536.509   122288666.887 6  95113403.691 3
       896.414         697.209          41.000          29.000
  23638820.005    23638817.966    23638815.795   126407387.637 4  98316858.351 4
      3523.474        2740.477          32.000          31.000
  20031515.715    20031516.820    20031516.342   107230324.594 8  83401368.844 6
      1809.277        1407.209          53.000          43.000
 05 10  2  1 11 30.0000000  0 12G 2G 4G 5G 7G 9G17G24G28G31R 4R 5R21
  23429920.149    23429920.0614   23429917.7514  123125099.936 5  95941632.11441
      3739.408        2913.855          38.000          16.000
  21256353.508    21256353.6084   21256354.2894  111702937.327 8  87041251.27745
      1762.707        1373.539          52.000          39.000
  22657209.736    22657208.9324   22657210.6734  119064477.619 5  92777513.70641
      2997.389        2335.629          35.000           9.000
  21329114.152    21329113.4684   21329114.7744  112085296.710 8  87339202.59846
     -1812.452       -1412.298          52.000          40.000
  20710482.196    20710482.1704   20710483.1384  108834340.296 8  84805987.70746
      -188.130        -146.593          51.000          41.000
  20695064.096    20695063.8204   20695064.7124  108753327.398 8  84742851.67147
      1512.334        1178.442          51.000          45.000
  22113636.535    22113636.0564   22113637.9344  116207981.841 7  90551689.36445
     -1178.627        -918.411          48.000          35.000
  24062757.262    24062757.1784   24062758.2434  126450682.078 5  98533008.90541
     -3039.284       -2368.286          38.000          16.000
  22960537.476    22960537.9604   22960539.7574  120658474.489 6  94019611.95543
     -3323.397       -2589.661          42.000          26.000
  22831587.461    22831588.900    22831587.746   122262158.785 6  95092786.275 4
       870.791         677.280          43.000          30.000
  23619078.029    23619077.002    23619071.821   126301818.108 5  98234748.773 4
      3514.457        2733.465          35.000          31.000
  20021417.621    20021419.383    20021418.337   107176272.369 8  83359328.253 6
      1794.250        1395.530          52.000          43.000
 05 10  2  1 12  0.0000000  0 12G 2G 4G 5G 7G 9G17G24G28G31R 4R 5R21
  23408586.315    23408586.6224   23408586.9194  123012994.762 5  95854277.52241
      3734.235        2909.799          37.000          18.000
  21246343.208    21246343.7044   21246344.2844  111650335.302 8  87000262.69845
      1744.094        1359.034          51.000          38.000
  22640113.989    22640112.8084   22640112.7924  118974638.903 5  92707509.63041
      2991.822        2331.301          36.000           8.000
  21339485.421    21339484.5124   21339486.2094  112139797.787 8  87381670.96846
     -1820.957       -1418.928          52.000          40.000
  20711618.969    20711618.7124   20711619.9184  108840313.445 8  84810642.12046
      -210.090        -163.707          51.000          41.000
  20686467.644    20686467.6814   20686468.3084  108708154.630 8  84707652.13346
      1499.176        1168.188          51.000          44.000
  22120418.020    22120417.3194   22120419.3844  116243617.474 7  90579457.39545
     -1197.071        -932.783          49.000          35.000
  24080122.154    24080122.0014   24080122.8004  126541934.022 5  98604114.32241
     -3044.180       -2372.089          37.000          18.000
  22979522.863    22979523.0634   22979524.9894  120758245.475 6  94097355.55243
     -3328.001       -2593.243          41.000          25.000
  22826780.388    22826781.306    22826781.162   122236420.061 6  95072767.261 4
       845.080         657.287          41.000          32.000
  23599387.892    23599386.512    23599381.488   126196521.017 4  98152851.110 4
      3505.293        2726.343          34.000          32.000
  20011405.386    20011406.456    20011405.536   107122673.112 8  83317639.967 6
      1779.130        1383.763          53.000          43.000
 05 10  2  1 12 30.0000000  0 13G 2G 4G 5G 7G 9G17G24G28G31R 4R 5R21
                                S22
  23387282.923    23387283.4534   23387282.4144  122901046.073 4  95767044.81341
      3728.964        2905.695          33.000          16.000
  21236439.964    21236439.9524   21236441.0124  111598291.805 8  86959709.35645
      1725.464        1344.519          51.000          38.000
  22623049.809    22623049.1454   22623048.1704  118884967.896 5  92637636.11241
      2986.206        2326.908          39.000          10.000
  21349905.189    21349904.2904   21349906.0624  112194553.471 8  87424337.73646
     -1829.415       -1425.519          51.000          41.000
  20712881.172    20712880.6954   20712881.7554  108846945.105 8  84815809.63546
      -232.027        -180.801          50.000          41.000
  20677946.949    20677946.6524   20677947.0384  108663375.902 8  84672759.63646
      1486.053        1157.963          51.000          44.000
  22127304.153    22127303.7174   22127306.0664  116279805.306 7  90607655.70044
     -1215.462        -947.115          47.000          34.000
  24097515.038    24097514.8574   24097514.9764  126633332.342 5  98675333.74341
     -3049.052       -2375.875          37.000          18.000
  22998535.033    22998534.8354   22998536.5884  120858152.902 6  94175205.54143
     -3332.502       -2596.767          43.000          25.000
  22822117.149    22822121.226    22822117.875   122211452.345 6  95053347.966 4
       819.376         637.288          41.000          30.000
  23579746.703    23579746.510    23579740.528   126091500.827 5  98071168.790 4
      3496.013        2719.119          35.000          32.000
  20001477.023    20001478.235    20001476.936   107069526.248 8  83276303.548 6
      1763.962        1371.970          52.000          43.000
  41038313.566                                   215657793.999 4
          .000                          32.000
 05 10  2  1 13  0.0000000  0 12G 2G 4G 5G 7G 9G17G24G28G31R 4R 5R21
  23366009.888    23366010.8534   23366007.8434  122789256.183 5  95679935.81941
      3723.632        2901.522          35.000          14.000
  21226642.849    21226642.7724   21226643.7354  111546808.473 8  86919592.47845
      1706.755        1329.938          50.000          38.000
  22606018.338    22606017.8854   22606017.6104  118795465.984 5  92567894.33341
      2980.546        2322.535          38.000          15.000
  21360372.731    21360372.1894   21360373.9384  112249562.031 8  87467201.53946
     -1837.817       -1432.064          51.000          41.000
  20714268.395    20714268.3454   20714269.2034  108854234.755 8  84821489.88246
      -253.950        -197.883          52.000          42.000
  20669500.582    20669500.6444   20669500.9664  108618991.525 8  84638174.40046
      1472.908        1147.720          52.000          44.000
  22134294.984    22134294.6604   22134297.0154  116316544.206 7  90636283.39544
     -1233.794        -961.398          47.000          34.000
  24114933.581    24114933.6784   24114934.3354  126724875.999 5  98746666.42741
     -3053.884       -2379.655          36.000          16.000
  23017572.878    23017572.9434   23017574.2804  120958194.657 6  94253160.13143
     -3336.942       -2600.208          43.000          27.000
  22817600.407    22817601.509    22817599.905   122187257.235 6  95034529.525 4
       793.593         617.227          42.000          30.000
  23560158.629    23560159.473    23560156.428   125986762.367 4  97989705.615 4
      3486.554        2711.758          34.000          31.000
  19991633.765    19991634.613    19991633.434   107016832.231 8  83235319.324 6
      1748.908        1360.257          54.000          43.000
 05 10  2  1 13 30.0000000  0 13G 2G 4G 5G 7G 9G17G24G28G31R 4R 5R21
                                S22
  23344770.493    23344769.8004   23344766.3844  122677628.468 5  95592953.25541
      3718.192        2897.286          36.000          16.000
  21216952.903    21216953.0004   21216953.8364  111495887.256 8  86879913.63045
      1687.968        1315.298          51.000          39.000
  22589018.342    22589018.5544   22589019.2124  118706134.927 5  92498285.63141
      2974.828        2318.043          37.000          16.000
  21370888.442    21370887.6904   21370889.6854  112304822.524 8  87510261.67246
     -1846.203       -1438.600          52.000          40.000
  20715780.501    20715780.4504   20715781.7584  108862182.373 8  84827682.85346
      -275.895        -214.980          51.000          41.000
  20661129.493    20661129.6494   20661130.2054  108575002.378 8  84603897.15446
      1459.720        1137.444          51.000          44.000
  22141391.433    22141390.8274   22141392.6334  116353832.648 7  90665339.32445
     -1252.089        -975.654          49.000          35.000
  24132381.763    24132381.4944   24132382.0774  126816564.289 5  98818111.85641
     -3058.697       -2383.383          38.000          15.000
  23036634.991    23036635.5694   23036635.7714  121058369.212 6  94331218.19442
     -3341.357       -2603.658          42.000          24.000
  22813225.153    22813228.776    22813225.321   122163836.673 6  95016313.552 4
       767.790         597.170          41.000          30.000
  23540623.909    23540627.964    23540621.977   125882309.564 4  97908464.638 3
      3476.961        2704.303          34.000          29.000
  19981874.260    19981875.665    19981874.318   106964590.997 8  83194687.284 6
      1733.788        1348.500          53.000          43.000
  41038320.217                                   215657952.958 4
          .000                          31.000
 05 10  2  1 14  0.0000000  0 12G 2G 4G 5G 7G 9G17G24G28G31R 4R 5R21
  23323556.590    23323557.1634   23323556.8474  122566165.496 4  95506099.03141
      3712.685        2893.008          30.000          16.000
  21207370.054    21207370.1424   21207371.0884  111445529.901 8  86840674.14845
      1669.159        1300.643          51.000          39.000
  22572052.149    22572051.2484   22572052.3484  118616975.952 5  92428811.12041
      2969.074        2313.582          37.000          16.000
  21381451.705    21381450.8164   21381452.8024  112360333.350 8  87553516.85946
     -1854.526       -1445.086          50.000          40.000
  20717418.443    20717417.9614   20717418.7274  108870787.710 8  84834388.30546
      -297.813        -232.061          53.000          41.000
  20652834.207    20652834.2794   20652834.6774  108531408.671 8  84569928.05247
      1446.520        1127.157          53.000          45.000
  22148591.664    22148591.3184   22148592.7254  116391669.009 7  90694822.21745
     -1270.331        -989.869          48.000          35.000
  24149857.329    24149856.4164   24149857.2324  126908396.308 5  98889669.25541
     -3063.480       -2387.113          35.000          14.000
  23055723.652    23055723.0704   23055723.1754  121158674.600 6  94409378.24143
     -3345.669       -2607.021          43.000          26.000
  22808998.399    22808998.261    22808997.905   122141192.220 6  94998701.177 4
       741.871         577.008          42.000          32.000
  23521147.423    23521148.189    23521144.487   125778146.996 4  97827449.363 4
      3467.226        2696.731          34.000          31.000
  19972199.849    19972201.087    19972200.082   106912803.357 8  83154408.007 6
      1718.674        1336.750          53.000          43.000
 05 10  2  1 14 30.0000000  0 13G 2G 4G 5G 7G 9G17G24G28G31R 4R 5R21
                                S22
  23302377.979    23302377.9194   23302378.5134  122454870.099 5  95419375.34041
      3707.017        2888.592          37.000          16.000
  21197895.374    21197895.3214   21197896.1094  111395738.287 8  86801875.49645
      1650.304        1285.957          52.000          39.000
  22555118.464    22555118.1744   22555118.9364  118527990.931 5  92359472.11741
      2963.260        2309.037          35.000          16.000
  21392062.690    21392061.8744   21392063.8124  112416093.396 8  87596966.24246
     -1862.811       -1451.541          52.000          40.000
  20719180.734    20719180.6554   20719181.5164  108880050.885 8  84841606.35546
      -319.736        -249.144          51.000          40.000
  20644613.469    20644613.7844   20644614.6554  108488210.661 8  84536267.27947
      1433.337        1116.886          51.000          45.000
  22155895.394    22155895.0194   22155896.6474  116430052.302 7  90724731.28744
     -1288.544       -1004.064          48.000          34.000
  24167359.642    24167358.9504   24167360.2414  127000371.776 5  98961338.38141
     -3068.231       -2390.829          37.000          17.000
  23074834.770    23074834.4874   23074835.6694  121259109.302 6  94487639.01643
     -3349.927       -2610.342          42.000          25.000
  22804914.856    22804915.797    22804914.029   122119325.407 6  94981693.693 4
       715.914         556.826          42.000          31.000
  23501725.056    23501723.757    23501719.113   125674279.317 4  97746663.401 4
      3457.239        2688.965          34.000          31.000
  19962609.715    19962611.084    19962610.518   106861468.596 8  83114480.994 6
      1703.572        1325.000          53.000          44.000
  41038345.088                                   215658042.782 4
          .000                          32.000
 05 10  2  1 15  0.0000000  0 14G 2G 4G 5G 7G 9G17G20G24G28G31R 4R 5
                                R21S22
  23281233.698    23281232.3214   23281232.7694  122343744.540 5  95332784.07942
      3701.334        2884.162          38.000          20.000
  21188528.136    21188528.1994   21188529.4094  111346513.878 8  86763518.83045
      1631.353        1271.186          51.000          39.000
  22538220.186    22538218.9744   22538219.4914  118439181.258 5  92290269.85041
      2957.374        2304.447          38.000          18.000
  21402720.742    21402719.7794   21402721.7074  112472101.462 8  87640608.89246
     -1871.050       -1457.962          50.000          40.000
  20721068.578    20721068.3174   20721069.2744  108889971.380 8  84849336.61746
      -341.635        -266.208          51.000          40.000
  20636468.622    20636468.6554   20636469.4414  108445408.344 8  84502914.84047
      1420.148        1106.607          51.000          45.000
  24829337.057                                   130479065.786 4
       870.848                          34.000
  22163302.546    22163302.2244   22163304.5214  116468980.888 7  90755065.23544
     -1306.693       -1018.204          48.000          34.000
  24184890.891    24184888.7384   24184889.1884  127092489.588 5  99033118.54641
     -3072.967       -2394.510          37.000          15.000
  23093971.890    23093971.8174   23093971.5434  121359671.582 6  94565999.25043
     -3354.186       -2613.650          44.000          25.000
  22800976.718    22800976.662    22800976.270   122098237.899 6  94965292.257 4
       689.940         536.622          41.000          31.000
  23482357.019    23482358.305    23482354.515   125570711.557 5  97666110.794 4
      3447.224        2681.167          35.000          32.000
  19953104.800    19953106.052    19953105.569   106810588.239 8  83074907.375 6
      1688.606        1313.365          53.000          44.000
  41038360.943                                   215658096.193 4
          .000                          31.000
 05 10  2  1 15 30.0000000  0 13G 2G 4G 5G 7G 9G17G20G24G28G31R 4R 5
                                R21
  23260119.250    23260119.2634   23260119.3174  122232791.998 5  95246327.60042
      3695.501        2879.599          39.000          22.000
  21179269.699    21179269.5864   21179270.4704  111297858.648 8  86725605.68546
      1612.349        1256.373          51.000          40.000
  22521353.788    22521353.2964   22521353.5394  118350548.520 6  92221205.40642
      2951.451        2299.846          40.000          20.000
  21413425.769    21413424.7834   21413426.5434  112528355.927 8  87684443.53846
     -1879.259       -1464.358          51.000          40.000
  20723081.529    20723081.2264   20723082.2174  108900548.970 8  84857578.88046
      -363.534        -283.272          51.000          40.000
  20628399.236    20628399.2234   20628399.2274  108403001.931 8  84469870.90347
      1406.933        1096.312          52.000          45.000
  24824414.239                                   130453197.273 4
       853.701                          31.000
  22170814.634    22170814.0674   22170815.5264  116508453.304 7  90785822.96544
     -1324.798       -1032.311          48.000          34.000
  24202446.524    24202446.2374   24202445.6364  127184749.151 5  99105009.05641
     -3077.661       -2398.190          38.000          17.000
  23113130.863    23113131.1054   23113131.8454  121460359.711 6  94644457.49342
     -3358.363       -2616.907          40.000          24.000
  22797185.228    22797185.419    22797183.423   122077930.971 6  94949498.047 3
       663.850         516.319          43.000          29.000
  23463047.987    23463045.253    23463040.316   125467447.691 4  97585794.520 4
      3437.010        2673.238          34.000          31.000
  19943685.394    19943686.176    19943685.363   106760161.353 8  83035686.480 6
      1673.476        1301.584          53.000          43.000
 05 10  2  1 16  0.0000000  0 13G 2G 4G 5G 7G 9G17G20G24G28G31R 4R 5
                                R21
  23239039.046    23239038.6914   23239039.2524  122122015.254 5  95160008.08542
      3689.604        2875.011          37.000          21.000
  21170119.133    21170119.4954   21170120.1114  111249774.258 8  86688137.34045
      1593.280        1241.515          51.000          39.000
  22504521.437    22504521.1854   22504522.3854  118262094.424 6  92152280.13442
      2945.481        2295.190          41.000          20.000
  21424177.328    21424176.5514   21424178.0524  112584855.755 8  87728469.37146
     -1887.378       -1470.684          50.000          40.000
  20725219.768    20725219.3304   20725220.1484  108911783.232 8  84866332.84946
      -385.413        -300.324          51.000          41.000
  20620404.999    20620404.8834   20620405.0314  108360992.390 8  84437136.21646
      1393.705        1086.004          52.000          44.000
  24819589.637                                   130427843.425 4
       836.556                          32.000
  22178428.845    22178428.7324   22178430.7374  116548468.124 7  90817003.34545
     -1342.843       -1046.372          48.000          35.000
  24220029.341    24220029.8454   24220030.1574  127277149.456 5  99177009.26941
     -3082.346       -2401.835          37.000          16.000
  23132315.622    23132314.4484   23132316.5294  121561171.840 6  94723012.42042
     -3362.453       -2620.102          42.000          24.000
  22793539.134    22793539.690    22793537.274   122058405.896 6  94934311.938 3
       637.774         496.042          42.000          29.000
  23443793.410    23443793.042    23443788.707   125364492.717 4  97505718.450 4
      3426.648        2665.171          32.000          32.000
  19934349.640    19934350.711    19934350.070   106710187.868 8  82996818.215 6
      1658.167        1289.680          53.000          44.000
 05 10  2  1 16 30.0000000  0 14G 2G 4G 5G 7G 9G17G20G24G28G31R 4R 5
                                R21S22
  23217992.230    23217992.5304   23217992.2074  122011416.912 5  95073827.61042
      3683.600        2870.334          36.000          20.000
  21161078.027    21161078.2614   21161078.9204  111202262.450 8  86651115.16145
      1574.175        1226.633          52.000          39.000
  22487723.174    22487722.9654   22487724.6124  118173820.540 5  92083495.29242
      2939.425        2290.466          37.000          20.000
  21434974.940    21434974.4934   21434975.8504  112641599.528 8  87772685.29045
     -1895.509       -1477.022          51.000          39.000
  20727482.035    20727481.8654   20727482.7644  108923674.007 8  84875598.37946
      -407.289        -317.367          51.000          40.000
  20612486.415    20612486.4554   20612486.6204  108319379.757 8  84404710.78947
      1380.478        1075.695          52.000          45.000
  24814863.280                                   130403005.457 4
       819.344                          30.000
  22186146.243    22186145.9564   22186148.7154  116589023.477 7  90848604.90944
     -1360.828       -1060.384          47.000          34.000
  24237639.166    24237639.4704   24237639.9484  127369690.326 5  99249119.00141
     -3087.027       -2405.490          37.000          14.000
  23151522.528    23151521.9114   23151523.5964  121662106.332 6  94801662.69042
     -3366.487       -2623.243          41.000          24.000
  22790036.868    22790039.153    22790038.312   122039664.466 6  94919735.261 4
       611.641         475.722          41.000          30.000
  23424597.311    23424598.917    23424591.977   125261850.688 4  97425885.788 4
      3416.174        2657.030          33.000          32.000
  19925098.541    19925099.915    19925099.709   106660669.403 8  82958303.871 6
      1643.018        1277.899          52.000          44.000
  41038403.239                                   215658312.579 4
          .000                          32.000
 05 10  2  1 17  0.0000000  0 14G 2G 4G 5G 7G 9G17G20G24G28G31R 4R 5
                                R21S22
  23196982.040    23196980.4964   23196979.0834  121900999.907 5  94987788.38841
      3677.510        2865.595          36.000          17.000
  21152146.030    21152146.1564   21152146.9354  111155324.755 7  86614540.35445
      1555.025        1211.705          49.000          39.000
  22470957.964    22470957.8984   22470961.3654  118085728.403 4  92014852.11041
      2933.324        2285.699          34.000          17.000
  21445819.449    21445818.7064   21445820.0874  112698586.010 8  87817090.33846
     -1903.591       -1483.316          50.000          40.000
  20729869.811    20729869.5484   20729870.7484  108936220.967 8  84885375.23246
      -429.168        -334.416          51.000          41.000
  20604643.068    20604643.2674   20604643.7234  108278163.603 8  84372594.32847
      1367.262        1065.401          50.000          45.000
  24810235.527                                   130378685.029 4
       802.039                          31.000
  22193966.447    22193965.8324   22193968.3614  116630117.854 7  90880626.50744
     -1378.787       -1074.382          48.000          34.000
  24255275.178    24255275.8554   24255275.5804  127462370.549 5  99321337.31541
     -3091.652       -2409.092          38.000          16.000
  23170753.126    23170752.5704   23170753.2694  121763161.412 6  94880406.90143
     -3370.491       -2626.350          40.000          25.000
  22786683.741    22786686.289    22786684.210   122021707.892 6  94905769.114 4
       585.451         455.346          43.000          30.000
  23405460.962    23405463.404    23405457.263   125159526.353 4  97346300.260 4
      3405.486        2648.712          34.000          32.000
  19915933.519    19915934.135    19915934.236   106611604.307 8  82920142.144 6
      1627.896        1266.140          53.000          44.000
  41038406.271                                   215658372.415 4
          .000                          32.000
 05 10  2  1 17 30.0000000  0 14G 2G 4G 5G 7G 9G17G20G24G28G31R 4R 5
                                R21S22
  23176004.878    23176004.6224   23176002.8474  121790766.797 5  94901892.39441
      3671.345        2860.789          39.000          15.000
  21143323.725    21143323.9004   21143324.5934  111108962.950 8  86578414.29446
      1535.777        1196.709          51.000          40.000
  22454231.296    22454229.5044   22454232.5864  117997819.598 5  91946351.81341
      2927.211        2280.960          35.000          17.000
  21456709.247    21456708.6854   21456710.6134  112755813.869 8  87861683.47645
     -1911.604       -1489.561          50.000          39.000
  20732382.126    20732382.0954   20732383.1344  108949423.715 8  84895663.08046
      -451.008        -351.434          52.000          40.000
  20596875.329    20596875.3284   20596875.7954  108237344.985 8  84340787.62446
      1353.996        1055.060          50.000          44.000
  24805707.574                                   130354883.522 3
       784.707                          29.000
  22201888.504    22201888.3474   22201890.3464  116671749.942 7  90913067.07644
     -1396.671       -1088.316          47.000          34.000
  24272938.558    24272938.6394   24272938.4954  127555189.363 5  99393663.69541
     -3096.259       -2412.656          37.000          15.000
  23190005.107    23190005.0674   23190006.3134  121864335.304 5  94959243.69843
     -3374.419       -2629.424          39.000          25.000
  22783477.517    22783480.070    22783478.935   122004537.572 6  94892414.387 4
       559.191         434.931          42.000          32.000
  23386387.406    23386384.589    23386383.135   125057523.778 4  97266964.937 4
      3394.676        2640.302          33.000          33.000
  19906852.396    19906853.540    19906852.942   106562994.342 8  82882334.410 6
      1612.718        1254.338          53.000          43.000
  41038421.573                                   215658381.780 4
          .000                          31.000
 05 10  2  1 18  0.0000000  0 13G 2G 4G 5G 7G 9G17G20G24G28G31R 4R 5
                                R21
  23155063.987    23155063.4294   23155061.4334  121680720.285 5  94816141.96241
      3665.059        2855.885          38.000          16.000
  21134610.992    21134611.2794   21134612.2404  111063178.637 8  86542738.20645
      1516.523        1181.705          50.000          39.000
  22437537.817    22437535.9454   22437538.5864  117910095.603 5  91877995.55041
      2921.046        2276.142          36.000          16.000
  21467645.131    21467644.4304   21467646.3734  112813281.766 8  87906463.65845
     -1919.595       -1495.787          51.000          39.000
  20735019.215    20735018.8854   20735019.8714  108963281.577 8  84906461.40946
      -472.844        -368.450          52.000          40.000
  20589183.664    20589183.5804   20589183.9584  108196923.767 8  84309290.57147
      1340.739        1044.733          53.000          45.000
  24801274.682                                   130331602.445 4
       767.355                          30.000
  22209912.938    22209912.7204   22209913.7554  116713918.136 7  90945925.43644
     -1414.521       -1102.225          47.000          33.000
  24290626.458    24290625.6434   24290627.6924  127648146.037 4  99466097.42041
     -3100.841       -2416.234          30.000          14.000
  23209281.417    23209280.3474   23209281.4064  121965626.260 6  95038171.73942
     -3378.304       -2632.443          42.000          24.000
  22780418.745    22780420.831    22780419.239   121988154.626 6  94879672.136 4
       532.935         414.499          41.000          31.000
  23367373.321    23367373.437    23367369.485   124955847.927 4  97187883.810 4
      3383.731        2631.789          34.000          33.000
  19897856.574    19897857.574    19897856.756   106514838.526 8  82844879.873 6
      1597.625        1242.597          53.000          43.000
 05 10  2  1 18 30.0000000  0 13G 2G 4G 5G 7G 9G17G20G24G28G31R 4R 5
                                R21
  23134157.658    23134157.8994   23134156.4894  121570863.024 6  94730539.00141
      3658.719        2850.937          40.000          17.000
  21126008.870    21126008.9094   21126009.6974  111017973.355 8  86507513.33745
      1497.180        1166.628          50.000          39.000
  22420880.708    22420879.5344   22420880.8214  117822558.312 5  91809784.66241
      2914.759        2271.229          37.000          17.000
  21478626.597    21478625.7644   21478627.4664  112870988.461 8  87951429.90845
     -1927.526       -1501.969          50.000          39.000
  20737780.974    20737780.6604   20737781.3914  108977794.285 8  84917770.01646
      -494.676        -385.460          51.000          41.000
  20581567.349    20581567.2034   20581567.8044  108156900.098 8  84278103.32947
      1327.499        1034.414          51.000          46.000
  24796945.930                                   130308843.044 3
       749.925                          28.000
  22218038.914    22218038.9004   22218040.8064  116756620.954 7  90979200.36044
     -1432.334       -1116.105          47.000          34.000
  24308342.899    24308341.3714   24308343.1824  127741239.826 5  99538637.96741
     -3105.419       -2419.794          37.000          15.000
  23228576.176    23228577.6224   23228578.6114  122067032.786 6  95117189.74943
     -3382.138       -2635.446          41.000          25.000
  22777508.089    22777507.784    22777506.907   121972560.127 6  94867543.017 4
       506.680         394.090          41.000          31.000
  23348422.688    23348421.553    23348416.255   124854503.432 5  97109060.360 4
      3372.615        2623.137          35.000          31.000
  19888945.808    19888946.663    19888945.808   106467137.067 8  82807778.745 6
      1582.419        1230.769          53.000          44.000
 05 10  2  1 19  0.0000000  0 14G 2G 4G 5G 7G 9G17G20G24G28G31R 4R 5
                                R21S22
  23113290.317    23113289.9464   23113287.6884  121461198.103 6  94645085.92541
      3652.254        2845.922          41.000          19.000
  21117516.905    21117517.1884   21117517.8634  110973348.836 8  86472740.99646
      1477.776        1151.512          51.000          40.000
  22404256.471    22404257.2354   22404259.5704  117735209.158 5  91741720.41941
      2908.498        2266.348          35.000          18.000
  21489652.935    21489652.1624   21489653.8124  112928932.718 8  87996581.27445
     -1935.413       -1508.115          51.000          39.000
  20740667.083    20740666.7714   20740667.7324  108992961.618 8  84929588.71646
      -516.478        -402.452          51.000          40.000
  20574026.626    20574026.7234   20574027.3174  108117274.350 8  84247226.12747
      1314.222        1024.069          52.000          45.000
  24792713.363                                   130286606.686 4
       732.448                          30.000
  22226266.655    22226266.1204   22226268.8334  116799856.879 7  91012890.67344
     -1450.060       -1129.915          47.000          34.000
  24326083.377    24326082.9734   24326085.6954  127834470.268 5  99611284.97241
     -3109.933       -2423.336          36.000          16.000
  23247895.643    23247895.4134   23247897.1004  122168553.096 6  95196296.53742
     -3385.894       -2638.355          41.000          23.000
  22774741.439    22774744.050    22774741.553   121957755.322 6  94856028.218 4
       480.300         373.566          41.000          31.000
  23329531.431    23329532.076    23329526.588   124753494.441 5  97030497.865 4
      3361.307        2614.351          35.000          31.000
  19880119.196    19880120.668    19880119.480   106419889.611 8  82771030.736 6
      1567.235        1218.959          53.000          44.000
  41038455.550                                   215658618.643 4
          .000                          31.000
 05 10  2  1 19 30.0000000  0 14G 2G 4G 5G 7G 9G17G20G24G28G31R 4R 5
                                R21S22
  23092457.897    23092457.9304   23092455.8634  121351728.317 6  94559784.86841
      3645.699        2840.813          40.000          17.000
  21109136.078    21109136.1234   21109137.0714  110929306.497 8  86438422.29846
      1458.310        1136.345          51.000          40.000
  22387670.667    22387669.6994   22387673.3164  117648049.828 4  91673804.11041
      2902.121        2261.382          33.000          17.000
  21500724.067    21500723.6224   21500725.0214  112987113.339 8  88041916.81245
     -1943.286       -1514.248          51.000          39.000
  20743677.799    20743677.7104   20743678.5424  109008782.979 8  84941917.04846
      -538.279        -419.438          52.000          41.000
  20566562.220    20566562.0524   20566562.6084  108078046.909 8  84216659.30047
      1300.950        1013.727          53.000          45.000
  24788584.701                                   130264894.397 4
       714.995                          30.000
  22234595.373    22234595.0444   22234597.3314  116843624.193 7  91046995.06944
     -1467.753       -1143.701          48.000          34.000
  24343851.217    24343849.8734   24343850.8484  127927836.205 5  99684037.69241
     -3114.430       -2426.820          38.000          14.000
  23267236.879    23267235.7574   23267236.7334  122270185.520 6  95275490.62542
     -3389.601       -2641.257          40.000          23.000
  22772125.740    22772125.987    22772123.577   121943741.956 6  94845128.974 3
       453.887         353.016          43.000          28.000
  23310705.564    23310707.238    23310702.131   124652825.373 5  96952199.731 4
      3349.918        2605.489          36.000          32.000
  19871378.150    19871379.069    19871379.043   106373097.480 8  82734636.867 6
      1552.181        1207.249          53.000          44.000
  41038474.387                                   215658680.120 4
          .000                          31.000
 05 10  2  1 20  0.0000000  0 13G 2G 4G 5G 7G 9G17G24G28G31R 4R 5R21
                                S22
  23071665.031    23071663.8444   23071663.6334  121242456.245 5  94474637.78641
      3639.084        2835.656          39.000          15.000
  21100865.917    21100866.1604   21100867.1624  110885847.772 8  86404558.37046
      1438.869        1121.194          52.000          40.000
  22371121.538    22371120.3344   22371123.7754  117561081.903 5  91606036.90141
      2895.736        2256.417          38.000          19.000
  21511839.983    21511839.2754   21511841.1234  113045528.869 7  88087435.41245
     -1951.089       -1520.329          49.000          39.000
  20746812.652    20746812.6434   20746813.3694  109025257.897 8  84954754.65746
      -560.039        -436.395          50.000          40.000
  20559173.163    20559173.1214   20559173.6804  108039217.931 8  84186402.96647
      1287.659        1003.370          52.000          45.000
  22243024.686    22243024.8324   22243027.0274  116887921.391 7  91081512.36344
     -1485.387       -1157.438          49.000          34.000
  24361643.421    24361643.0994   24361643.2644  128021337.014 5  99756895.41141
     -3118.930       -2430.345          36.000          15.000
  23286598.574    23286597.0814   23286598.2444  122371928.460 6  95354770.79943
     -3393.250       -2644.088          41.000          25.000
  22769657.830    22769658.261    22769655.206   121930520.809 6  94834845.914 3
       427.518         332.516          41.000          29.000
  23291944.569    23291946.754    23291940.952   124552500.332 5  96874169.218 4
      3338.419        2596.546          37.000          32.000
  19862722.387    19862723.115    19862722.327   106326759.852 8  82698596.508 6
      1537.010        1195.451          53.000          44.000
  41038482.321                                   215658710.499 4
          .000                          32.000
 05 10  2  1 20 30.0000000  0 13G 2G 4G 5G 7G 9G17G24G28G31R 4R 5R21
                                S22
  23050908.431    23050908.1054   23050907.3364  121133384.676 5  94389646.93441
      3632.364        2830.425          35.000          13.000
  21092707.595    21092707.5524   21092708.2534  110842974.356 8  86371150.52846
      1419.311        1105.957          52.000          40.000
  22354609.467    22354608.5824   22354610.8554  117474307.003 6  91538420.12242
      2889.255        2251.369          41.000          23.000
  21523000.780    21522999.6284   21523001.6274  113104178.057 8  88133136.08545
     -1958.857       -1526.381          50.000          39.000
  20750072.067    20750071.9544   20750072.5894  109042385.545 8  84968100.87846
      -581.810        -453.359          52.000          41.000
  20551860.241    20551860.1294   20551860.5124  108000787.001 8  84156456.79847
      1274.383         993.028          52.000          45.000
  22251554.681    22251554.5174   22251556.1974  116932746.668 7  91116441.16444
     -1502.959       -1171.139          49.000          33.000
  24379461.497    24379461.4854   24379461.9764  128114971.867 5  99829857.62841
     -3123.374       -2433.794          37.000          16.000
  23305978.903    23305979.6774   23305980.3814  122473780.097 6  95434135.72643
     -3396.852       -2646.901          40.000          25.000
  22767333.486    22767336.372    22767335.382   121918092.778 6  94825179.638 4
       401.090         311.958          42.000          31.000
  23273246.424    23273250.499    23273243.005   124452525.017 4  96796410.688 4
      3326.684        2587.416          34.000          32.000
  19854150.154    19854151.527    19854150.937   106280877.090 8  82662909.928 6
      1521.744        1183.577          53.000          43.000
  41038498.765                                   215658816.602 4
          .000                          32.000
 05 10  2  1 21  0.0000000  0 13G 2G 4G 5G 7G 9G17G24G28G31R 4R 5R21
                                S22
  23030190.271    23030190.2834   23030192.2774  121024516.614 5  94304814.66841
      3625.539        2825.085          35.000          13.000
  21084660.567    21084660.7884   21084661.1534  110800687.770 8  86338199.94346
      1399.792        1090.747          50.000          40.000
  22338133.331    22338132.9354   22338135.2764  117387726.874 6  91470955.09242
      2882.744        2246.303          42.000          24.000
  21534205.626    21534204.9464   21534206.3164  113163059.673 8  88179017.85645
     -1966.569       -1532.392          51.000          39.000
  20753455.546    20753455.2604   20753456.3594  109060165.593 8  84981955.47246
      -603.528        -470.281          51.000          40.000
  20544622.728    20544622.8154   20544623.2114  107962754.777 8  84126821.30947
      1261.116         982.688          51.000          46.000
  22260184.774    22260184.3884   22260185.7704  116978098.225 7  91151780.03344
     -1520.456       -1184.769          47.000          33.000
  24397304.855    24397304.9684   24397305.9214  128208739.854 5  99902923.53841
     -3127.815       -2437.260          37.000          16.000
  23325379.990    23325380.8474   23325381.1984  122575738.950 6  95513584.17042
     -3400.378       -2649.651          40.000          21.000
  22765163.368    22765164.534    22765163.773   121906459.064 6  94816131.177 4
       374.528         291.296          41.000          31.000
  23254619.817    23254619.204    23254616.025   124352903.265 5  96718927.116 4
      3314.798        2578.170          35.000          34.000
  19845664.518    19845665.482    19845664.872   106235448.585 8  82627576.651 6
      1506.691        1171.870          54.000          44.000
  41038511.422                                   215658873.389 4
          .000                          32.000
 05 10  2  1 21 30.0000000  0 12G 2G 4G 5G 7G 9G17G24G28G31R 4R 5R21
  23009514.551    23009513.6234   23009513.3564  120915854.456 5  94220142.99841
      3618.633        2819.719          35.000          16.000
  21076725.764    21076725.7994   21076726.3614  110758989.310 8  86305707.65346
      1380.155        1075.444          52.000          40.000
  22321695.144    22321694.2574   22321696.8934  117301342.973 6  91403642.87342
      2876.200        2241.202          41.000          23.000
  21545454.291    21545453.8394   21545455.1444  113222172.420 7  88225079.72945
     -1974.221       -1538.353          49.000          39.000
  20756963.297    20756963.0514   20756963.8244  109078597.468 8  84996317.97146
      -625.227        -487.191          51.000          41.000
  20537461.348    20537461.5344   20537461.7684  107925121.521 8  84097496.71247
      1247.809         972.319          53.000          45.000
  22268915.181    22268914.8114   22268916.5774  117023974.562 7  91187527.82745
     -1537.936       -1198.391          49.000          35.000
  24415173.851    24415173.2154   24415174.0564  128302640.359 5  99976092.66641
     -3132.203       -2440.669          36.000          14.000
  23344803.317    23344802.8864   23344803.6664  122677803.265 5  95593114.83042
     -3403.867       -2652.359          39.000          21.000
  22763140.596    22763139.822    22763137.981   121895620.241 6  94807701.027 3
       347.979         270.640          42.000          29.000
  23236054.871    23236055.854    23236051.722   124253639.297 5  96641721.837 4
      3302.764        2568.807          35.000          33.000
  19837262.620    19837263.833    19837263.257   106190475.338 8  82592597.455 6
      1491.594        1160.123          54.000          44.000
 05 10  2  1 22  0.0000000  0 13G 2G 4G 5G 7G 9G17G24G28G31R 4R 5R21
                                S22
  22988877.664    22988877.6764   22988874.8484  120807401.119 5  94135633.95341
      3611.612        2814.257          37.000          17.000
  21068902.863    21068903.1374   21068903.8044  110717880.430 8  86273674.77146
      1360.480        1060.115          51.000          40.000
  22305294.409    22305293.6114   22305296.1734  117215157.032 6  91336484.98943
      2869.554        2236.020          42.000          26.000
  21556746.978    21556746.1954   21556747.6434  113281515.026 8  88271320.72345
     -1981.884       -1544.325          50.000          39.000
  20760594.151    20760594.0014   20760595.4294  109097680.263 8  85011187.69846
      -646.922        -504.097          51.000          40.000
  20530375.788    20530375.8824   20530376.3434  107887887.565 8  84068483.25047
      1234.504         961.950          51.000          46.000
  22277744.534    22277744.5824   22277746.4594  117070374.195 7  91223683.38344
     -1555.340       -1211.956          47.000          34.000
  24433066.475    24433067.2604   24433067.5204  128396672.638 5 100049364.57841
     -3136.588       -2444.100          36.000          14.000
  23364245.939    23364244.9354   23364246.5914  122779971.251 6  95672726.21442
     -3407.300       -2655.042          41.000          24.000
  22761262.510    22761266.092    22761262.499   121885577.852 6  94799890.304 4
       321.512         250.071          42.000          31.000
  23217562.312    23217562.163    23217555.432   124154738.293 5  96564798.884 4
      3290.587        2559.338          37.000          33.000
  19828946.831    19828947.875    19828946.656   106145957.327 8  82557972.352 6
      1476.343        1148.271          53.000          44.000
  41038541.830                                   215658992.963 4
          .000                          32.000
 05 10  2  1 22 30.0000000  0 13G 2G 4G 5G 7G 9G17G24G28G31R 4R 5R21
                                S22
  22968277.715    22968279.0554   22968277.7424  120699159.259 5  94051289.71841
      3604.497        2808.673          35.000          16.000
  21061192.635    21061192.9864   21061193.7234  110677362.587 8  86242102.43546
      1340.725        1044.719          52.000          40.000
  22288932.287    22288931.6624   22288932.7734  117129170.632 6  91269482.62143
      2862.859        2230.799          44.000          27.000
  21568083.094    21568082.2454   21568083.7874  113341086.134 8  88317739.76545
     -1989.489       -1550.250          51.000          38.000
  20764349.590    20764349.2504   20764350.3244  109117413.604 8  85026564.33046
      -668.621        -521.005          51.000          40.000
  20523366.643    20523366.6594   20523366.8544  107851052.773 8  84039780.81247
      1221.158         951.552          53.000          46.000
  22286673.105    22286672.6094   22286675.1364  117117294.991 7  91260245.03744
     -1572.710       -1225.492          47.000          34.000
  24450986.243    24450986.2864   24450987.0324  128490835.874 5 100122738.51941
     -3140.946       -2447.491          35.000          16.000
  23383707.142    23383706.9624   23383707.8714  122882241.339 6  95752417.21042
     -3410.697       -2657.684          42.000          23.000
  22759536.929    22759537.248    22759536.953   121876332.640 6  94792699.559 4
       294.842         229.317          41.000          30.000
  23199135.889    23199136.008    23199130.219   124056203.962 5  96488161.109 4
      3278.264        2549.756          37.000          33.000
  19820714.393    19820715.495    19820715.064   106101893.123 8  82523700.216 6
      1461.157        1136.457          53.000          44.000
  41038553.969                                   215659057.114 4
          .000                          31.000
 05 10  2  1 23  0.0000000  0 13G 2G 4G 5G 7G 9G17G24G28G31R 4R 5R21
                                S22
  22947722.100    22947721.6464   22947720.4374  120591131.750 5  93967112.47041
      3597.331        2803.110          39.000          19.000
  21053595.288    21053595.3714   21053596.1904  110637437.307 8  86210991.84146
      1320.960        1029.316          50.000          40.000
  22272607.982    22272607.5274   22272607.7814  117043385.586 6  91202637.17043
      2856.136        2225.561          44.000          28.000
  21579462.236    21579461.5144   21579463.0154  113400884.733 8  88364336.07645
     -1997.032       -1556.130          50.000          39.000
  20768228.520    20768228.2914   20768229.0304  109137796.946 8  85042447.45046
      -690.252        -537.857          52.000          41.000
  20516432.826    20516433.1384   20516433.8314  107814617.580 8  84011389.76047
      1207.864         941.192          50.000          46.000
  22295700.682    22295700.4684   22295702.7384  117164735.582 7  91297211.72644
     -1589.988       -1238.953          46.000          33.000
  24468928.857    24468928.7804   24468930.3344  128585129.121 4 100196213.70841
     -3145.275       -2450.865          33.000          12.000
  23403187.048    23403187.6324   23403188.0764  122984612.271 6  95832186.71442
     -3414.001       -2660.258          41.000          22.000
  22757958.237    22757961.501    22757959.169   121867885.291 6  94786129.439 4
       268.310         208.677          42.000          30.000
  23180777.654    23180779.381    23180772.933   123958041.479 5  96411812.576 4
      3265.873        2540.124          38.000          32.000
  19812568.466    19812569.474    19812568.743   106058284.417 8  82489782.345 6
      1446.074        1124.720          53.000          44.000
  41038559.294                                   215659107.871 4
          .000                          31.000
 05 10  2  1 23 30.0000000  0 13G 2G 4G 5G 7G 9G17G24G28G31R 4R 5R21
                                S22
  22927204.231    22927203.9034   22927204.9494  120483321.362 4  93883104.44141
      3590.053        2797.448          33.000          18.000
  21046110.754    21046110.9264   21046112.1604  110598105.820 8  86180343.93346
      1301.125        1013.864          52.000          40.000
  22256322.927    22256321.8544   22256322.0514  116957803.469 7  91135949.84344
      2849.345        2220.270          45.000          30.000
  21590884.617    21590883.9244   21590885.3014  113460909.460 8  88411108.58845
     -2004.582       -1562.011          50.000          39.000
  20772230.843    20772230.5794   20772231.4074  109158829.360 8  85058836.34546
      -711.891        -554.722          51.000          41.000
  20509575.799    20509575.5774   20509575.9134  107778581.424 8  83983309.63947
      1194.554         930.822          53.000          46.000
  22304827.449    22304826.6324   22304828.4714  117212693.966 7  91334581.90644
     -1607.215       -1252.376          47.000          34.000
  24486898.118    24486896.1234   24486898.0394  128679551.621 5 100269789.70541
     -3149.555       -2454.201          36.000          12.000
  23422685.986    23422686.1124   23422688.2424  123087082.061 5  95912033.30342
     -3417.283       -2662.814          39.000          22.000
  22756532.890    22756532.520    22756529.994   121860236.634 6  94780180.502 3
       241.652         187.952          44.000          28.000
  23162491.427    23162493.967    23162486.709   123860254.182 5  96335755.857 4
      3253.280        2530.331          37.000          32.000
  19804507.144    19804508.013    19804506.888   106015130.203 8  82456217.977 6
      1430.969        1112.972          53.000          44.000
  41038576.320                                   215659203.105 4
          .000                          31.000
 05 10  2  1 24  0.0000000  0 12G 2G 4G 5G 7G 9G17G24G28G31R 4R 5R21
  22906731.444    22906730.1614   22906731.3544  120375730.556 5  93799267.45341
      3582.676        2791.699          38.000          18.000
  21038738.950    21038739.3274   21038740.4814  110559369.387 8  86150159.70546
      1281.291         998.411          52.000          40.000
  22240075.709    22240075.1514   22240075.7284  116872425.986 7  91069421.92644
      2842.476        2214.913          46.000          31.000
  21602349.787    21602349.0464   21602350.5154  113521159.031 7  88458056.30445
     -2012.049       -1567.833          49.000          39.000
  20776356.280    20776356.3094   20776357.3194  109180510.263 8  85075730.55446
      -733.500        -571.560          51.000          41.000
  20502794.096    20502794.1354   20502794.3724  107742945.118 8  83955541.09447
      1181.193         920.409          52.000          46.000
  22314051.362    22314050.9004   22314053.0704  117261168.589 7  91372354.33644
     -1624.412       -1265.774          46.000          34.000
  24504890.059    24504890.1404   24504890.3984  128774102.825 5 100343465.93841
     -3153.850       -2457.554          36.000          15.000
  23442205.458    23442204.5814   23442206.3024  123189649.298 6  95991955.84842
     -3420.524       -2665.352          41.000          24.000
  22755251.753    22755254.096    22755251.730   121853387.544 6  94774853.491 4
       214.960         167.186          41.000          31.000
  23144274.949    23144276.955    23144271.685   123762847.690 5  96259995.224 4
      3240.490        2520.386          37.000          32.000
  19796529.991    19796531.341    19796530.510   105972430.447 8  82423007.082 6
      1415.740        1101.133          53.000          44.000
 05 10  2  1 24 30.0000000  0 13G 2G 4G 5G 7G 9G17G24G28G31R 4R 5R21
                                S22
  22886300.488    22886299.7994   22886299.5844  120268362.240 5  93715603.94541
      3575.218        2785.878          38.000          19.000
  21031481.527    21031481.7054   21031482.1464  110521229.450 8  86120440.28546
      1261.385         982.897          52.000          40.000
  22223867.674    22223867.4084   22223868.5384  116787254.823 7  91003054.78044
      2835.581        2209.544          45.000          31.000
  21613857.200    21613856.7454   21613858.6564  113581632.357 8  88505178.37845
     -2019.476       -1573.616          50.000          38.000
  20780605.248    20780605.2894   20780606.5984  109202838.820 8  85093129.44046
      -755.052        -588.351          51.000          41.000
  20496088.938    20496088.8504   20496089.1374  107707708.506 8  83928083.99747
      1167.905         910.055          51.000          45.000
  22323373.665    22323373.3184   22323376.1744  117310157.536 7  91410527.53144
     -1641.503       -1279.094          45.000          34.000
  24522906.131    24522906.5784   24522908.5854  128868781.942 4 100417241.85141
     -3158.097       -2460.840          33.000          14.000
  23461739.420    23461740.5454   23461741.6074  123292312.202 6  96071952.87442
     -3423.685       -2667.808          40.000          21.000
  22754122.478    22754122.592    22754122.335   121847338.865 6  94770148.918 4
       188.288         146.447          40.000          31.000
  23126130.179    23126131.865    23126128.643   123665826.478 5  96184534.371 4
      3227.569        2510.328          35.000          31.000
  19788638.621    19788639.581    19788638.679   105930184.573 8  82390149.199 6
      1400.588        1089.347          53.000          43.000
  41038586.494                                   215659279.827 4
          .000                          32.000
 05 10  2  1 25  0.0000000  0 12G 2G 4G 5G 7G 9G17G24G28G31R 4R 5R21
  22865912.094    22865911.4744   22865911.1614  120161219.383 6  93632115.98842
      3567.645        2779.983          42.000          22.000
  21024337.558    21024337.7944   21024338.0574  110483687.329 8  86091186.69746
      1241.388         967.318          53.000          40.000
  22207699.933    22207699.7084   22207700.6714  116702291.548 7  90936849.65144
      2828.630        2204.126          45.000          32.000
  21625407.280    21625406.8664   21625408.3564  113642327.884 8  88552473.59445
     -2026.888       -1579.392          51.000          38.000
  20784977.415    20784977.2934   20784978.4364  109225814.065 8  85111032.23646
      -776.619        -605.161          52.000          41.000
  20489459.632    20489459.7934   20489460.2454  107672871.863 8  83900938.56447
      1154.536         899.638          53.000          45.000
  22332793.857    22332792.9054   22332795.2584  117359658.704 7  91449099.89044
     -1658.571       -1292.393          48.000          33.000
  24540949.452    24540946.7384   24540949.1514  128963587.825 5 100491116.48641
     -3162.329       -2464.137          36.000          13.000
  23481294.012    23481293.7674   23481295.2644  123395069.279 5  96152023.29542
     -3426.794       -2670.224          39.000          20.000
  22753141.838    22753143.127    22753142.531   121842091.051 6  94766067.318 4
       161.543         125.645          42.000          32.000
  23108062.381    23108062.214    23108056.504   123569194.194 5  96109376.069 4
      3214.544        2500.192          36.000          32.000
  19780831.395    19780832.397    19780831.476   105888393.643 8  82357645.156 6
      1385.483        1077.602          53.000          44.000
 05 10  2  1 25 30.0000000  0 13G 2G 4G 5G 7G 9G17G24G28G31R 4R 5R21
                                S22
  22845566.372    22845565.7874   22845565.3814  120054304.551 6  93548805.76042
      3559.987        2774.017          40.000          24.000
  21017307.357    21017307.8274   21017308.1064  110446744.178 8  86062399.83546
      1221.424         951.760          52.000          40.000
  22191572.113    22191571.6714   22191572.7864  116617537.909 6  90870807.90744
      2821.609        2198.654          44.000          31.000
  21636999.506    21636998.7904   21636999.9374  113703244.511 8  88599941.07945
     -2034.240       -1585.121          50.000          37.000
  20789472.449    20789472.2764   20789473.1434  109249435.320 8  85129438.40446
      -798.138        -621.927          51.000          41.000
  20482906.605    20482906.6214   20482906.9884  107638435.614 8  83874105.12647
      1141.202         889.249          52.000          45.000
  22342310.234    22342309.8054   22342311.8334  117409671.053 7  91488070.53244
     -1675.583       -1305.648          46.000          32.000
  24559013.582    24559012.0734   24559013.4984  129058519.864 5 100565089.47741
     -3166.497       -2467.421          35.000          13.000
  23500866.380    23500865.4984   23500866.7804  123497919.008 6  96232165.96841
     -3429.864       -2672.607          41.000          15.000
  22752311.948    22752314.243    22752311.753   121837644.589 6  94762608.991 4
       134.837         104.876          42.000          30.000
  23090064.954    23090065.541    23090059.464   123472956.141 5  96034524.207 4
      3201.303        2489.903          37.000          31.000
  19773109.816    19773110.537    19773109.703   105847057.514 8  82325494.836 6
      1370.298        1065.786          53.000          44.000
  41038605.529                                   215659400.640 4
          .000                          31.000
 05 10  2  1 26  0.0000000  0 12G 2G 4G 5G 7G 9G17G24G28G31R 4R 5R21
  22825264.980    22825264.7824   22825264.3894  119947620.699 6  93465675.56843
      3552.265        2768.000          43.000          25.000
  21010391.853    21010392.0614   21010392.6294  110410401.454 8  86034080.84546
      1201.418         936.167          53.000          40.000
  22175483.747    22175483.7434   22175485.1254  116532995.522 6  90804930.79444
      2814.544        2193.147          43.000          30.000
  21648633.254    21648632.4354   21648633.8254  113764381.081 7  88647579.95545
     -2041.517       -1590.792          49.000          37.000
  20794090.161    20794089.7694   20794091.0554  109273701.547 8  85148347.16246
      -819.609        -638.656          51.000          40.000
  20476430.157    20476429.8874   20476430.1834  107604399.268 8  83847583.29547
      1127.866         878.859          52.000          46.000
  22351924.436    22351924.1004   22351925.8324  117460192.236 7  91527437.70444
     -1692.487       -1318.823          47.000          33.000
  24577103.843    24577101.7044   24577103.0264  129153577.054 5 100639159.94141
     -3170.646       -2470.624          35.000          14.000
  23520455.056    23520454.4864   23520456.0174  123600859.745 6  96312379.54042
     -3432.860       -2674.953          41.000          23.000
  22751631.741    22751632.861    22751630.598   121834000.290 6  94759774.562 4
       108.111          84.089          42.000          30.000
  23072141.741    23072141.687    23072136.991   123377116.384 4  95959982.193 4
      3188.013        2479.562          33.000          30.000
  19765472.411    19765473.723    19765473.156   105806175.717 8  82293697.922 7
      1355.200        1054.042          54.000          45.000
 05 10  2  1 26 30.0000000  0 12G 2G 4G 5G 7G 9G17G24G28G31R 4R 5R21
  22805008.630    22805008.3624   22805007.4444  119841170.365 6  93382727.26943
      3544.430        2761.898          44.000          26.000
  21003590.152    21003590.3274   21003591.5334  110374660.229 8  86006230.54346
      1181.338         920.523          51.000          40.000
  22159437.029    22159436.1384   22159437.7894  116448666.241 6  90739219.72543
      2807.409        2187.590          42.000          28.000
  21660308.990    21660308.0184   21660309.7184  113825736.374 8  88695389.28345
     -2048.804       -1596.472          50.000          38.000
  20798830.700    20798830.3054   20798831.4334  109298612.105 8  85167757.99046
      -841.068        -655.378          51.000          41.000
  20470029.171    20470029.2684   20470029.6774  107570763.347 8  83821373.48347
      1114.524         868.461          53.000          46.000
  22361635.162    22361634.3194   22361636.2584  117511220.432 7  91567199.93244
     -1709.362       -1331.971          48.000          33.000
  24595216.020    24595214.9944   24595215.1624  129248758.803 5 100713327.50841
     -3174.785       -2473.873          36.000          13.000
  23540060.555    23540060.8824   23540062.6084  123703890.012 5  96392662.89642
     -3435.819       -2677.265          37.000          22.000
  22751098.597    22751101.725    22751100.015   121831158.937 5  94757564.703 4
        81.304          63.231          39.000          30.000
  23054294.939    23054296.666    23054289.817   123281679.261 5  95885753.418 4
      3174.458        2469.024          36.000          32.000
  19757920.051    19757921.328    19757920.822   105765748.002 8  82262254.151 6
      1340.147        1042.338          54.000          44.000
 05 10  2  1 27  0.0000000  0 12G 2G 4G 5G 7G 9G17G24G28G31R 4R 5R21
  22784796.404    22784796.1364   22784795.8374  119734955.967 6  93299962.85943
      3536.512        2755.717          42.000          26.000
  20996903.780    20996903.6624   20996904.5544  110339521.518 8  85978849.73446
      1161.205         904.833          52.000          40.000
  22143429.458    22143428.9234   22143431.3684  116364551.601 6  90673675.87343
      2800.205        2181.981          41.000          26.000
  21672026.060    21672024.9114   21672026.5924  113887308.962 8  88743367.91945
     -2056.026       -1602.100          50.000          38.000
  20803693.137    20803692.8634   20803693.7454  109324165.990 8  85187670.10546
      -862.521        -672.095          51.000          40.000
  20463704.708    20463704.6724   20463704.9454  107537527.863 8  83795475.70847
      1101.166         858.052          52.000          46.000
  22371441.319    22371440.7724   22371442.8554  117562753.710 7  91607355.73444
     -1726.183       -1345.080          47.000          33.000
  24613351.288    24613350.1074   24613350.1904  129344064.192 5 100787591.40441
     -3178.899       -2477.074          35.000          11.000
  23559684.379    23559683.0174   23559685.7964  123807007.992 6  96473014.57542
     -3438.713       -2679.509          40.000          21.000
  22750717.407    22750720.717    22750719.699   121829120.497 5  94755979.247 4
        54.548          42.419          39.000          30.000
  23036521.199    23036524.288    23036519.522   123186648.936 5  95811840.973 4
      3160.862        2458.436          35.000          31.000
  19750452.858    19750454.169    19750452.782   105725774.848 8  82231163.944 6
      1324.781        1030.385          54.000          44.000
 05 10  2  1 27 30.0000000  0 13G 2G 4G 5G 7G 9G17G24G28G31R 4R 5R21
                                S22
  22764629.650    22764628.8534   22764629.3464  119628980.787 5  93217384.85743
      3528.488        2749.479          38.000          25.000
  20990331.877    20990332.0364   20990332.8904  110304986.855 8  85951939.61546
      1141.066         889.141          52.000          40.000
  22127463.785    22127463.0644   22127466.4104  116280653.364 6  90608300.60643
      2792.993        2176.357          41.000          25.000
  21683783.701    21683783.1614   21683784.9224  113949097.814 8  88791515.06345
     -2063.219       -1607.701          50.000          38.000
  20808678.312    20808678.0094   20808678.9414  109350362.604 8  85208083.03246
      -883.916        -688.763          51.000          40.000
  20457456.509    20457456.4494   20457456.5984  107504692.493 8  83769889.69547
      1087.839         847.667          53.000          46.000
  22381343.056    22381343.2194   22381344.4134  117614790.563 7  91647903.93644
     -1742.929       -1358.120          48.000          33.000
  24631508.811    24631508.9594   24631511.0714  129439492.535 4 100861951.14841
     -3182.964       -2480.224          34.000          12.000
  23579324.076    23579323.5804   23579322.9574  123910212.401 6  96553433.56942
     -3441.558       -2681.744          41.000          21.000
  22750488.929    22750490.948    22750488.811   121827885.984 6  94755019.052 4
        27.765          21.594          43.000          30.000
  23018826.016    23018829.308    23018823.344   123092030.348 4  95738248.802 4
      3147.096        2447.744          33.000          31.000
  19743070.473    19743071.273    19743070.730   105686256.210 8  82200427.255 7
      1309.740        1018.682          53.000          45.000
  41038657.449                                   215659671.011 4
          .000                          32.000
 05 10  2  1 28  0.0000000  0 12G 2G 4G 5G 7G 9G17G24G28G31R 4R 5R21
  22744509.879    22744508.8634   22744508.6644  119523247.292 6  93134995.15443
      3520.377        2743.158          42.000          26.000
  20983875.189    20983875.3354   20983876.1964  110271057.115 8  85925500.86346
      1120.897         873.427          51.000          40.000
  22111540.698    22111539.8104   22111542.4774  116196973.161 6  90543095.22743
      2785.678        2170.660          44.000          27.000
  21695582.878    21695582.0814   21695584.0504  114011101.381 8  88839829.52345
     -2070.384       -1613.285          50.000          38.000
  20813785.388    20813785.0954   20813786.1014  109377200.554 8  85228995.73446
      -905.289        -705.419          51.000          40.000
  20451284.083    20451284.2844   20451284.6944  107472257.442 8  83744615.62647
      1074.498         837.270          52.000          46.000
  22391341.256    22391341.2364   22391342.4874  117667328.899 7  91688842.90244
     -1759.621       -1371.135          48.000          33.000
  24649693.947    24649691.3034   24649693.8594  129535042.884 5 100936405.87941
     -3187.045       -2483.410          35.000          11.000
  23598978.499    23598978.2984   23598978.8644  124013501.733 5  96633918.74342
     -3444.386       -2683.935          38.000          21.000
  22750409.740    22750410.996    22750408.404   121827455.898 6  94754684.585 4
          .940            .730          44.000          31.000
  23001212.387    23001213.318    23001208.870   122997827.662 5  95664980.123 4
      3133.106        2436.846          38.000          33.000
  19735772.613    19735773.793    19735772.932   105647190.967 8  82170043.167 6
      1294.557        1006.877          53.000          44.000
 05 10  2  1 28 30.0000000  0 12G 2G 4G 5G 7G 9G17G24G28G31R 4R 5R21
  22724434.870    22724434.7824   22724434.2694  119417758.466 6  93052796.03142
      3512.205        2736.775          40.000          24.000
  20977534.407    20977534.2754   20977534.6374  110237733.560 8  85899534.47246
      1100.677         857.670          51.000          41.000
  22095659.269    22095658.1864   22095660.7414  116113512.714 7  90478061.11443
      2778.341        2164.946          45.000          27.000
  21707422.045    21707421.4094   21707423.3264  114073318.655 8  88888310.50745
     -2077.447       -1618.791          50.000          38.000
  20819014.134    20819013.8404   20819015.1004  109404679.040 8  85250407.53446
      -926.612        -722.036          51.000          41.000
  20445187.924    20445188.0754   20445188.6524  107440222.666 8  83719653.47047
      1061.151         826.871          50.000          46.000
  22401433.792    22401434.0074   22401435.3494  117720367.000 7  91730171.27644
     -1776.243       -1384.085          47.000          33.000
  24667899.478    24667897.9104   24667897.8494  129630714.269 5 101010955.04441
     -3191.065       -2486.540          35.000          12.000
  23618649.707    23618649.3434   23618650.7294  124116874.225 6  96714468.74442
     -3447.118       -2686.063          40.000          21.000
  22750478.959    22750480.449    22750479.129   121827830.141 6  94754975.673 4
       -25.870         -20.112          42.000          31.000
  22983675.868    22983677.468    22983669.249   122904045.360 5  95592038.324 4
      3119.039        2425.925          35.000          32.000
  19728560.079    19728561.154    19728560.397   105608580.302 8  82140012.670 6
      1279.485         995.160          53.000          44.000
 05 10  2  1 29  0.0000000  0 12G 2G 4G 5G 7G 9G17G24G28G31R 4R 5R21
  22704408.897    22704408.4434   22704407.1314  119312516.689 6  92970789.50242
      3503.909        2730.314          41.000          24.000
  20971308.299    20971308.5004   20971309.2264  110205017.196 8  85874041.21546
      1080.448         841.907          51.000          40.000
  22079819.046    22079818.4764   22079819.7954  116030273.801 7  90413199.60043
      2770.920        2159.157          45.000          26.000
  21719302.401    21719301.3714   21719303.1914  114135748.461 7  88936957.10045
     -2084.521       -1624.303          49.000          38.000
  20824365.027    20824364.6824   20824365.4134  109432796.955 8  85272317.58946
      -947.913        -738.637          52.000          40.000
  20439168.672    20439168.4024   20439168.7484  107408588.546 8  83695003.50747
      1047.796         816.467          52.000          47.000
  22411621.716    22411621.1914   22411622.9194  117773902.924 7  91771887.59744
     -1792.802       -1396.989          46.000          32.000
  24686127.598    24686126.0804   24686126.5724  129726506.075 5 101085597.94641
     -3195.058       -2489.639          35.000          12.000
  23638336.170    23638336.0714   23638336.7554  124220328.399 5  96795082.42842
     -3449.834       -2688.177          39.000          21.000
  22750698.378    22750700.410    22750699.624   121829009.057 6  94755892.641 4
       -52.708         -40.995          42.000          31.000
  22966216.937    22966216.754    22966212.122   122810687.968 4  95519427.055 4
      3104.783        2414.835          34.000          34.000
  19721431.844    19721433.012    19721431.917   105570422.711 8  82110334.560 6
      1264.528         983.523          54.000          44.000
 05 10  2  1 29 30.0000000  0 13G 2G 4G 5G 7G 9G17G24G28G31R 4R 5R21
                                S22
  22684430.315    22684429.6144   22684428.0404  119207524.927 6  92888977.83643
      3495.522        2723.790          41.000          25.000
  20965198.124    20965198.4944   20965198.6514  110172909.152 8  85849021.96146
      1060.068         826.028          52.000          40.000
  22064021.516    22064021.0004   22064022.2374  115947258.144 7  90348512.05743
      2763.448        2153.335          46.000          27.000
  21731222.537    21731221.7764   21731223.8504  114198389.627 8  88985768.39345
     -2091.532       -1629.763          50.000          38.000
  20829837.439    20829837.0354   20829837.6644  109461553.374 8  85294725.18046
      -969.173        -755.200          51.000          41.000
  20433225.042    20433225.1434   20433225.2734  107377355.446 8  83670666.02047
      1034.442         806.058          53.000          46.000
  22421903.351    22421902.8694   22421904.3804  117827934.453 7  91813990.06744
     -1809.276       -1409.824          46.000          32.000
  24704379.972    24704377.7904   24704378.6004  129822417.318 5 101160334.02341
     -3199.034       -2492.759          37.000          13.000
  23658037.799    23658037.2074   23658038.9854  124323862.798 5  96875758.60841
     -3452.450       -2690.221          38.000          19.000
  22751068.864    22751071.348    22751069.679   121830993.376 6  94757435.994 4
       -79.557         -61.880          40.000          31.000
  22948839.656    22948839.314    22948834.193   122717759.703 5  95447149.616 4
      3090.395        2403.640          36.000          33.000
  19714388.681    19714389.603    19714388.778   105532719.026 8  82081009.469 7
      1249.257         971.643          54.000          45.000
  41038708.053                                   215659924.794 4
          .000                          31.000
 05 10  2  1 30  0.0000000  0 13G 2G 4G 5G 7G 9G17G24G28G31R 4R 5R21
                                S22
  22664497.199    22664497.8664   22664497.3154  119102786.089 6  92807363.17442
      3487.063        2717.194          41.000          23.000
  20959204.301    20959204.6294   20959205.1114  110141410.556 8  85824477.60546
      1039.759         810.201          51.000          41.000
  22048267.215    22048266.3014   22048267.9564  115864467.444 7  90283999.82844
      2755.933        2147.479          45.000          30.000
  21743182.502    21743181.8564   21743183.7554  114261240.823 7  89034743.34545
     -2098.526       -1635.213          47.000          37.000
  20835430.640    20835430.3194   20835431.3264  109490947.321 8  85317629.55646
      -990.404        -771.744          50.000          41.000
  20427357.074    20427357.3604   20427357.8234  107346523.210 8  83646640.91147
      1021.051         795.622          50.000          46.000
  22432278.788    22432278.6604   22432280.0764  117882459.546 7  91856477.15044
     -1825.705       -1422.627          46.000          32.000
  24722652.279    24722652.7004   24722652.1734  129918447.502 5 101235162.60441
     -3202.975       -2495.827          35.000          12.000
  23677754.791    23677754.8284   23677756.7544  124427475.937 5  96956496.12742
     -3455.051       -2692.263          39.000          21.000
  22751590.709    22751592.167    22751590.645   121833783.302 6  94759605.917 4
      -106.374         -82.737          43.000          32.000
  22931542.388    22931539.880    22931537.745   122625265.047 5  95375209.347 4
      3075.869        2392.350          35.000          34.000
  19707429.782    19707430.913    19707430.041   105495468.392 8  82052036.773 6
      1234.135         959.879          54.000          44.000
  41038728.841                                   215660043.783 4
          .000                          31.000
 05 10  2  1 30 30.0000000  0 13G 2G 4G 5G 7G 9G17G24G28G31R 4R 5R21
                                S22
  22644615.617    22644615.0394   22644614.8544  118998302.743 6  92725947.62443
      3478.498        2710.526          42.000          26.000
  20953326.503    20953326.5974   20953327.1954  110110522.303 8  85800408.85046
      1019.445         794.370          51.000          40.000
  22032556.214    22032555.2914   22032556.7324  115781903.466 7  90219664.25944
      2748.336        2141.558          48.000          32.000
  21755182.599    21755181.6164   21755182.9534  114324300.849 8  89083881.02845
     -2105.477       -1640.633          50.000          37.000
  20841145.346    20841145.0204   20841145.8994  109520977.691 8  85341029.82246
     -1011.613        -788.269          51.000          41.000
  20421566.755    20421566.2694   20421566.7934  107316091.625 8  83622927.99347
      1007.731         785.244          52.000          46.000
  22442748.729    22442748.7374   22442749.7584  117937476.527 7  91899347.55244
     -1842.078       -1435.388          47.000          33.000
  24740949.302    24740948.0174   24740949.9894  130014595.280 5 101310082.96941
     -3206.875       -2498.858          35.000          14.000
  23697485.624    23697485.5644   23697487.4804  124531166.303 5  97037293.86041
     -3457.612       -2694.240          37.000          19.000
  22752262.139    22752263.885    22752261.758   121837378.626 6  94762402.331 4
      -133.256        -103.640          42.000          31.000
  22914326.067    22914326.660    22914321.630   122533208.408 5  95303609.821 4
      3061.221        2380.954          38.000          32.000
  19700555.947    19700557.159    19700555.501   105458671.878 8  82023417.264 7
      1219.097         948.187          54.000          45.000
  41038729.906                                   215660016.125 4
          .000                          32.000
 05 10  2  1 31  0.0000000  0 13G 2G 4G 5G 7G 9G17G24G28G31R 4R 5R21
                                S22
  22624782.012    22624781.7914   22624781.5584  118894077.307 6  92644733.00143
      3469.851        2703.785          43.000          27.000
  20947565.015    20947565.0604   20947566.0744  110080245.470 8  85776816.52246
       999.022         778.456          51.000          41.000
  22016887.700    22016887.2564   22016888.8294  115699567.854 7  90155506.65844
      2740.718        2135.626          47.000          31.000
  21767222.015    21767221.3744   21767222.0584  114387568.486 8  89133180.46745
     -2112.372       -1646.004          50.000          37.000
  20846981.101    20846980.6914   20846981.8574  109551643.281 8  85364925.09846
     -1032.763        -804.750          50.000          41.000
  20415851.727    20415851.6294   20415852.3034  107286060.712 8  83599527.28947
       994.365         774.830          52.000          46.000
  22453311.021    22453311.4304   22453312.4334  117992983.486 7  91942599.73544
     -1858.368       -1448.077          47.000          32.000
  24759267.627    24759266.4224   24759268.3774  130110859.954 5 101385094.38241
     -3210.779       -2501.913          36.000          12.000
  23717233.438    23717232.5094   23717234.3464  124634932.404 6  97118150.55842
     -3460.113       -2696.187          41.000          22.000
  22753083.063    22753085.805    22753084.155   121841779.811 6  94765825.530 4
      -160.120        -124.534          41.000          31.000
  22897196.352    22897196.588    22897189.247   122441593.440 5  95232353.751 4
      3046.431        2369.454          37.000          33.000
  19693766.115    19693767.221    19693766.346   105422326.438 8  81995148.604 7
      1203.920         936.381          53.000          45.000
  41038750.280                                   215660118.752 4
          .000                          31.000
